[[{"header":{"parameterUnit":"m.s-1","parameterCategory":1,"la1":30.6,"la2":29.2853,"lo1":-89.7004,"lo2":-87.6739,"dy":0.0162,"dx":0.0183,"nx":112,"ny":82,"refTime":"2024-09-25T18:00:00:Z","depth":0,"parameterNumber":2,"parameterNumberName":"U-component_of_WINDS"},"data":[0.0,0.0,0.0,0.0,0.0,0.0,0.0,0.0,0.0,0.0,0.0,0.0,0.0,0.0,0.0,0.0,0.0,0.0,0.0,0.0,0.0,0.0,0.0,0.0,0.0,0.0,0.0,0.0,0.0,0.0,0.0,0.0,0.0,0.0,0.0,0.0,0.0,0.0,0.0,0.0,0.0,0.0,0.0,0.0,0.0,0.0,0.0,0.0,0.0,0.0,0.0,0.0,0.0,0.0,0.0,0.0,0.0,0.0,0.0,0.0,0.0,0.0,0.0,0.0,0.0,0.0,0.0,0.0,0.0,0.0,0.0,0.0,0.0,0.0,0.0,0.0,0.0,0.0,0.0,0.0,0.0,0.0,0.0,0.0,0.0,0.0,0.0,0.0,0.0,0.0,2.5399,2.539,2.537,2.5408,2.5475,2.549,2.5484,2.5492,0.0,0.0,0.0,0.0,0.0,0.0,0.0,0.0,0.0,0.0,0.0,0.0,0.0,0.0,0.0,0.0,0.0,0.0,0.0,0.0,0.0,0.0,0.0,0.0,0.0,0.0,0.0,0.0,0.0,0.0,0.0,0.0,0.0,0.0,0.0,0.0,0.0,0.0,0.0,0.0,0.0,0.0,0.0,0.0,0.0,0.0,0.0,0.0,0.0,0.0,0.0,0.0,0.0,0.0,0.0,0.0,0.0,0.0,0.0,0.0,0.0,0.0,0.0,0.0,0.0,0.0,0.0,0.0,0.0,0.0,0.0,0.0,0.0,0.0,0.0,0.0,0.0,0.0,0.0,0.0,0.0,0.0,0.0,0.0,0.0,0.0,0.0,0.0,0.0,0.0,0.0,0.0,0.0,0.0,0.0,0.0,0.0,0.0,0.0,0.0,0.0,0.0,0.0,0.0,2.5385,2.5313,2.5313,2.5341,2.5418,2.5425,2.5161,2.4559,0.0,0.0,0.0,0.0,0.0,0.0,0.0,0.0,0.0,0.0,0.0,0.0,0.0,0.0,0.0,0.0,0.0,0.0,0.0,0.0,0.0,0.0,0.0,0.0,0.0,0.0,0.0,0.0,0.0,0.0,0.0,0.0,0.0,0.0,0.0,0.0,0.0,0.0,0.0,0.0,0.0,0.0,0.0,0.0,0.0,0.0,0.0,0.0,0.0,0.0,0.0,0.0,0.0,0.0,0.0,0.0,0.0,0.0,0.0,0.0,0.0,0.0,0.0,0.0,0.0,0.0,0.0,0.0,0.0,0.0,0.0,0.0,0.0,0.0,0.0,0.0,0.0,0.0,0.0,0.0,0.0,0.0,0.0,0.0,0.0,0.0,0.0,0.0,0.0,0.0,0.0,0.0,0.0,0.0,0.0,0.0,0.0,0.0,0.0,0.0,0.0,0.0,0.0,2.5367,2.534,2.5293,2.5303,2.5322,2.5398,2.5397,2.5095,2.4339,2.3513,0.0,0.0,0.0,0.0,0.0,0.0,0.0,0.0,0.0,0.0,0.0,0.0,0.0,0.0,0.0,0.0,0.0,0.0,0.0,0.0,0.0,0.0,0.0,0.0,0.0,0.0,0.0,0.0,0.0,0.0,0.0,0.0,0.0,0.0,0.0,0.0,0.0,0.0,0.0,0.0,0.0,0.0,0.0,0.0,0.0,0.0,0.0,0.0,0.0,0.0,0.0,0.0,0.0,0.0,0.0,0.0,0.0,0.0,0.0,0.0,0.0,0.0,0.0,0.0,0.0,0.0,0.0,0.0,0.0,0.0,0.0,0.0,0.0,0.0,0.0,0.0,0.0,0.0,0.0,0.0,0.0,0.0,0.0,0.0,0.0,0.0,0.0,0.0,0.0,0.0,0.0,0.0,0.0,0.0,0.0,0.0,0.0,0.0,0.0,0.0,0.0,0.0,2.5303,2.5303,2.5303,2.5303,2.5313,2.5361,2.5204,2.4759,2.403,2.3187,0.0,0.0,0.0,0.0,0.0,0.0,0.0,0.0,0.0,0.0,0.0,0.0,0.0,0.0,0.0,0.0,0.0,0.0,0.0,0.0,0.0,0.0,0.0,0.0,0.0,0.0,0.0,0.0,0.0,0.0,0.0,0.0,0.0,0.0,0.0,0.0,0.0,0.0,0.0,0.0,0.0,0.0,0.0,0.0,0.0,0.0,0.0,0.0,0.0,0.0,0.0,0.0,0.0,0.0,0.0,0.0,0.0,0.0,0.0,0.0,0.0,0.0,0.0,0.0,0.0,0.0,0.0,0.0,0.0,0.0,0.0,0.0,0.0,0.0,0.0,0.0,0.0,0.0,0.0,0.0,0.0,0.0,0.0,0.0,0.0,0.0,0.0,0.0,0.0,0.0,0.0,0.0,0.0,0.0,0.0,0.0,0.0,0.0,0.0,0.0,0.0,0.0,2.5303,2.5303,2.5303,2.5303,2.5303,2.5313,2.4627,2.3843,2.306,2.2303,0.0,0.0,0.0,0.0,0.0,0.0,0.0,0.0,0.0,0.0,0.0,0.0,0.0,0.0,0.0,0.0,0.0,0.0,0.0,0.0,0.0,0.0,0.0,0.0,0.0,0.0,0.0,0.0,0.0,0.0,0.0,0.0,0.0,0.0,0.0,0.0,0.0,0.0,0.0,0.0,0.0,0.0,0.0,0.0,0.0,0.0,0.0,0.0,0.0,0.0,0.0,0.0,0.0,0.0,0.0,0.0,0.0,0.0,0.0,0.0,0.0,0.0,0.0,0.0,0.0,0.0,0.0,0.0,0.0,0.0,0.0,0.0,0.0,0.0,0.0,0.0,0.0,0.0,0.0,0.0,0.0,0.0,0.0,0.0,0.0,0.0,0.0,0.0,0.0,0.0,0.0,0.0,0.0,0.0,0.0,0.0,0.0,0.0,0.0,0.0,0.0,0.0,2.5303,2.5303,0.0,2.5303,2.5303,2.5303,2.5071,2.4334,2.2999,0.0,0.0,0.0,0.0,0.0,0.0,0.0,0.0,0.0,0.0,0.0,0.0,0.0,0.0,0.0,0.0,0.0,0.0,0.0,0.0,0.0,0.0,0.0,0.0,0.0,0.0,0.0,0.0,0.0,0.0,0.0,0.0,0.0,0.0,0.0,0.0,0.0,0.0,0.0,0.0,0.0,0.0,0.0,0.0,0.0,0.0,0.0,0.0,0.0,0.0,0.0,0.0,0.0,0.0,0.0,0.0,0.0,0.0,0.0,0.0,0.0,0.0,0.0,0.0,0.0,0.0,0.0,0.0,0.0,0.0,0.0,0.0,0.0,0.0,0.0,0.0,0.0,0.0,0.0,0.0,0.0,0.0,0.0,0.0,0.0,0.0,0.0,0.0,0.0,0.0,0.0,0.0,0.0,0.0,0.0,0.0,0.0,0.0,0.0,0.0,0.0,0.0,2.5264,2.5303,2.5303,0.0,2.5303,2.5303,2.5303,2.5109,2.4392,2.2991,0.0,0.0,0.0,0.0,0.0,0.0,0.0,0.0,0.0,0.0,0.0,0.0,0.0,0.0,0.0,0.0,0.0,0.0,0.0,0.0,0.0,0.0,0.0,0.0,0.0,0.0,0.0,0.0,0.0,0.0,0.0,0.0,0.0,0.0,0.0,0.0,0.0,0.0,0.0,0.0,0.0,0.0,0.0,0.0,0.0,0.0,0.0,0.0,0.0,0.0,0.0,0.0,0.0,0.0,0.0,0.0,0.0,0.0,0.0,0.0,0.0,0.0,0.0,0.0,0.0,0.0,0.0,0.0,0.0,0.0,0.0,0.0,0.0,0.0,0.0,0.0,0.0,0.0,0.0,0.0,0.0,0.0,0.0,0.0,0.0,0.0,0.0,0.0,0.0,0.0,0.0,0.0,0.0,0.0,0.0,0.0,0.0,0.0,0.0,0.0,0.0,0.0,2.5187,2.5303,2.5303,2.5303,2.5303,2.5303,2.5303,2.457,2.3766,0.0,0.0,0.0,0.0,0.0,0.0,0.0,0.0,0.0,0.0,0.0,0.0,0.0,0.0,0.0,0.0,0.0,0.0,0.0,0.0,0.0,0.0,0.0,0.0,0.0,0.0,0.0,0.0,0.0,0.0,0.0,0.0,0.0,0.0,0.0,0.0,0.0,0.0,0.0,0.0,0.0,0.0,0.0,0.0,0.0,0.0,0.0,0.0,0.0,0.0,0.0,0.0,0.0,0.0,0.0,0.0,0.0,0.0,0.0,0.0,0.0,0.0,0.0,0.0,0.0,0.0,0.0,0.0,0.0,0.0,0.0,0.0,0.0,0.0,0.0,0.0,0.0,0.0,0.0,0.0,0.0,0.0,0.0,0.0,0.0,0.0,0.0,0.0,0.0,0.0,0.0,0.0,0.0,0.0,0.0,0.0,0.0,0.0,0.0,0.0,0.0,0.0,0.0,2.5264,2.5303,2.5303,2.5303,2.5303,2.5303,2.5303,2.5129,2.4403,2.2987,0.0,0.0,0.0,0.0,0.0,0.0,0.0,0.0,0.0,0.0,0.0,0.0,0.0,0.0,0.0,0.0,0.0,0.0,0.0,0.0,0.0,0.0,0.0,0.0,0.0,0.0,0.0,0.0,0.0,0.0,0.0,0.0,0.0,0.0,0.0,0.0,0.0,0.0,0.0,0.0,0.0,0.0,0.0,0.0,0.0,0.0,0.0,0.0,0.0,0.0,0.0,0.0,0.0,0.0,0.0,0.0,0.0,0.0,0.0,0.0,0.0,0.0,0.0,0.0,0.0,0.0,0.0,0.0,0.0,0.0,0.0,0.0,0.0,0.0,0.0,0.0,0.0,0.0,0.0,0.0,0.0,0.0,0.0,0.0,0.0,0.0,0.0,0.0,0.0,0.0,0.0,0.0,0.0,0.0,0.0,0.0,0.0,0.0,0.0,0.0,0.0,0.0,2.5293,2.5303,2.5303,2.5303,2.5303,2.5303,2.5303,2.536,2.4673,2.3006,0.0,0.0,0.0,0.0,0.0,0.0,0.0,0.0,0.0,0.0,0.0,0.0,0.0,0.0,0.0,0.0,0.0,0.0,0.0,0.0,0.0,0.0,0.0,0.0,0.0,0.0,0.0,0.0,0.0,0.0,0.0,0.0,0.0,0.0,0.0,0.0,0.0,0.0,0.0,0.0,0.0,0.0,0.0,0.0,0.0,0.0,0.0,0.0,0.0,0.0,0.0,0.0,0.0,0.0,0.0,0.0,0.0,0.0,0.0,0.0,0.0,0.0,0.0,0.0,0.0,0.0,0.0,0.0,0.0,0.0,0.0,0.0,0.0,0.0,0.0,0.0,0.0,0.0,0.0,0.0,0.0,0.0,0.0,0.0,0.0,0.0,0.0,0.0,0.0,0.0,0.0,0.0,0.0,0.0,0.0,0.0,0.0,0.0,0.0,0.0,0.0,0.0,2.5292,2.5293,2.5303,2.5303,2.5303,2.5303,2.5303,2.536,2.4711,2.3102,0.0,0.0,0.0,0.0,0.0,0.0,0.0,0.0,0.0,0.0,0.0,0.0,0.0,0.0,0.0,0.0,0.0,0.0,0.0,0.0,0.0,0.0,0.0,0.0,0.0,0.0,0.0,0.0,0.0,0.0,0.0,0.0,0.0,0.0,0.0,0.0,0.0,0.0,0.0,0.0,0.0,0.0,0.0,0.0,0.0,0.0,0.0,0.0,0.0,0.0,0.0,0.0,0.0,0.0,0.0,0.0,0.0,0.0,0.0,0.0,2.2838,0.0,0.0,0.0,0.0,0.0,0.0,0.0,0.0,0.0,0.0,0.0,0.0,0.0,0.0,0.0,0.0,0.0,0.0,0.0,0.0,0.0,0.0,0.0,0.0,0.0,0.0,0.0,0.0,0.0,0.0,0.0,0.0,0.0,0.0,0.0,0.0,0.0,0.0,0.0,0.0,0.0,2.5292,2.5293,2.5303,2.5303,2.5303,2.5303,2.5303,2.536,2.4943,2.3901,2.2492,0.0,0.0,0.0,0.0,0.0,0.0,0.0,0.0,0.0,0.0,0.0,0.0,0.0,0.0,0.0,0.0,0.0,0.0,0.0,0.0,0.0,0.0,0.0,0.0,0.0,0.0,0.0,0.0,0.0,0.0,0.0,0.0,0.0,0.0,0.0,0.0,0.0,0.0,0.0,0.0,0.0,0.0,0.0,0.0,0.0,0.0,0.0,0.0,0.0,0.0,0.0,0.0,0.0,0.0,0.0,0.0,0.0,0.0,0.0,0.0,2.3639,0.0,0.0,0.0,0.0,0.0,0.0,0.0,0.0,0.0,0.0,0.0,0.0,0.0,0.0,0.0,0.0,0.0,0.0,0.0,0.0,0.0,0.0,0.0,0.0,0.0,0.0,0.0,0.0,0.0,0.0,0.0,0.0,0.0,0.0,0.0,0.0,0.0,0.0,0.0,0.0,2.5349,2.5302,2.5293,2.5303,2.5303,2.5303,2.5303,2.536,2.502,2.4152,2.2956,0.0,0.0,0.0,0.0,0.0,0.0,0.0,0.0,0.0,0.0,0.0,0.0,0.0,0.0,0.0,0.0,0.0,0.0,0.0,0.0,0.0,0.0,0.0,0.0,0.0,0.0,0.0,0.0,0.0,0.0,0.0,0.0,0.0,0.0,0.0,0.0,0.0,0.0,0.0,0.0,0.0,0.0,0.0,0.0,0.0,0.0,0.0,0.0,0.0,0.0,0.0,0.0,0.0,2.5742,2.6453,2.7777,2.7056,2.7155,2.7764,2.5659,2.5043,2.5534,2.5534,0.0,0.0,0.0,0.0,0.0,0.0,0.0,0.0,0.0,0.0,0.0,0.0,0.0,0.0,0.0,0.0,0.0,0.0,0.0,0.0,0.0,0.0,0.0,0.0,2.6342,2.6255,2.4139,0.0,0.0,0.0,0.0,0.0,0.0,0.0,0.0,0.0,0.0,0.0,2.5397,2.5416,2.5456,2.5303,2.5303,2.5303,2.5303,2.536,2.5078,2.4364,2.3574,2.2829,0.0,0.0,0.0,0.0,0.0,0.0,0.0,0.0,0.0,0.0,0.0,0.0,0.0,0.0,0.0,0.0,0.0,0.0,0.0,0.0,0.0,0.0,0.0,0.0,0.0,0.0,0.0,0.0,0.0,0.0,0.0,0.0,2.161,2.253,0.0,0.0,0.0,0.0,0.0,0.0,0.0,0.0,0.0,0.0,0.0,0.0,0.0,2.6491,2.7135,2.7248,2.737,2.7466,2.7466,2.7601,2.78,2.7666,2.7708,2.7788,2.7462,0.0,2.6428,2.6428,0.0,0.0,0.0,0.0,0.0,0.0,0.0,0.0,0.0,0.0,0.0,0.0,0.0,0.0,0.0,0.0,0.0,0.0,0.0,0.0,0.0,0.0,2.742,2.7535,2.764,2.764,0.0,2.7313,2.7178,2.6428,2.5851,0.0,0.0,0.0,0.0,0.0,0.0,0.0,2.5327,2.5866,2.6079,2.538,2.5303,2.5303,2.5303,2.536,2.5348,2.5232,2.4463,2.3971,2.3876,2.2359,0.0,0.0,0.0,0.0,0.0,0.0,0.0,0.0,0.0,0.0,0.0,0.0,0.0,0.0,0.0,0.0,0.0,0.0,0.0,0.0,0.0,0.0,0.0,0.0,0.0,0.0,0.0,0.0,0.0,2.1932,2.308,2.3475,2.3938,2.4217,0.0,0.0,0.0,0.0,0.0,0.0,0.0,0.0,0.0,2.6705,2.7059,2.7401,2.7792,2.8241,2.8478,2.8485,2.8932,2.9143,2.9143,2.9143,2.918,2.921,2.921,2.8741,2.7967,2.7525,2.7122,2.6815,0.0,0.0,0.0,0.0,2.7392,2.7507,2.799,2.7894,2.7451,2.7015,0.0,0.0,0.0,0.0,0.0,0.0,0.0,0.0,0.0,0.0,2.8007,2.8478,2.8563,2.8698,2.9198,2.9313,2.8909,0.0,2.7775,2.761,2.5908,0.0,0.0,0.0,0.0,2.6859,2.6047,2.6258,2.6192,2.5399,2.5303,2.5313,2.5351,2.5388,2.5395,2.5404,2.5108,2.4931,2.4919,2.3767,2.2957,0.0,0.0,0.0,0.0,0.0,0.0,0.0,0.0,0.0,0.0,0.0,0.0,0.0,0.0,0.0,0.0,0.0,0.0,0.0,0.0,0.0,0.0,0.0,0.0,0.0,0.0,0.0,0.0,2.3302,2.4361,2.4409,2.5302,2.5849,0.0,0.0,0.0,0.0,0.0,0.0,2.7187,2.8041,2.8587,2.8775,2.8975,2.8969,2.8746,2.9347,2.9532,2.9308,2.992,3.0194,3.0194,3.0194,3.0247,3.0292,3.0292,2.9971,2.9371,2.8544,2.8104,2.7913,2.7913,2.7903,2.7923,2.8155,2.8261,2.8396,2.9062,2.9236,2.908,2.8493,2.828,2.8009,2.6747,0.0,0.0,0.0,0.0,2.827,2.8499,2.8527,2.8681,2.9286,2.9429,2.9602,3.0275,3.0398,2.9975,0.0,2.9206,2.9571,2.8069,0.0,0.0,0.0,0.0,2.7727,2.6929,2.6822,2.6507,2.5726,2.5418,2.5322,2.5398,2.5397,2.5395,2.5401,2.5456,2.5511,2.5511,2.489,2.4445,2.4286,0.0,0.0,0.0,0.0,0.0,0.0,0.0,0.0,0.0,0.0,0.0,0.0,0.0,0.0,0.0,0.0,0.0,0.0,0.0,0.0,0.0,0.0,0.0,0.0,0.0,0.0,0.0,0.0,0.0,2.5245,2.6683,0.0,0.0,0.0,0.0,2.7666,2.7666,2.8042,2.8921,2.9742,3.0554,3.1367,3.2144,3.2154,3.1312,3.136,3.0949,3.0128,3.0166,3.0185,3.0185,3.0185,3.0245,3.0292,3.0292,3.0311,3.0275,2.939,2.8585,2.7913,2.7913,2.7903,2.8,2.884,2.9138,2.9156,2.9265,2.9215,2.9105,2.9138,2.9128,2.9126,2.903,2.8462,0.0,0.0,2.9126,2.9308,3.0083,3.0275,3.0294,3.0321,3.0321,3.034,3.0379,3.0398,3.0129,0.0,2.9098,2.886,2.7961,0.0,2.7857,2.78,2.839,2.8574,2.7826,2.7723,2.7439,2.661,2.5793,2.5322,2.5398,2.5397,2.5395,2.5401,2.5456,2.5511,2.5511,2.5452,2.5046,2.4213,2.4944,0.0,0.0,0.0,0.0,0.0,0.0,0.0,0.0,0.0,0.0,0.0,0.0,0.0,0.0,0.0,0.0,0.0,0.0,0.0,0.0,0.0,0.0,0.0,0.0,0.0,0.0,0.0,0.0,2.6845,2.7405,0.0,2.8088,2.8394,2.9015,3.0088,3.0184,3.0561,3.1437,3.1749,3.2043,3.2354,3.2647,3.2637,3.2282,3.2267,3.2134,3.1809,3.1809,3.1541,3.1045,3.1045,3.1068,3.1098,3.0542,3.0657,3.1179,3.0294,2.9775,2.9517,2.9517,2.9498,2.9547,2.9855,2.9963,2.9974,2.9995,2.9985,2.9943,2.9963,2.9971,2.9979,2.9979,3.0152,3.0298,3.0037,3.0383,3.0748,3.0467,3.0398,3.0398,3.0398,3.0398,3.0398,3.0398,3.0398,3.029,2.9934,2.9882,2.9605,2.8725,2.8574,2.8568,2.8568,2.8804,2.8868,2.8612,2.8598,2.8326,2.7525,2.6659,2.616,2.6226,2.5715,2.5423,2.5456,2.5484,2.5511,2.5511,2.5495,2.5343,2.5046,2.4857,2.3625,0.0,0.0,0.0,0.0,0.0,0.0,0.0,0.0,0.0,0.0,0.0,0.0,0.0,0.0,0.0,0.0,0.0,0.0,0.0,0.0,0.0,0.0,0.0,0.0,0.0,0.0,2.7975,2.8574,2.9072,2.9518,2.9813,3.01,3.0699,3.1809,3.1905,3.2283,3.3159,3.3197,3.3336,3.3627,3.3551,3.3401,3.3146,3.3045,3.2912,3.2691,3.2691,3.2405,3.1904,3.1904,3.1948,3.196,3.1117,3.1271,3.2025,3.0871,3.0571,3.0814,3.0513,3.0398,3.041,3.0402,3.0414,3.0394,3.0394,3.0406,3.0444,3.0737,3.0852,3.0891,3.116,3.166,3.1987,3.141,3.1468,3.1564,3.0987,3.0609,3.0398,3.0398,3.0398,3.0398,3.0398,3.0398,3.0463,3.0682,3.0503,3.0119,2.9538,2.9423,2.9398,2.9436,2.9411,2.9411,2.943,2.9236,2.8895,2.8352,2.7554,2.6949,2.6718,2.6167,2.5741,2.5503,2.5511,2.5511,2.5511,2.5495,2.5498,2.5492,2.4717,2.3602,2.2207,0.0,0.0,0.0,0.0,0.0,0.0,0.0,0.0,0.0,0.0,0.0,0.0,0.0,0.0,0.0,0.0,0.0,0.0,0.0,0.0,0.0,0.0,0.0,2.6619,2.8721,3.0278,3.0362,3.1742,3.2401,3.1647,3.2282,3.2749,3.2768,3.2768,3.3161,3.3991,3.4037,3.4423,3.5273,3.5037,3.4621,3.4044,3.3783,3.3348,3.2768,3.2768,3.2749,3.2691,3.2691,3.2718,3.2708,3.1908,3.2058,3.2737,3.1121,3.0948,3.1621,3.0737,3.0398,3.041,3.0425,3.0452,3.0475,3.0475,3.0479,3.0617,3.146,3.1737,3.1891,3.266,3.291,3.2929,3.291,3.2352,3.1775,3.1737,3.1121,3.0475,3.0475,3.0475,3.0475,3.0475,3.0475,3.0706,3.1488,3.0957,3.0369,3.0369,3.033,3.0291,3.033,3.0279,0.0,3.0292,2.9613,2.9144,2.914,2.8422,2.7624,2.6833,2.6725,2.6376,2.5588,2.5511,2.5511,2.5511,2.549,2.5492,2.5499,2.4709,2.3888,2.3046,0.0,0.0,0.0,0.0,0.0,0.0,0.0,0.0,0.0,0.0,0.0,0.0,0.0,0.0,0.0,0.0,0.0,0.0,0.0,0.0,0.0,2.7847,2.9187,2.9187,3.027,3.1307,3.1957,3.242,3.286,3.3276,3.3509,3.3872,3.4483,3.4522,3.4617,3.4863,3.4866,3.498,3.5226,3.516,3.5045,3.4866,3.4797,3.4683,3.4522,3.4522,3.3891,3.2691,3.2691,3.2378,3.1804,3.1008,3.1143,3.1924,3.1513,3.1487,3.1621,3.0737,3.0398,3.0487,3.1114,3.1698,3.2218,3.2218,3.2199,3.2249,3.2487,3.2564,3.2602,3.2833,3.3333,3.3699,3.3083,3.3199,3.3372,3.2737,3.2391,3.2218,3.2218,3.2218,3.2218,3.2218,3.2218,3.2282,3.2506,3.2313,3.2127,3.2192,3.2119,3.1895,3.1341,3.1232,0.0,3.0381,3.0155,3.0052,3.0044,2.9316,2.8751,2.8531,2.7392,2.6608,2.6373,2.582,2.5511,2.5511,2.5499,2.5503,2.5492,2.4713,2.4185,0.0,0.0,0.0,0.0,0.0,0.0,0.0,0.0,0.0,0.0,0.0,0.0,0.0,0.0,0.0,0.0,0.0,0.0,0.0,0.0,0.0,0.0,2.9849,3.1379,3.1742,3.2187,3.2802,3.3662,3.3757,3.3949,3.4445,3.4503,3.4694,3.5171,3.5209,3.5209,3.5209,3.5209,3.5209,3.5209,3.5107,3.5072,3.5072,3.4621,3.4395,3.4395,3.4071,3.3387,3.2457,3.2542,3.2324,3.1874,3.1172,3.1341,3.2103,3.1436,3.1371,0.0,0.0,0.0,0.0,0.0,3.2506,3.2891,3.2891,3.2891,3.2968,3.3333,3.343,3.3506,3.3891,3.4334,3.4641,3.4141,3.4083,3.4083,3.3583,3.316,3.2891,3.2891,3.2891,3.2891,3.2891,3.2891,3.3006,3.3365,3.3396,0.0,3.3909,3.3336,3.2656,3.2199,3.2141,3.1834,3.1001,3.0917,3.0814,3.0436,2.9971,2.9561,2.9225,2.8319,0.0,0.0,0.0,2.5859,2.5499,2.5499,0.0,0.0,0.0,0.0,0.0,0.0,0.0,0.0,2.4059,2.4183,0.0,0.0,0.0,0.0,0.0,0.0,0.0,0.0,0.0,0.0,0.0,0.0,0.0,0.0,0.0,0.0,3.1804,3.3146,3.4006,3.414,3.4407,3.5114,3.5209,3.5209,3.5209,3.5209,3.5209,3.5209,3.5209,3.5209,3.5209,0.0,0.0,0.0,0.0,3.4718,3.4624,3.3654,3.3158,3.3158,3.2465,3.209,3.2015,3.22,3.2286,3.2203,3.1685,3.1897,3.2513,3.1116,3.1064,3.1891,3.241,3.2737,3.2891,3.2891,3.3026,3.3199,3.3199,0.0,0.0,3.4103,3.4353,3.4487,3.5276,3.5493,3.5493,3.5493,3.4949,3.4353,3.4353,3.3776,3.3199,3.3199,3.3199,3.3199,3.3199,3.3199,3.341,3.4199,3.4288,3.4505,3.5359,3.4155,3.3072,3.3051,3.3058,3.2737,3.1948,3.1756,3.141,3.0641,0.0,0.0,2.9399,2.9323,2.8965,2.8199,2.7329,2.6536,2.5805,2.5786,2.5808,2.5887,2.5887,2.6262,2.7039,2.7039,2.7446,2.8185,2.5838,2.5526,0.0,0.0,0.0,0.0,0.0,0.0,0.0,0.0,0.0,0.0,0.0,0.0,0.0,0.0,0.0,3.1904,3.307,3.4025,3.4846,3.498,3.5037,3.519,3.5209,3.5209,3.5209,3.5209,3.5209,3.5209,3.5209,3.5209,3.5209,3.5209,3.4904,3.4254,3.403,3.3599,3.2898,3.2524,3.2332,3.2314,0.0,0.0,3.1385,3.1572,3.1287,3.0634,3.0579,3.0657,3.0842,3.127,3.1929,3.2545,3.1352,3.1718,3.2891,3.2891,3.3795,3.5007,3.5007,3.5007,3.5026,3.5199,3.5257,3.5276,3.5449,3.5493,0.0,3.5493,3.5391,3.5257,3.5257,3.5122,3.5007,3.5007,3.5007,3.5007,3.5007,3.5007,3.5064,3.5218,3.5177,3.522,3.5455,3.5158,3.4683,3.4045,3.3949,3.3641,3.2776,3.2102,3.1641,3.1468,3.0818,3.0351,3.0267,2.967,2.9236,2.905,2.8219,2.7686,2.7511,2.7511,2.7555,2.7612,2.7612,2.7704,2.7867,2.7867,2.832,2.9117,2.7913,2.7531,0.0,0.0,0.0,0.0,0.0,0.0,0.0,0.0,0.0,0.0,0.0,2.8303,3.0005,0.0,3.191,3.3146,3.4044,3.4598,3.4598,3.4598,3.4598,3.4598,3.4598,3.4426,3.3987,3.3949,3.3949,3.3949,3.3949,3.3917,3.3796,3.4179,3.4182,3.3675,3.3656,3.3601,3.3449,3.2241,3.1808,3.2087,3.1337,3.0788,3.041,3.0598,3.0464,3.0075,3.024,3.0305,3.0337,3.0847,3.1295,3.1583,3.0737,3.1429,3.2891,3.2891,3.3737,3.4853,3.4853,3.5141,3.5493,3.5493,3.5493,3.5493,3.5493,3.5493,3.5493,3.5493,3.5493,3.5493,3.5493,3.5493,3.5493,3.5493,3.5493,3.5493,3.5493,3.5493,3.5493,3.5493,3.546,3.546,3.5493,3.546,3.5306,3.4911,3.4853,3.4545,3.366,3.3199,3.2622,3.1795,3.1306,3.0898,3.0537,3.0153,2.9757,2.9321,2.8896,2.8451,2.8014,2.7995,2.8031,2.8097,2.8097,2.8306,2.8748,2.8748,2.9207,3.0055,3.0013,2.9765,0.0,0.0,0.0,0.0,0.0,0.0,0.0,0.0,2.6995,2.8552,2.9375,3.0279,3.1793,3.2594,3.3291,3.4098,3.4655,3.4732,3.4082,3.3853,3.3681,3.3528,3.3643,3.3471,3.2768,3.2691,3.2768,3.2955,3.2889,3.2842,3.2703,3.3429,3.3658,3.3203,3.3469,3.3753,3.4038,3.2223,3.145,3.1719,3.0412,2.9701,2.9551,2.9751,2.9869,2.988,3.0133,3.0273,3.0316,3.0379,3.0398,3.0398,3.0398,3.1237,3.2429,3.2602,3.3314,3.4199,3.4199,3.4776,3.5493,3.5493,3.5493,3.5493,3.5493,3.5493,3.5493,3.5493,3.5493,3.5493,3.5493,3.5493,3.5493,3.5493,3.5493,3.5493,3.5493,3.5493,3.5493,3.5493,3.5493,3.5493,3.5493,3.5493,3.5493,3.5493,3.5493,3.5257,3.4545,3.4295,3.368,3.2333,3.2025,3.1607,3.0807,3.0646,3.0308,2.9592,2.9553,2.9244,2.8528,2.8664,2.8767,2.8834,2.8834,2.9179,2.9887,2.9894,3.0268,3.0944,3.1762,3.1695,2.6547,2.7363,2.8135,2.8645,2.8739,2.9256,0.0,0.0,3.1244,3.2161,3.2352,3.2656,3.357,3.3808,3.4136,3.4923,3.4541,3.4101,3.4006,3.3337,3.2592,3.1866,3.242,3.2806,3.2711,3.2691,3.3032,3.3796,3.3629,3.3576,3.3802,3.4412,3.4129,3.2816,3.3367,3.3261,3.2367,3.196,3.1277,3.0415,3.0394,3.002,2.9334,2.9608,2.9716,2.9734,3.0,3.0221,3.0398,3.0398,3.0398,3.0398,3.0398,3.0513,3.0775,3.1545,3.2833,3.4199,3.4199,3.4776,3.5493,3.5493,3.5493,3.5493,3.5493,3.5493,3.5493,3.5493,3.5493,3.5493,3.5493,3.5493,3.5493,3.5493,3.5493,3.5493,3.5493,3.5493,3.5493,3.5493,3.5493,3.5493,3.5493,3.5493,3.5493,3.5493,3.5493,3.5468,3.5372,3.468,3.4122,3.393,3.3237,3.2435,3.1626,3.0965,3.0559,3.0462,3.0443,3.0404,3.0308,3.1004,3.141,3.1463,3.1463,3.1518,3.162,3.1674,3.1736,3.1801,3.2645,3.2598,2.7865,2.8454,2.8886,0.0,3.0267,3.0891,3.1968,3.1948,3.2051,3.3352,3.358,3.3806,3.4604,3.4343,3.4101,0.0,3.3796,3.307,3.2554,3.221,3.1694,3.0835,3.1484,3.1764,3.1137,3.1177,3.1569,3.2314,3.2333,3.2542,3.3037,3.3749,3.3753,3.2899,3.3259,3.3423,3.3336,3.2387,3.1933,3.1998,3.1579,3.0949,3.0166,3.0302,3.0114,2.9753,3.0397,3.0799,3.1027,3.1492,3.1757,3.1852,3.1852,3.1852,3.1833,3.1737,3.2449,3.3526,3.4007,3.4776,3.5493,3.5493,3.5493,3.5493,3.5493,3.5493,3.5493,3.5493,3.5493,3.5493,3.5493,3.5493,3.5493,3.5493,3.5493,3.5493,3.5493,3.5493,3.5493,3.5493,3.5493,3.5493,3.5493,3.5493,3.5493,3.5493,3.5493,3.5493,3.5493,3.518,3.4757,3.4237,3.3455,3.2825,3.2494,3.221,3.2048,3.2038,3.2048,3.2048,3.2048,3.2367,3.2561,3.2599,3.2637,3.2665,3.2663,3.2679,3.2671,3.2618,3.349,3.3694,2.8522,0.0,0.0,3.0825,3.1737,3.2449,3.2699,3.2564,3.2782,3.4164,3.4045,3.3997,3.4779,3.4232,3.3643,3.3643,3.2936,3.2153,3.1522,3.1255,3.0911,3.028,3.0758,3.091,3.0319,3.0651,3.1192,3.192,3.1987,3.2254,3.2813,3.3487,3.3654,3.3175,3.3468,3.3795,3.4197,3.3146,3.278,3.3112,3.2471,3.1744,3.0963,3.1046,3.0866,3.0467,3.1193,3.1622,3.1862,3.2441,3.2779,3.2891,3.2891,3.2865,3.2768,3.2423,3.2699,3.3353,3.3968,3.4776,3.5493,3.5493,3.5493,3.5493,3.5493,3.5493,3.5493,3.5493,3.5493,3.5493,3.5493,3.5493,3.5493,3.5493,3.5493,3.5493,3.5493,3.5493,3.5493,3.5493,3.5493,3.5493,3.5493,3.5493,3.5493,3.5493,3.5493,3.5493,3.5493,3.5493,3.5257,3.4622,3.3821,3.3338,3.3354,3.3203,3.3089,3.3102,3.3102,3.3102,3.3102,3.3344,3.3451,3.3461,3.3509,3.3519,3.3528,3.3546,3.3518,3.349,3.4342,3.4758,0.0,0.0,3.0844,3.2422,3.3468,3.4353,3.5199,3.4737,3.4339,3.5119,3.3973,3.3082,3.3888,3.3337,3.273,3.273,3.2057,3.1522,3.1503,3.0777,3.0223,3.0204,3.0223,3.0471,0.0,3.206,3.2993,3.3853,3.3669,3.3671,3.3933,3.4282,3.4199,3.3601,3.4162,3.4379,3.4197,3.416,3.3611,3.264,3.2577,3.2162,3.1397,3.1723,3.1987,3.224,3.245,3.2656,3.2872,3.2891,3.2891,3.2891,3.2891,3.2779,3.2707,3.3528,3.3959,3.416,3.418,3.4776,3.5493,3.5493,3.5493,3.5493,3.5493,3.5493,3.5493,3.5493,3.5493,3.5493,3.5493,3.5493,3.5493,3.5493,3.5493,3.5493,3.5493,3.5493,3.5493,3.5493,3.5493,3.5493,3.5493,3.5493,3.5493,3.5493,3.5493,3.5493,3.5493,3.5493,3.5474,3.5468,3.4687,3.4192,3.4268,3.355,3.3089,3.3102,3.3102,3.3102,3.3102,3.3905,3.4371,3.4352,3.4371,3.4371,3.4352,3.4429,3.4439,3.438,3.5252,3.5658,2.9332,0.0,3.2424,3.3499,3.4424,3.5141,3.543,3.4834,3.4263,3.4448,3.3609,3.2872,3.3104,3.2458,3.1904,3.1904,3.1197,3.0643,3.0643,3.0873,3.0854,3.0261,3.1531,0.0,0.0,0.0,0.0,3.345,3.3582,3.3809,3.4319,3.4442,3.4352,3.4023,3.4195,3.4179,3.3947,3.3921,3.3766,3.3385,3.2871,3.2493,3.2249,3.1861,3.1764,3.1936,3.2566,3.3072,3.341,3.4001,3.4378,3.4641,3.4641,3.4581,3.4558,3.4846,3.5004,3.5018,3.477,3.4859,3.5107,3.5107,3.5193,3.5308,3.5308,3.5383,3.5493,3.5493,3.5493,3.5493,3.5493,3.5493,3.5493,3.5493,3.5493,3.5493,3.5493,3.5493,3.5493,3.5493,3.5493,3.5493,3.5493,3.5493,3.5493,3.5493,3.5493,3.5493,3.5493,3.5493,3.5493,3.5493,3.5238,3.5085,3.5167,3.4909,3.4778,3.4814,3.4833,3.4833,3.4833,3.5104,3.527,3.5261,3.5252,3.5252,3.5261,3.5281,3.5271,3.5259,3.556,3.5695,3.0965,3.2207,3.3188,3.4012,3.486,3.543,3.5122,3.4603,3.4263,3.4486,3.3609,3.2776,3.2707,3.2286,3.1828,3.156,3.1274,3.1083,3.1083,3.158,3.1684,3.1051,3.2269,3.3052,0.0,0.0,0.0,3.3646,3.3843,3.4089,3.447,3.442,3.4325,3.4197,3.4099,3.3972,3.3788,3.3807,3.3807,3.3788,3.3293,3.3062,3.3121,3.2754,3.2609,3.2743,3.3377,3.3801,3.4111,3.4661,3.5054,3.5289,3.5354,3.5354,3.5289,3.5369,3.5354,3.5258,3.5072,3.5019,3.5001,3.4908,3.5001,3.5089,3.5089,3.5242,3.5383,3.5383,3.5383,3.5383,3.5383,3.5339,3.5289,3.5388,3.5383,3.5417,3.5493,3.5493,3.5493,3.5493,3.5432,3.5383,3.5383,3.5383,3.5383,3.5383,3.5446,3.5493,3.5493,3.5493,3.5493,3.5493,3.5493,3.5534,3.5591,3.5591,3.5628,3.5704,3.5704,3.5704,3.5704,3.5704,3.5704,3.5704,3.5706,3.5706,3.5704,3.5706,3.5706,3.5704,3.5704,3.5704,3.2607,3.3056,3.3234,3.4012,3.4822,3.5238,3.443,3.4218,3.4397,3.5043,3.3878,3.2699,0.0,0.0,3.2401,3.1618,3.2191,3.2691,3.2691,3.273,3.2667,0.0,0.0,0.0,0.0,0.0,0.0,3.4408,0.0,3.4486,3.4445,3.4279,3.4173,3.4173,3.3921,3.3807,3.3807,3.3807,3.3807,3.3807,3.3807,3.386,3.3895,3.4173,3.434,3.4495,3.4672,3.4812,3.487,3.487,3.4908,3.4927,3.5107,3.5072,3.4908,3.5107,3.5072,3.4927,3.5124,3.5174,3.5141,3.4964,3.4889,3.4908,3.4889,3.5037,3.5174,3.5174,3.5174,3.5174,3.5174,3.5054,3.4964,3.5141,3.5174,3.5242,3.5432,3.5479,3.5493,3.5493,3.5339,3.5209,3.5209,3.5209,3.5226,3.5226,3.5388,3.5493,3.5493,3.5493,3.5493,3.5493,3.5493,3.5534,3.5591,3.5591,3.5628,3.5684,3.5704,3.5704,3.5704,3.5704,3.5704,3.5704,3.5704,3.5704,3.5704,3.5704,3.5704,3.5704,3.5704,3.5704,3.2008,3.2998,3.3935,3.4154,3.436,3.4641,3.5064,3.4661,3.407,3.3607,3.2653,3.1699,0.0,0.0,0.0,3.1522,3.2191,0.0,3.2691,3.3075,0.0,3.2483,0.0,3.3538,3.3041,3.3414,0.0,0.0,3.416,3.4203,3.4005,3.3947,3.3895,3.3895,3.386,3.3807,3.3807,3.3807,3.3807,3.3807,3.3807,3.386,3.3895,3.4023,3.4124,3.4221,3.4298,3.4476,3.4668,3.4668,3.4771,3.4908,3.4964,3.4945,3.4908,3.4964,3.4926,3.4908,3.4964,3.4982,3.4926,3.4751,3.4791,3.487,3.473,3.4831,3.4982,3.4982,3.4982,3.4982,3.4982,3.4945,3.4908,3.4945,3.4982,3.5001,3.5037,3.5157,3.5293,3.5293,3.5354,3.5388,3.5226,3.5324,3.5417,3.5417,3.5479,3.5493,3.5493,3.5493,3.5493,3.5493,3.5493,3.5501,3.5515,3.556,3.5616,3.5612,3.5673,3.5704,3.5704,3.5704,3.5704,3.5704,3.5704,3.5704,3.5704,3.5704,3.5704,3.5704,3.5704,3.5704,3.2905,3.3527,3.4019,3.3287,3.3647,3.4141,3.3891,3.4026,3.3949,3.3083,3.248,0.0,3.0929,3.1776,3.2469,0.0,0.0,0.0,3.3682,3.3958,3.3923,0.0,3.3803,0.0,3.3358,3.3592,3.3954,0.0,3.4149,3.3947,3.3807,3.3807,3.3807,3.3807,3.3807,3.3807,3.3807,3.3807,3.3807,3.3807,3.3815,3.3868,3.3947,3.4023,3.4074,3.4148,3.4173,3.4293,3.4409,3.4409,3.4498,3.4588,3.4711,3.4771,3.4791,3.487,3.4908,3.4908,3.4908,3.4908,3.487,3.4771,3.4751,3.4751,3.4626,3.4668,3.4771,3.4771,3.4771,3.4771,3.4771,3.4691,3.4609,3.4732,3.4771,3.4791,3.4889,3.5001,3.5037,3.4945,3.5037,3.5018,3.4812,3.4963,3.5124,3.5226,3.5324,3.5403,3.5493,3.5493,3.5493,3.5493,3.5493,3.5501,3.5502,3.556,3.5596,3.5601,3.5654,3.5704,3.5704,3.5704,3.5704,3.5704,3.5704,3.5704,3.5704,3.5704,3.5704,3.5704,3.5704,3.5704,3.4125,3.4005,3.3518,3.2073,3.2877,3.3641,3.2199,3.3064,3.393,3.2948,0.0,3.2382,3.1498,3.2622,3.3467,3.2821,0.0,3.4973,3.4945,3.4889,3.4693,3.4298,3.4221,3.4099,3.3834,3.3807,3.4137,3.4935,3.4357,3.4009,3.4137,3.4027,3.3972,3.3972,3.3972,3.3972,3.3972,3.3844,3.3807,3.3807,3.3868,3.3921,3.3998,3.4074,3.4124,3.4197,3.4197,3.4197,3.4197,3.4197,3.4197,3.4221,3.4473,3.4539,3.4561,3.4732,3.4812,3.4812,3.485,3.487,3.487,3.487,3.4751,3.4583,3.4561,3.4539,3.4539,3.4539,3.4539,3.4539,3.4539,3.4363,3.4269,3.4495,3.4539,3.4604,3.4772,3.485,3.4811,3.4626,3.4604,3.4561,3.4293,3.4476,3.473,3.4889,3.5089,3.5289,3.5432,3.5493,3.5493,3.5493,3.5493,3.5501,3.5502,3.5547,3.5584,3.5601,3.5643,3.5684,3.5704,3.5704,3.5704,3.5704,3.5704,3.5704,3.5704,3.5704,3.5704,3.5704,3.5704,3.5704,3.3222,3.2697,3.2057,3.1768,3.241,3.3045,3.2756,3.3468,0.0,0.0,3.1853,3.154,3.0676,3.1287,3.2101,3.263,3.3361,3.4165,3.5028,3.4813,3.4529,0.0,3.4298,3.4099,3.3834,3.3807,0.0,0.0,3.4862,3.5128,3.5826,3.5183,3.477,3.477,3.477,3.477,3.477,3.4137,3.3807,3.3807,3.3868,3.3895,3.3921,3.4049,3.4099,3.4124,3.4173,0.0,3.4197,3.4197,3.4197,3.4197,3.4245,3.4269,3.4269,3.4316,3.4321,3.4344,3.4583,3.4647,3.4647,3.4647,3.4626,3.4561,3.434,3.4269,3.4269,3.4269,3.4269,3.4269,3.4269,3.4221,3.4221,3.4245,3.4269,3.4269,3.4298,3.4498,3.4626,3.4623,3.473,3.4791,3.4561,3.4831,3.5054,3.4927,3.5209,3.5403,3.5258,3.5403,3.5493,3.5493,3.5493,3.5507,3.5488,3.5509,3.5528,3.5604,3.562,3.5643,3.5704,3.5704,3.5704,3.5704,3.5704,3.5704,3.5704,3.5704,3.5704,3.5704,3.5704,3.5704,3.3185,3.2634,3.2218,3.1795,3.2295,3.2795,3.2372,0.0,0.0,0.0,3.0963,3.0803,3.0369,3.0956,0.0,3.1962,3.2564,3.3295,3.4238,3.3992,3.3881,3.4292,3.4519,3.44,0.0,3.4578,3.5257,3.5661,3.6064,3.6303,3.6303,3.5899,3.5679,3.5679,3.5679,3.5477,3.499,3.5073,3.4651,3.3807,3.4751,3.5008,3.4637,3.4733,3.4809,3.4797,3.4383,3.4197,3.4197,3.4197,3.4197,3.4197,3.4197,3.4197,3.4197,3.4197,3.4197,3.4221,3.434,3.4386,3.4386,3.4386,3.4495,3.458,3.445,3.4316,3.4197,3.4197,3.4197,3.4197,3.4197,3.4197,3.4197,3.4197,3.4197,3.4197,3.4197,3.4293,3.4386,3.4386,3.4476,3.452,3.4409,3.4545,3.4693,3.4751,3.4908,3.5072,3.5193,3.5273,3.5369,3.5493,3.5493,3.5493,3.5493,3.5509,3.5528,3.5591,3.5608,3.5631,3.5704,3.5704,3.5704,3.5704,3.5704,3.5704,3.5704,3.5704,3.5704,3.5704,3.5704,3.5673,3.3545,3.3045,3.2756,3.2122,3.2564,3.291,3.1929,3.2314,0.0,0.0,3.0355,3.0311,3.0292,3.0789,3.1259,0.0,3.1955,3.2765,3.3806,3.374,3.3883,0.0,3.514,0.0,3.4394,3.5532,0.0,3.6541,3.7294,3.7404,3.6597,3.6707,3.6743,3.656,3.656,3.6229,3.555,3.6046,3.5642,3.4366,3.5745,3.6122,3.5584,3.5655,3.5614,3.5442,3.4773,3.4364,3.4197,3.4197,3.4197,3.4197,3.4197,3.4197,3.4197,3.4197,3.4197,3.4197,3.4197,3.4197,3.4197,3.4197,3.434,3.4517,3.4517,3.4381,3.4197,3.4197,3.4197,3.4197,3.4197,3.4197,3.4197,3.4197,3.4197,3.4197,3.4197,3.4197,3.4197,3.4197,3.4197,3.4197,3.4197,3.4245,3.434,3.4495,3.4604,3.4791,3.5089,3.5157,3.5273,3.5479,3.5493,3.5493,3.5493,3.5495,3.5515,3.5579,3.5596,3.5631,3.5673,3.5684,3.5704,3.5704,3.5704,3.5704,3.5704,3.5704,3.5704,3.5704,3.5684,3.5643,3.4122,3.3506,3.2872,3.2814,3.343,3.366,3.2064,0.0,0.0,3.0756,3.0362,3.0292,3.0292,3.0316,3.0548,3.1293,0.0,3.3028,3.4797,3.5264,3.5758,3.6644,0.0,0.0,3.6093,3.6211,3.6597,3.7342,3.8138,3.823,3.7422,3.8083,3.8138,3.7404,3.7397,3.7331,3.7257,3.6615,3.624,3.6177,3.6381,3.6481,3.647,3.6549,3.6185,3.5497,3.5404,3.4922,0.0,3.4197,3.4197,3.4197,3.4197,3.4197,3.4197,3.4197,3.4197,3.4197,3.4197,3.4197,3.4197,3.4197,3.4221,3.4245,3.4245,3.4221,3.4197,3.4197,3.4197,3.4197,3.4197,3.4197,3.4197,3.4197,3.4197,3.4197,3.4197,3.4197,3.4197,3.4197,3.4197,3.4197,3.4197,3.4386,3.4495,3.4269,3.4588,3.4889,3.4908,3.5089,3.5273,3.5479,3.5493,3.5493,3.5493,3.5507,3.5501,3.5515,3.556,3.5596,3.5612,3.5673,3.5704,3.5704,3.5704,3.5704,3.5704,3.5704,3.5704,3.5704,3.5643,3.5612,3.4199,3.3949,3.368,3.368,3.393,3.3891,3.2699,0.0,3.241,3.0694,3.0323,3.0286,3.0247,3.0207,3.048,3.1312,3.1575,3.2324,3.4219,3.4794,3.5337,3.6122,3.6914,0.0,0.0,0.0,3.7881,3.8193,3.8524,3.856,3.823,3.8524,3.856,3.823,3.8212,3.7973,3.7507,3.7702,3.7327,3.6417,3.746,3.772,3.733,3.7349,3.6931,3.6185,3.5702,3.4996,0.0,3.4197,3.4197,3.4197,3.4197,3.4197,3.4197,3.4197,3.4197,3.4197,3.4197,3.4197,3.4197,3.4197,3.4197,3.4197,3.4197,3.4197,3.4197,3.4197,3.4197,3.4197,3.4197,3.4197,3.4197,3.4197,3.4197,3.4197,3.4197,3.4197,3.4197,3.4197,3.4197,3.4197,3.4197,3.4293,3.4316,3.4221,3.4498,3.4771,3.487,3.5072,3.5273,3.5479,3.5493,3.5493,3.5493,3.5493,3.5501,3.5502,3.5528,3.556,3.5596,3.562,3.5643,3.5643,3.5673,3.5704,3.5704,3.5673,3.5643,3.5643,3.5608,3.5584,3.4199,3.4391,3.4584,3.4584,3.4584,3.4295,0.0,3.2897,3.2404,3.0662,3.0292,3.0254,3.0202,3.0207,3.0404,0.0,3.1413,3.2276,3.4105,3.4965,3.5762,3.6704,0.0,3.7933,0.0,3.8028,3.8707,3.8707,3.8707,3.8707,3.8707,3.8707,3.8707,3.8707,3.8707,3.8432,3.7845,3.8456,3.8221,3.7145,3.8346,3.8654,3.8192,3.8183,3.7635,3.6668,3.6092,3.5219,0.0,3.4197,3.4197,3.4197,3.4197,3.4197,3.4197,3.4197,3.4197,3.4197,3.4197,3.4197,3.4197,3.4197,3.4197,3.4197,3.4197,3.4197,3.4197,3.4197,3.4197,3.4197,3.4197,3.4197,3.4197,3.4197,3.4197,3.4197,3.4197,3.4197,3.4197,3.4197,3.4197,3.4197,3.4197,3.4197,3.4197,3.4197,3.4363,3.4561,3.4772,3.5001,3.5193,3.5403,3.546,3.5493,3.5493,3.5493,3.5501,3.5509,3.5502,3.5515,3.556,3.5596,3.5589,3.5589,3.5651,3.5662,3.5662,3.562,3.5589,3.5608,3.5584,3.5547,3.4199,3.4834,3.5488,3.5488,3.5488,3.5045,0.0,3.2904,3.2417,3.065,3.0241,3.0188,3.0188,3.0213,3.0204,3.0204,3.1599,3.3264,3.4961,3.6388,3.7816,0.0,0.0,3.8989,3.8701,3.8689,3.8707,3.8707,3.8707,0.0,3.8707,3.8707,3.8707,3.8707,3.8707,3.8707,3.8689,3.8707,3.878,3.8873,3.8892,3.8979,3.9082,3.9082,3.8209,3.6686,3.6686,3.5739,0.0,3.4197,3.4197,3.4197,3.4197,3.4197,3.4197,3.4197,3.4197,3.4197,3.4197,3.4197,3.4197,3.4197,3.4197,3.4197,3.4197,3.4197,3.4197,3.4197,3.4197,3.4197,3.4197,3.4197,3.4197,3.4197,3.4197,3.4197,3.4197,3.4197,3.4197,3.4197,3.4197,3.4197,3.4197,3.4197,3.4197,3.4197,3.4197,3.4293,3.4561,3.4791,3.4982,3.5174,3.5369,3.5493,3.5493,3.5493,3.5507,3.5507,3.5509,3.5515,3.5515,3.556,3.5604,3.5604,3.5604,3.5604,3.5604,3.5604,3.5604,3.5591,3.5528,3.5509,3.3006,3.3506,3.3718,3.3718,3.3718,3.343,3.2333,3.2071,3.1751,3.0548,3.0292,3.0253,3.0213,3.0199,3.0949,3.3242,3.4063,0.0,3.7483,0.0,0.0,3.8719,3.8748,3.8792,0.0,0.0,3.8707,3.8707,3.8707,3.8707,3.8707,3.8707,3.8707,3.8707,3.8707,3.8707,3.8707,3.875,3.8792,3.8851,3.8881,3.895,3.9036,3.9036,3.8173,3.6686,3.6686,3.5739,3.4197,3.4197,3.4197,3.4197,3.4197,3.4197,3.4197,3.4197,3.4197,3.4197,3.4197,3.4197,3.4197,3.4197,3.4197,3.4197,3.4197,3.4197,3.4197,3.4197,3.4197,3.4197,3.4197,3.4197,3.4197,3.4197,3.4197,3.4197,3.4197,3.4197,3.4197,3.4197,3.4197,3.4197,3.4197,3.4197,3.4197,3.4197,3.434,3.4542,3.4791,3.4982,3.5174,3.5369,3.546,3.5493,3.5493,3.5493,3.5493,3.5493,3.5488,3.5501,3.5501,3.5522,3.5528,3.5528,3.5591,3.5591,3.5591,3.556,3.5534,3.5534,3.5501,3.5501,0.0,3.2429,3.2891,3.2891,3.2891,3.2699,3.1891,3.1674,3.1399,3.0497,3.0266,3.0259,3.0218,3.0204,3.0987,3.3414,3.4331,3.5596,0.0,0.0,0.0,3.9114,0.0,0.0,0.0,3.8707,3.8707,3.8707,3.8707,3.8707,3.8707,3.8707,3.8707,3.8707,3.8707,3.8707,3.8707,3.875,3.8762,3.8792,3.8881,3.8939,3.8979,3.9036,3.834,3.7151,3.7151,3.6222,0.0,3.468,3.4494,3.4197,3.4197,3.4197,3.4197,3.4197,3.4197,3.4197,3.4197,3.4197,3.4197,3.4197,3.4197,3.4197,3.4197,3.4197,3.4197,3.4197,3.4197,3.4197,3.4197,3.4197,3.4197,3.4197,3.4197,3.4197,3.4197,3.4197,3.4197,3.4197,3.4197,3.4197,3.4197,3.4197,3.4197,3.4197,3.434,3.452,3.4771,3.4945,3.5157,3.5354,3.5446,3.5493,3.5493,3.5493,3.5493,3.5493,3.5493,3.5493,3.5493,3.5501,3.5509,3.5509,3.5541,3.5554,3.5554,3.5509,3.5515,3.5493,3.5493,3.5493,0.0,3.1314,3.2564,3.2622,3.2622,3.2449,3.1756,3.1552,0.0,3.0465,3.024,3.0242,3.0357,3.0319,3.0643,3.1752,3.3242,3.5011,0.0,3.8783,0.0,0.0,3.9331,0.0,3.8707,3.8707,3.8707,3.8707,3.8707,3.8707,3.8707,3.8707,3.8707,3.8707,3.8707,3.8707,3.8707,3.8707,3.8719,3.8792,3.8862,3.8921,3.9007,3.9045,3.8655,0.0,3.7894,3.7021,3.5572,3.5516,3.5014,3.429,3.4216,3.4197,3.4197,3.4197,3.4197,3.4197,3.4197,3.4197,3.4197,3.4197,3.4197,3.4197,3.4197,3.4197,3.4197,3.4197,3.4197,3.4197,3.4197,3.4197,3.4197,3.4197,3.4197,3.4197,3.4197,3.4197,3.4197,3.4197,3.4197,3.4197,3.4197,3.4197,3.4197,3.4197,3.4221,3.4316,3.4583,3.4811,3.5001,3.5209,3.5403,3.5493,3.5493,3.5493,3.5493,3.5493,3.5493,3.5493,3.5493,3.5493,3.5493,3.5493,3.5493,3.5493,3.5493,3.5493,3.5493,3.5493,3.5493,3.5493,2.7332,0.0,2.9217,2.9833,2.9987,3.0102,0.0,3.0611,3.0529,3.0272,0.0,3.0595,3.1885,3.1618,3.2306,3.5687,3.6566,3.7412,3.906,0.0,0.0,3.9927,3.9246,3.8707,3.8707,3.8707,3.8707,3.8707,3.8707,3.8707,3.8707,3.8707,3.8707,3.8707,3.8707,3.8707,3.8707,3.8707,3.8719,3.8792,3.8822,3.8881,3.8979,3.9007,3.8619,3.7894,3.7894,3.7336,3.637,3.5739,3.5367,3.5126,3.4457,3.4197,3.4197,3.4197,3.4197,3.4197,3.4197,3.4197,3.4197,3.4197,3.4197,3.4197,3.4197,3.4197,3.4197,3.4197,3.4197,3.4197,3.4197,3.4197,3.4197,3.4197,3.4197,3.4197,3.4197,3.4197,3.4197,3.4197,3.4197,3.4197,3.4197,3.4197,3.4197,3.4197,3.4363,3.4564,3.4792,3.5019,3.5209,3.5417,3.5479,3.5493,3.5493,3.5493,3.5493,3.5493,3.5493,3.5493,3.5493,3.5493,3.5493,3.5493,3.5493,3.5493,3.5493,3.5493,3.5493,3.5493,3.5493,3.5493,2.6005,2.7198,2.864,2.9486,2.9698,2.9898,3.0701,0.0,0.0,0.0,0.0,3.06,3.1904,3.2,3.2901,3.6033,3.6996,0.0,0.0,0.0,3.9976,3.9913,3.9184,3.8707,0.0,3.8707,3.8707,3.8707,3.8707,3.8707,3.8707,3.8707,3.8707,3.8707,3.8707,3.8707,3.8707,3.8707,3.8738,3.8732,3.8822,3.8862,3.8968,3.9007,3.8823,3.8451,3.8451,3.7986,3.7188,3.637,3.5813,3.5404,3.4531,3.4197,3.4197,3.4197,3.4197,3.4197,3.4197,3.4197,3.4197,3.4197,3.4197,3.4197,3.4197,3.4197,3.4221,3.434,3.4386,3.4386,3.4386,3.4386,3.434,3.4221,3.4197,3.4197,3.4197,3.4197,3.4309,3.4717,3.4457,3.4327,3.4717,3.4457,3.4197,3.4197,3.4316,3.4498,3.473,3.4945,3.5107,3.5209,3.5403,3.546,3.5369,3.5446,3.5493,3.5493,3.5493,3.5493,3.5493,3.5493,3.5493,3.5493,3.5493,3.5493,3.5493,3.5493,3.5493,3.5493,3.5493,3.5493,2.56,2.736,2.9225,2.986,3.011,3.0405,3.1207,0.0,0.0,0.0,0.0,0.0,0.0,3.2528,0.0,0.0,0.0,0.0,4.0039,4.064,4.0616,3.9808,3.9129,0.0,3.8707,3.8707,3.8707,3.8707,3.8707,3.8707,3.8707,3.8707,3.8707,3.8707,3.8707,3.8707,3.8707,3.8707,3.8707,3.8738,3.8822,3.891,3.8939,3.9017,3.9101,3.9101,3.9101,0.0,3.8024,3.7206,3.6482,3.5776,3.4922,3.4513,3.4401,3.4401,3.4309,3.4197,3.4197,3.4197,3.4197,3.4197,3.4197,3.4197,3.4197,3.4197,3.4245,3.4517,3.4561,3.4539,3.4539,3.4539,3.451,3.4413,3.4401,3.442,3.455,3.4569,3.4791,3.5535,3.5089,3.481,3.5553,3.507,3.4569,3.4569,3.4617,3.4713,3.4936,3.5075,3.5135,3.5135,3.535,3.5432,3.5258,3.5403,3.5551,3.568,3.5584,3.5493,3.5493,3.5493,3.5493,3.5493,3.5493,3.5493,3.5493,3.5493,3.5493,3.5493,3.5493,3.5584,2.7025,2.8195,2.8886,2.8334,2.8706,2.943,3.0234,0.0,0.0,0.0,0.0,0.0,0.0,3.5151,3.6501,0.0,0.0,3.9844,0.0,0.0,3.979,3.8982,0.0,3.8707,3.8707,3.8707,3.8707,3.8707,3.8707,3.8707,3.8707,3.8707,3.8707,3.8707,3.8707,3.8707,3.8707,3.8707,3.8719,3.8792,3.8822,3.8862,3.8997,3.9007,3.9064,3.9101,0.0,3.9027,3.8841,3.8042,3.7634,3.7448,3.663,3.5887,3.5293,3.5293,3.4829,3.4197,3.4197,3.4197,3.4197,3.4197,3.4197,3.4197,3.4197,3.4197,3.4245,3.4517,3.445,3.4269,3.4269,3.4269,3.4431,3.5132,3.5293,3.5479,3.6166,3.6315,3.6352,3.6482,3.6408,3.6352,3.6482,3.6389,3.6315,3.6315,3.6453,3.6578,3.6625,3.6367,3.6172,3.6172,3.5776,3.5493,3.5465,3.5493,3.5795,3.6469,3.5892,3.5493,3.5493,3.5493,3.5493,3.5493,3.5493,3.5493,3.5493,3.5493,3.5493,3.5493,3.5493,3.5872,2.617,2.7316,2.8319,2.842,2.9762,3.1161,3.1517,0.0,0.0,0.0,0.0,0.0,0.0,0.0,3.806,3.9993,0.0,4.1223,4.0221,4.0344,4.0084,0.0,0.0,3.8707,3.8707,3.8707,3.8707,3.8707,3.8707,3.8707,3.8707,3.8707,3.8707,3.8707,3.8707,3.8707,3.8707,3.8707,3.8738,3.875,3.8792,3.8851,3.8892,3.8921,3.8979,3.9064,0.0,3.9073,3.9045,3.8228,3.7894,3.7782,3.6538,3.5813,3.5423,3.4959,3.4531,3.4197,3.4197,3.4197,3.4197,3.4197,3.4197,3.4197,3.4197,3.4197,3.4314,3.4918,3.5077,3.5063,3.5063,3.5376,3.5781,3.6087,3.6147,3.624,3.6612,3.6686,3.6816,3.7262,3.7002,3.6835,3.7262,3.6983,3.6738,3.6857,3.6851,3.6948,3.7184,3.6948,3.6613,3.6254,3.6088,3.5802,3.5377,3.5835,3.6122,3.6065,3.6122,3.5949,3.5526,3.5493,3.5699,3.6142,3.5718,3.5718,3.6161,3.5718,3.5493,3.5493,3.5493,3.593,2.5688,2.6852,2.8186,2.9059,0.0,3.2354,3.2938,0.0,0.0,0.0,0.0,0.0,0.0,3.776,0.0,4.1286,4.2137,4.2044,4.0409,4.0561,4.0304,3.8872,3.8707,3.8707,3.8707,3.8707,3.8707,3.8707,3.8707,3.8707,3.8707,3.8707,3.8707,3.8707,3.8707,3.8707,3.8707,3.8707,3.8707,3.8707,3.878,3.8792,3.8822,3.8881,3.8939,3.8997,3.8997,3.9007,3.9036,3.8405,3.8164,3.8042,3.6612,3.5813,3.5386,3.4513,3.4197,3.4197,3.4197,3.4197,3.4197,3.4197,3.4197,3.4197,3.4197,3.4197,3.4389,3.5317,3.5815,3.6062,3.6035,3.6508,3.7009,3.6987,3.6965,3.7021,3.7206,3.7262,3.7429,3.8061,3.7671,3.7448,3.8061,3.7671,3.7303,3.7473,3.7361,3.738,3.775,3.7555,3.7197,3.6727,3.6727,3.6539,3.5924,3.6742,3.6969,3.6142,3.6661,3.6738,3.6122,3.6103,3.6392,3.6988,3.6199,3.6084,3.6699,3.6084,3.5795,3.5795,3.5795,3.6334,2.7103,2.816,2.902,2.9898,3.0256,0.0,3.3372,3.328,0.0,0.0,0.0,0.0,0.0,3.9264,4.164,4.2763,4.2594,4.2026,4.1148,0.0,3.9662,3.8799,3.8707,3.8707,3.8707,3.8707,3.8707,3.8707,3.8707,3.8707,3.8707,3.8707,3.8707,3.8707,3.8707,3.8707,3.8707,3.8707,3.8707,3.8707,3.878,3.8792,3.8822,3.8881,3.8892,3.891,3.891,3.8968,3.9007,3.8952,3.8943,3.8934,3.8061,3.6798,3.5386,3.4513,3.4197,3.4197,3.4197,3.4197,3.4197,3.4197,3.4197,3.4197,3.4197,3.4197,3.4437,3.5496,3.6333,3.6869,3.6677,3.682,3.7127,3.7694,3.7801,3.8024,3.8767,3.8934,3.8934,3.9008,3.8971,3.8952,3.9008,3.8971,3.8915,3.8943,3.8961,3.8943,3.897,3.8686,3.8466,3.8412,3.811,3.7858,3.78,3.8604,3.8738,3.7873,3.7873,3.7873,3.7815,3.7815,3.7853,3.7911,3.7065,3.6642,3.6699,3.6642,3.6622,3.6622,3.6622,3.7507,2.5975,2.7491,2.8968,2.9325,0.0,0.0,0.0,0.0,0.0,0.0,0.0,0.0,0.0,0.0,4.0861,4.192,4.1785,4.1277,4.0469,4.0084,3.9588,3.8799,3.8707,3.8707,3.8707,3.8707,3.8707,3.8707,3.8707,3.8707,3.8707,3.8707,3.8707,3.8707,3.8707,3.8707,3.8707,3.8707,3.8707,3.8707,3.8738,3.875,3.875,3.8792,3.8881,3.8892,3.8921,3.9007,3.9008,3.8507,3.8331,3.8228,3.6883,3.5651,3.4593,3.426,3.4124,3.4074,3.4124,3.4148,3.4216,3.4722,3.4939,3.5089,3.5558,3.5681,3.5899,3.6851,3.7362,3.7617,3.7692,3.8121,3.8571,3.8643,3.8655,3.8729,3.9027,3.9101,3.9101,3.9101,3.9101,3.9101,3.9101,3.9101,3.9156,3.9324,3.9192,3.9219,3.9494,3.9322,3.9063,3.8803,3.8309,3.8219,3.8757,3.9104,3.9373,3.9527,3.9084,3.8565,3.8027,3.8007,3.8257,3.8796,3.795,3.7777,3.8315,3.7777,3.7507,3.7507,3.7507,3.8142,2.5593,2.7205,2.8968,0.0,0.0,0.0,0.0,0.0,0.0,0.0,0.0,0.0,0.0,0.0,0.0,0.0,4.1046,4.0524,3.9974,3.968,3.9313,3.8781,3.8707,3.8707,3.8707,3.8707,3.8707,3.8707,3.8707,3.8707,3.8707,3.8707,3.8707,3.8707,3.8707,3.8707,3.8707,3.8707,3.8707,3.8707,3.8707,3.8707,3.8707,3.8762,3.8822,3.8851,3.891,3.883,3.8637,3.8081,3.757,3.7021,3.5873,3.4909,3.4124,3.4124,3.4099,3.4074,3.4124,3.4124,3.4272,3.5092,3.5421,3.5646,3.6411,3.6626,3.6819,3.7757,3.8065,3.8209,3.8658,3.9118,3.9401,3.9156,3.9101,3.9101,3.9101,3.9101,3.9101,3.9101,3.9101,3.9101,3.9101,3.9101,3.9165,3.935,3.9219,3.9219,3.9543,3.9537,3.9448,3.9318,3.8925,3.8946,3.9623,3.9681,3.9912,4.0469,3.9969,3.9411,3.8815,3.8796,3.9065,3.9662,3.8834,3.87,3.9296,3.87,3.8411,3.8411,3.8411,3.8873,2.6383,2.7625,2.9102,0.0,0.0,0.0,0.0,0.0,0.0,0.0,0.0,3.999,4.1586,0.0,0.0,4.1367,4.0597,3.9882,3.9882,3.9203,3.8707,3.8707,3.8707,3.8707,3.8707,3.8707,3.8707,3.8707,3.8707,3.8707,3.8707,3.8707,3.8707,3.8707,3.8707,3.8707,3.8707,3.8707,3.8707,3.8707,3.8707,3.8707,3.8707,3.8762,3.8762,3.8707,3.8762,3.839,3.771,3.7766,3.6867,3.5479,3.5479,3.4959,3.4197,3.4197,3.4197,3.4197,3.4197,3.4197,3.4346,3.5219,3.5516,3.5665,3.6482,3.6705,3.695,3.8008,3.8305,3.8541,3.9523,3.9609,3.935,3.9156,3.9101,3.9101,3.9101,3.9101,3.9101,3.9101,3.9101,3.9101,3.9101,3.9101,3.9101,3.9101,3.9101,3.9101,3.9101,3.935,3.9698,4.0139,4.0196,4.0286,4.0489,4.0489,4.0489,4.0489,4.0489,4.0489,4.0489,4.0489,4.0489,4.0489,3.9719,3.9296,3.9296,3.9296,3.9296,3.9296,3.9296,3.9738,2.5707,2.7186,0.0,0.0,0.0,0.0,0.0,0.0,0.0,0.0,0.0,3.9583,3.9879,0.0,0.0,3.976,3.9398,3.9056,3.9056,3.8854,3.8707,3.8707,3.8707,3.8707,3.8707,3.8707,3.8707,3.8707,3.8707,3.8707,3.8707,3.8707,3.8707,3.8707,3.8707,3.8707,3.8707,3.8707,3.8707,3.8707,3.8707,3.8707,3.8707,3.8762,3.8792,3.8762,3.8851,3.8762,3.8534,3.7487,3.6048,3.4587,3.4519,3.4346,3.4124,3.4124,3.4099,3.4074,3.4074,3.4488,3.5162,3.5908,3.6618,3.7336,3.8072,3.8331,3.8396,3.8755,3.8943,3.9083,3.9481,3.9609,3.9566,3.9408,3.9376,3.9324,3.9156,3.9101,3.9101,3.9101,3.9101,3.9101,3.9101,3.9101,3.9101,3.9101,3.9101,3.9183,3.935,3.9433,3.9698,4.0139,4.0196,4.0286,4.0489,4.0489,4.0489,4.0489,4.0489,4.0489,4.0489,4.0489,4.0489,4.0489,4.0258,4.0142,4.0142,4.0142,4.0142,4.0142,4.0142,4.0258,2.7205,0.0,0.0,0.0,0.0,0.0,0.0,0.0,0.0,0.0,0.0,3.9614,3.9946,3.9375,0.0,3.9346,3.9013,3.8707,3.8707,3.8707,3.8707,3.8707,3.8707,3.8707,3.8707,3.8707,3.8707,3.8707,3.8707,3.8707,3.8707,3.8707,3.8707,3.8707,3.8707,3.8707,3.8707,3.8707,3.8707,3.8707,3.8707,3.8707,3.8707,3.875,3.8596,3.8247,3.7679,3.747,3.7442,3.6136,3.5032,3.4124,3.4074,3.4074,3.4074,3.4074,3.4023,3.3998,3.3998,3.4356,3.501,3.6086,3.6851,3.7544,3.8645,3.895,3.895,3.9007,3.9073,3.9165,3.9376,3.9464,3.9519,3.9508,3.9556,3.9513,3.9165,3.9165,3.9219,3.9129,3.9101,3.9101,3.9101,3.9101,3.9101,3.9101,3.9101,3.9156,3.9324,3.935,3.9513,4.0002,4.0042,4.0177,4.0473,4.0489,4.0489,4.0489,4.0489,4.0489,4.0489,4.0489,4.0489,4.0489,4.0489,4.0489,4.0489,4.0489,4.0489,4.0489,4.0489,4.0489,2.9784,0.0,0.0,0.0,0.0,0.0,3.9546,0.0,3.9898,4.0378,0.0,3.9694,4.0837,3.9843,3.9016,3.9595,3.9001,3.8505,3.8579,3.8524,3.8487,3.8487,3.8487,3.8505,3.8579,3.8597,3.8615,3.8689,3.8707,3.8707,3.8707,3.8707,3.8707,3.8707,3.8707,3.8707,3.8707,3.8707,3.8707,3.8707,3.8707,3.8707,3.8707,3.8707,3.8267,3.7434,3.6021,3.5358,3.5235,3.4441,3.4072,3.3998,3.3998,3.3998,3.3998,3.3998,3.3998,3.3998,3.3998,3.4053,3.4367,3.59,3.6464,3.6897,3.8356,3.8836,3.891,3.891,3.8939,3.9007,3.9245,3.9305,3.9357,3.9477,3.9632,3.9641,3.9245,3.9324,3.9401,3.9156,3.9101,3.9101,3.9101,3.9101,3.9101,3.9101,3.9101,3.9101,3.9101,3.9101,3.9279,3.9731,3.9797,3.9984,4.0422,4.0489,4.0489,4.0489,4.0489,4.0489,4.0489,4.0489,4.0489,4.0489,4.0489,4.0489,4.0489,4.0489,4.0489,4.0489,4.0489,4.0489,0.0,2.9325,0.0,0.0,0.0,0.0,3.9537,3.9315,3.8889,3.9451,3.879,3.8136,3.8306,3.7558,3.7143,3.7893,3.7331,3.7037,3.7661,3.7202,3.6817,3.6817,3.6817,3.7055,3.7698,3.7753,3.801,3.8652,3.8707,3.8707,3.8707,3.8707,3.8707,3.8707,3.8707,3.8707,3.8707,3.8707,3.8707,3.8707,3.8707,3.8707,3.8707,3.8707,3.8267,3.7489,3.7198,3.638,3.521,3.5088,3.4607,3.3998,3.3998,3.3998,3.3998,3.3998,3.3998,3.3998,3.3947,3.4415,3.5069,3.5385,3.6362,3.7525,3.7858,3.8393,3.891,3.891,3.9045,3.9219,3.9298,3.9414,3.95,3.9383,3.9408,3.9458,3.9408,3.9298,3.9183,3.9129,3.9101,3.9101,3.9101,3.9101,3.9101,3.9101,3.9101,3.9101,3.9101,3.9101,3.9219,3.9513,3.9705,3.9943,4.0251,4.0425,4.0489,4.0489,4.0489,4.0489,4.0489,4.0489,4.0489,4.0489,4.0489,4.0489,4.0489,4.0489,4.0489,4.0489,4.0489,4.0489,0.0,0.0,0.0,0.0,0.0,0.0,3.9362,3.8936,3.8272,3.8486,3.7765,3.7054,3.6824,3.6454,3.6337,3.6758,3.6465,3.6384,3.6853,3.656,3.6303,3.6303,3.6303,3.645,3.6872,3.6927,3.7092,3.7514,3.79,3.812,3.812,3.8487,3.8707,3.8707,3.8707,3.8707,3.8707,3.8707,3.8707,3.8707,3.8707,3.8707,3.8689,3.8303,3.7679,3.689,3.6515,3.5662,3.4522,3.4576,3.43,3.3895,3.3895,3.3895,3.3895,3.3895,3.3895,3.3895,3.3868,3.4163,3.4705,3.5487,3.6315,3.7172,3.7945,3.846,3.8792,3.8792,3.8892,3.8989,3.8989,3.9091,3.9181,3.9189,3.9345,3.9439,3.9272,3.9192,3.9156,3.9017,3.8989,3.9017,3.9064,3.9073,3.9101,3.9101,3.9101,3.9101,3.9101,3.9101,3.9192,3.9458,3.9683,3.9922,4.0196,4.0372,4.0489,4.0489,4.0489,4.0489,4.0489,4.0489,4.0489,4.0489,4.0489,4.0489,4.0489,4.0489,4.0489,4.0489,4.0489,4.0489,0.0,0.0,0.0,0.0,3.7316,0.0,3.8939,3.8413,3.7625,3.747,3.6796,3.615,3.5864,3.5754,3.5729,3.5875,3.5784,3.5776,3.6046,3.5954,3.5862,3.5862,3.5862,3.5917,3.6064,3.6083,3.6138,3.6285,3.6909,3.7276,3.7276,3.7918,3.8285,3.8285,3.8285,3.8285,3.8285,3.8414,3.8414,3.8285,3.8285,3.8285,3.8267,3.7588,3.6927,3.6248,3.5385,3.4559,3.3807,3.3807,3.3807,3.3807,3.3807,3.3807,3.3807,3.3807,3.3899,3.4009,3.4009,3.4119,3.4468,3.5844,3.6376,3.6762,3.8083,3.8597,3.8707,3.8707,3.8707,3.8707,3.8707,3.8707,3.8762,3.8971,3.9231,3.9352,3.9045,3.9101,3.9183,3.895,3.891,3.8939,3.8979,3.9036,3.9073,3.9073,3.9101,3.9101,3.9101,3.9101,3.9192,3.9427,3.966,3.9901,4.012,4.0356,4.0489,4.0489,4.0489,4.0489,4.0489,4.0489,4.0489,4.0489,4.0489,4.0489,4.0489,4.0489,4.0489,4.0489,4.0489,4.0489,0.0,0.0,0.0,0.0,3.6635,3.7257,0.0,0.0,3.6368,0.0,3.5716,3.508,3.5052,3.4541,3.433,3.4971,3.4522,3.4348,3.5064,3.4578,3.4137,3.4137,3.4137,3.4412,3.51,3.5155,3.5495,3.6229,3.6395,3.645,3.645,3.656,3.6615,3.6615,3.6615,3.6615,3.6615,3.7294,3.7294,3.6615,3.6615,3.6615,3.6615,3.6505,3.6395,3.6248,3.5385,3.4559,3.3807,3.3807,3.3807,3.3807,3.3807,3.3807,3.3807,3.3807,3.4247,3.4825,3.4825,3.5349,3.5991,3.6229,3.6762,3.7367,3.7588,3.8138,3.8707,3.8707,3.8707,3.8707,3.8707,3.8707,3.8707,3.8732,3.8792,3.8892,3.9192,3.9101,3.895,3.891,3.891,3.8892,3.8892,3.895,3.9007,3.9007,3.9045,3.9101,3.9101,3.9101,3.9129,3.9156,3.9543,3.9819,3.984,4.0248,4.0489,4.0489,4.0489,4.0489,4.0489,4.0489,4.0489,4.0489,4.0489,4.0489,4.0489,4.0489,4.0489,4.0489,4.0489,4.0489,2.9975,3.1115,3.258,0.0,3.6534,3.7117,3.7734,0.0,3.6685,3.6168,3.5454,3.4749,3.4246,3.3908,3.3826,3.4174,3.3964,3.3881,3.4284,3.4027,3.3807,3.3807,3.3807,3.3935,3.4302,3.4339,3.4504,3.4871,3.533,3.5587,3.5587,3.6028,3.6303,3.6303,3.6303,3.6303,3.6303,3.6652,3.6652,3.6303,3.6303,3.6303,3.6266,3.5789,3.5587,3.5569,3.5155,3.4559,3.3807,3.3807,3.3807,3.3807,3.3807,3.3807,3.3807,3.3807,3.4321,3.499,3.499,3.5587,3.6358,3.6817,3.7202,3.7569,3.8028,3.8414,3.8707,3.8707,3.8707,3.8707,3.8707,3.8707,3.8707,3.8707,3.8707,3.875,3.8921,3.8881,3.878,3.878,3.8822,3.8833,3.8833,3.891,3.8921,3.8921,3.8979,3.9007,3.9036,3.9045,3.9101,3.9298,3.9513,3.9728,4.0002,4.0213,4.0372,4.0489,4.0489,4.0489,4.0489,4.0489,4.0489,4.0489,4.0489,4.0489,4.0489,4.0489,4.0489,4.0489,4.0489,4.0489,0.0,0.0,3.1689,3.451,3.587,3.6696,0.0,0.0,3.7089,0.0,3.5666,3.4892,3.4071,3.3789,3.3643,3.3698,3.3726,3.3753,3.3788,3.3807,3.3807,3.3807,3.3807,3.3807,3.3807,3.3807,3.3807,3.3807,3.4376,3.4706,3.4706,3.5312,3.5661,3.5661,3.5661,3.5661,3.5661,3.5862,3.5973,3.5973,3.5973,3.5862,3.5642,3.5,3.4706,3.4706,3.4706,3.4357,3.3807,3.3807,3.3807,3.3807,3.3807,3.3807,3.3825,3.4027,3.4633,3.5367,3.5569,3.6193,3.7,3.7606,3.779,3.7918,3.8524,3.8707,3.8707,3.8707,3.8707,3.8707,3.8707,3.8707,3.8707,3.8707,3.8707,3.8707,3.8707,3.8707,3.8707,3.8707,3.875,3.8762,3.8762,3.8822,3.8862,3.8862,3.891,3.8995,3.9246,3.9293,3.9482,3.9967,3.9858,3.9953,4.0385,4.0291,4.0286,4.0489,4.0489,4.0489,4.0489,4.0489,4.0489,4.0489,4.0489,4.0489,4.0489,4.0489,4.0489,4.0489,4.0489,4.0489,0.0,2.958,0.0,3.2146,3.4011,0.0,0.0,0.0,3.7025,3.7035,3.643,3.5624,3.495,3.4266,3.378,3.3698,3.3753,3.3807,3.3807,3.3807,3.3807,3.3807,3.3807,3.3807,3.3807,3.3807,3.3807,3.3807,3.3844,3.3862,3.3862,3.3917,3.3935,3.3935,3.3935,3.3935,3.3935,3.4706,3.5064,3.5064,3.5064,3.4688,3.3935,3.388,3.3862,3.3862,3.3862,3.3844,3.3807,3.3807,3.3807,3.3807,3.3807,3.3807,3.3899,3.4642,3.5495,3.634,3.7092,3.79,3.8579,3.8615,3.8634,3.8652,3.8689,3.8707,3.8707,3.8707,3.8707,3.8707,3.8707,3.8707,3.8707,3.8707,3.8707,3.8707,3.8707,3.8707,3.8707,3.8707,3.8707,3.8707,3.8707,3.878,3.8822,3.8822,3.8881,3.9187,3.9926,4.0037,4.0381,4.1315,4.0887,4.0672,4.1026,4.0519,4.0286,4.0489,4.0489,4.0489,4.0489,4.0489,4.0489,4.0489,4.0489,4.0489,4.0489,4.0489,4.0489,4.0489,4.0489,4.0489,0.0,0.0,0.0,3.1832,3.3278,3.4222,3.4791,3.5725,3.648,3.6339,3.5763,3.536,3.5619,3.5026,3.4339,3.3853,3.378,3.3807,3.3807,3.3807,3.3807,3.3807,3.3807,3.3807,3.3807,3.3807,3.3807,3.3807,3.3807,3.3807,3.3807,3.3807,3.3807,3.3807,3.3807,3.3807,3.3807,3.41,3.4229,3.4229,3.4229,3.4082,3.3807,3.3807,3.3807,3.3807,3.3807,3.3807,3.3807,3.3807,3.3807,3.3807,3.3807,3.3807,3.3899,3.4697,3.5569,3.6413,3.7202,3.8028,3.8707,3.8707,3.8707,3.8707,3.8707,3.8707,3.8707,3.8707,3.8707,3.8707,3.8707,3.8707,3.8707,3.8707,3.8707,3.8707,3.8707,3.8707,3.8707,3.8707,3.8707,3.8707,3.8707,3.8719,3.8719,3.8719,3.875,3.8872,3.9209,3.9275,3.9475,4.004,3.977,3.9806,4.0397,4.0153,4.0101,4.0473,4.0489,4.0489,4.0489,4.0489,4.0489,4.0489,4.0489,4.0489,4.0489,4.0489,4.0489,4.0489,4.0489,4.0489,2.9535,0.0,0.0,0.0,0.0,3.2854,3.4203,3.519,3.5842,3.5909,3.5604,3.54,3.5685,3.5282,3.4779,3.4275,3.4211,3.4119,3.3844,3.3807,3.3807,3.3807,3.3807,3.3807,3.3807,3.3807,3.3807,3.3807,3.3807,3.3807,3.3807,3.3807,3.3807,3.3807,3.3807,3.3807,3.3807,3.4082,3.4082,3.3807,3.4082,3.4064,3.3807,3.3807,3.3807,3.3807,3.3895,3.3868,3.3807,3.3807,3.3807,3.3807,3.3807,3.3807,3.3935,3.5037,3.5807,3.645,3.7533,3.8248,3.8707,3.8707,3.8707,3.8707,3.8707,3.8707,3.8707,3.8707,3.8707,3.8707,3.8707,3.8707,3.8707,3.8707,3.8707,3.8707,3.8707,3.8707,3.8707,3.8707,3.8707,3.8707,3.8707,3.8707,3.8707,3.8707,3.8707,3.883,3.913,3.9166,3.9379,3.9881,3.9581,3.9602,4.0208,3.9946,3.9944,4.0372,4.0457,4.0489,4.0489,4.0489,4.0489,4.0489,4.0489,4.0489,4.0489,4.0489,4.0489,4.0489,4.0489,4.0489,0.0,0.0,0.0,0.0,0.0,0.0,3.4468,0.0,3.5174,3.5798,3.5992,3.5795,3.5155,3.5009,3.499,3.499,3.4972,3.4679,3.3917,3.3825,3.3844,3.3844,3.3862,3.3862,3.3844,3.3844,3.3825,3.3807,3.3807,3.3807,3.3807,3.3807,3.3807,3.3807,3.3807,3.3807,3.3807,3.4578,3.4578,3.3807,3.4596,3.4578,3.3807,3.3807,3.3807,3.3815,3.4074,3.4049,3.3815,3.3815,3.3815,3.3815,3.3815,3.3807,3.399,3.5679,3.6303,3.6523,3.8138,3.8707,3.8707,3.8707,3.8707,3.8707,3.8707,3.8707,3.8707,3.8707,3.8707,3.8707,3.8707,3.8707,3.8707,3.8707,3.8707,3.8707,3.8707,3.8707,3.8707,3.8707,3.8707,3.8707,3.8707,3.8707,3.8707,3.8707,3.8707,3.8982,3.9753,3.9845,4.0189,4.1056,4.0449,4.0133,4.0528,4.0018,3.9859,4.0196,4.0389,4.0489,4.0489,4.0489,4.0489,4.0489,4.0489,4.0489,4.0489,4.0489,4.0489,4.0489,4.0489,4.0489,2.8026,0.0,0.0,0.0,0.0,0.0,0.0,0.0,3.2586,3.416,3.4079,3.4134,3.5549,3.5318,3.4944,3.499,3.4523,3.4064,3.3825,3.4302,3.4688,3.4688,3.522,3.5367,3.4743,3.4688,3.4431,0.0,3.3807,3.3807,3.3807,3.3807,3.3807,3.3807,3.3807,3.3807,3.3807,3.4027,3.4027,3.3807,3.4027,3.4027,3.3807,3.3807,3.3807,3.3815,3.4074,3.4148,3.4099,3.4255,3.4232,3.4099,3.4099,3.3972,3.399,3.5679,3.6303,3.6523,3.8138,3.8707,3.8707,3.8707,3.8707,3.8707,3.8707,3.8707,3.8707,3.8707,3.8707,3.8707,3.8707,3.8707,3.8707,3.8707,3.8707,3.8707,3.8707,3.8707,3.8707,3.8707,3.8707,3.8707,3.8707,3.8707,3.8707,3.8707,3.8707,3.8781,3.9001,3.9038,3.9111,3.9381,3.924,3.9303,3.9783,3.975,3.9901,4.0396,4.0476,4.0489,4.0489,4.0489,4.0489,4.0489,4.0489,4.0489,4.0489,4.0489,4.0489,4.0489,4.0489,4.0489,0.0,0.0,0.0,0.0,0.0,0.0,2.9605,3.0227,3.0915,3.2838,3.2934,3.3162,3.4806,3.4704,3.4421,3.4477,3.4119,3.3807,3.3807,3.4211,3.4504,3.4504,3.5238,3.5569,3.5045,3.5349,3.5349,3.4871,3.4835,3.4688,3.4321,3.4302,3.4156,3.3807,3.3807,3.3807,3.3807,3.3807,3.3807,3.3807,3.3807,3.3807,3.3807,3.3807,3.3842,3.3972,3.4227,3.439,3.4502,3.4612,3.4483,3.4197,3.4074,3.3947,3.399,3.5679,3.637,3.6685,3.8309,3.895,3.9017,3.9017,3.895,3.8881,3.9007,3.895,3.891,3.8989,3.895,3.8851,3.8738,3.8707,3.8707,3.8707,3.8707,3.8707,3.8707,3.8707,3.8707,3.8707,3.8707,3.8707,3.8707,3.8707,3.8707,3.8707,3.8707,3.8707,3.8707,3.8707,3.8707,3.8707,3.8719,3.895,3.9338,3.9548,3.9859,4.0288,4.0444,4.0489,4.0489,4.0489,4.0489,4.0489,4.0489,4.0489,4.0489,4.0489,4.0489,4.0489,4.0489,4.0489,0.0,0.0,0.0,0.0,0.0,0.0,2.9608,2.9757,2.9903,3.1536,3.1986,3.2276,3.3083,3.3303,3.3385,3.3437,3.3603,3.3705,3.3788,3.388,3.3935,3.3935,3.4651,3.51,3.5009,3.5716,3.6119,3.6028,3.6009,3.5716,3.5027,3.499,3.4688,3.3954,3.3935,3.3899,3.3807,3.3807,3.3807,3.3807,3.3807,3.3807,3.3807,3.3815,3.3972,3.4221,3.4442,3.4674,3.4908,3.4908,3.463,3.4221,3.3947,3.3834,3.399,3.5679,3.6464,3.6917,3.8525,3.9272,3.9502,3.9502,3.935,3.9192,3.9427,3.935,3.9192,3.9401,3.9272,3.9045,3.878,3.8707,3.8707,3.8707,3.8707,3.8707,3.8707,3.8707,3.8707,3.8707,3.8707,3.8707,3.8707,3.8707,3.8707,3.8707,3.8707,3.8707,3.8707,3.8707,3.8707,3.8719,3.875,3.8881,3.9264,3.9494,3.9775,4.0101,4.0356,4.0489,4.0489,4.0489,4.0489,4.0489,4.0489,4.0489,4.0489,4.0489,4.0489,4.0489,4.0489,4.0489,0.0,0.0,0.0,0.0,0.0,0.0,2.7404,2.8165,2.9061,2.9213,2.927,2.9494,3.0116,3.0764,3.1254,3.1374,3.234,3.3247,3.3723,3.4376,3.4752,3.4752,3.5532,3.5771,3.5064,3.5137,3.5,3.4339,3.4284,3.4504,3.4954,3.499,3.4917,3.4752,3.4752,3.4468,3.3807,3.3807,3.3807,3.3807,3.3807,3.3807,3.3807,3.4023,3.4148,3.4221,3.4651,3.4851,3.4908,3.4908,3.4713,3.442,3.4203,3.3998,3.399,3.5679,3.6464,3.6917,3.8525,3.9272,3.9502,3.9502,3.9458,3.9427,3.9483,3.9458,3.9401,3.9219,3.9156,3.9045,3.878,3.8707,3.8707,3.8707,3.8707,3.8707,3.8707,3.8707,3.8707,3.8707,3.8707,3.8707,3.8707,3.8707,3.8707,3.8707,3.8707,3.8707,3.8707,3.8707,3.878,3.9007,3.9017,3.9219,3.9717,3.9813,3.9982,4.0307,4.043,4.0495,4.0489,4.0489,4.0489,4.0489,4.0489,4.0489,4.0489,4.0489,4.0489,4.0489,4.0489,4.0489,0.0,0.0,0.0,2.6402,0.0,0.0,0.0,2.7186,2.7759,2.8705,2.8595,2.8689,2.9791,3.0331,3.0632,3.0787,3.1964,3.2882,3.2779,3.3703,3.4412,3.4412,3.5147,3.5495,3.5027,3.5404,3.5477,3.5073,3.5055,3.5037,3.499,3.499,3.4807,3.4412,3.477,3.4605,3.3807,3.4633,3.4835,3.4412,3.4412,3.4475,3.4589,3.4334,3.4321,3.4567,3.4792,3.4964,3.5037,3.4945,3.4831,3.4674,3.4439,3.4227,3.4171,3.5521,3.6453,3.7216,3.8432,3.9312,3.9892,3.9892,3.9804,3.9717,3.9848,3.9892,3.9848,3.9556,3.9383,3.9245,3.8979,3.881,3.8707,3.8707,3.8707,3.8707,3.8707,3.8707,3.8707,3.8707,3.8707,3.8707,3.8707,3.8707,3.8707,3.8707,3.8707,3.8707,3.8707,3.8707,3.875,3.8881,3.9017,3.9272,3.967,3.9813,4.0022,4.0379,4.0449,4.0499,4.0489,4.0489,4.0489,4.0489,4.0489,4.0489,4.0489,4.0489,4.0489,4.0489,4.0489,4.0489,0.0,0.0,0.0,0.0,0.0,2.709,0.0,0.0,0.0,2.8219,2.8033,2.8014,2.9326,2.9683,2.9833,2.9945,3.1271,3.2076,3.1424,3.2408,3.325,3.3311,3.4192,3.4697,3.4532,3.5183,3.5642,3.5807,3.5679,3.5422,3.5009,3.499,3.4697,3.4045,3.4642,3.4605,3.3807,3.5128,3.5477,3.4752,3.4807,3.495,3.5144,3.4591,3.4545,3.4889,3.4945,3.5054,3.5193,3.5037,3.4926,3.487,3.4593,3.4416,3.4367,3.5338,3.6408,3.7524,3.8319,3.9354,4.031,4.031,4.0157,4.0017,4.0234,4.031,4.0234,3.9914,3.967,3.9427,3.9101,3.8851,3.8707,3.8707,3.8707,3.8707,3.8707,3.8707,3.8707,3.8707,3.8707,3.8707,3.8707,3.8707,3.8707,3.8707,3.875,3.875,3.8707,3.881,3.8851,3.8851,3.9101,3.9376,3.9623,3.9854,4.01,4.0379,4.0449,4.0499,4.0489,4.0489,4.0489,4.0489,4.0489,4.0489,4.0489,4.0489,4.0489,4.0489,4.0489,4.0489,0.0,0.0,0.0,0.0,2.8676,0.0,0.0,0.0,2.7166,2.592,0.0,2.5609,0.0,0.0,0.0,0.0,0.0,3.0126,3.0031,3.0678,3.1272,3.1618,3.2999,3.366,3.2918,3.2963,3.333,3.4027,3.3421,3.3605,3.4917,3.499,3.4954,3.4862,3.4935,3.4605,3.3807,3.399,3.4027,3.3935,3.4197,3.4321,3.4351,3.4668,3.4851,3.4927,3.5089,3.5193,3.5209,3.5176,3.5054,3.487,3.4593,3.4486,3.4558,3.5387,3.6408,3.7524,3.8319,3.9354,4.031,4.031,4.0291,4.0253,4.0291,4.031,4.0196,3.9693,3.9508,3.9401,3.8881,3.8719,3.8707,3.8707,3.8707,3.8707,3.8707,3.8707,3.8707,3.8707,3.8707,3.8707,3.8707,3.8707,3.8707,3.8707,3.8892,3.8979,3.8719,3.9129,3.9427,3.9427,3.9647,3.9914,4.0176,4.0234,4.031,4.0379,4.0415,4.0447,4.0489,4.0489,4.0489,4.0489,4.0489,4.0489,4.0489,4.0489,4.0489,4.0489,4.0489,4.0489,0.0,0.0,0.0,0.0,0.0,0.0,2.6326,0.0,2.6173,0.0,0.0,0.0,0.0,0.0,0.0,0.0,2.7932,0.0,2.8471,2.9343,3.0465,3.1622,3.1931,3.2256,3.273,3.2761,3.3061,3.3733,3.3165,3.3227,3.4247,3.4302,3.4302,3.4302,3.4752,3.4605,3.3807,3.4761,3.5064,3.4752,3.4835,3.503,3.5305,3.502,3.4945,3.5072,3.5157,3.5209,3.5209,3.5209,3.5141,3.5072,3.4944,3.4832,3.4791,3.5249,3.6027,3.6976,3.7795,3.8728,3.9642,4.0138,4.031,4.031,4.031,4.031,4.0234,3.9848,3.9623,3.9427,3.9017,3.884,3.8707,3.8707,3.8707,3.8707,3.8707,3.8707,3.8707,3.8707,3.8707,3.8707,3.8707,3.8707,3.8707,3.8707,3.881,3.8822,3.8689,3.891,3.9101,3.9245,3.9526,3.9762,4.0057,4.0196,4.031,4.0344,4.0396,4.0463,4.0489,4.0489,4.0489,4.0489,4.0489,4.0489,4.0489,4.0489,4.0489,4.0489,4.0489,4.0489,2.8542,0.0,0.0,0.0,0.0,0.0,0.0,0.0,0.0,0.0,0.0,0.0,0.0,0.0,0.0,0.0,0.0,2.8078,0.0,2.8026,2.923,0.0,0.0,0.0,3.2519,3.2463,3.2688,3.3497,3.2945,3.2921,3.3778,3.3807,3.3807,3.3807,3.4376,3.4394,3.3807,3.5082,3.5494,3.507,3.5198,3.545,3.5741,3.523,3.5072,3.5209,3.5209,3.5209,3.5209,3.5209,3.5209,3.5209,3.5209,3.5107,3.5001,3.516,3.5763,3.6623,3.7426,3.8438,3.947,4.01,4.031,4.031,4.031,4.031,4.0234,3.9892,3.9647,3.9427,3.9073,3.8851,3.8707,3.8707,3.8707,3.8707,3.8707,3.8707,3.8707,3.8707,3.8707,3.8707,3.8707,3.8707,3.8707,3.8707,3.875,3.881,3.881,3.8921,3.9101,3.9298,3.9575,3.9804,3.9996,4.0176,4.031,4.0344,4.043,4.0495,4.0489,4.0489,4.0489,4.0489,4.0489,4.0489,4.0489,4.0489,4.0489,4.0489,4.0489,4.0489,0.0,0.0,0.0,2.8103,0.0,0.0,0.0,0.0,2.7396,0.0,0.0,0.0,0.0,0.0,0.0,0.0,0.0,0.0,0.0,0.0,0.0,0.0,0.0,0.0,0.0,3.1333,3.1439,3.2818,3.2182,3.2329,3.3742,3.3807,3.3807,3.3807,3.3825,3.3825,3.3807,3.4104,3.4271,3.4234,3.4689,3.4908,3.4927,3.5126,3.5174,3.5209,3.5209,3.5209,3.5209,3.5209,3.5209,3.5209,3.5209,3.5209,3.5193,3.5209,3.5763,3.6623,3.7426,3.882,4.0272,4.0291,4.031,4.031,4.031,4.031,4.0176,3.967,3.9526,3.9376,3.8851,3.8707,3.8707,3.8707,3.8707,3.8707,3.8707,3.8707,3.8707,3.8707,3.8707,3.8707,3.8707,3.8707,3.8707,3.8707,3.8921,3.9101,3.9101,3.9551,3.9851,3.9851,4.0118,4.0291,4.0291,4.0291,4.0328,4.0398,4.046,4.0489,4.0489,4.0489,4.0489,4.0489,4.0489,4.0489,4.0489,4.0489,4.0489,4.0489,4.0489,4.0489,0.0,0.0,2.9937,2.879,0.0,0.0,0.0,0.0,0.0,0.0,0.0,0.0,0.0,0.0,0.0,0.0,0.0,0.0,0.0,0.0,0.0,0.0,0.0,0.0,0.0,0.0,3.1158,3.2052,3.1848,0.0,3.3742,3.3807,3.3807,3.3807,3.3807,3.3895,3.4074,3.4148,3.4363,3.467,3.4831,3.4982,3.5107,3.5176,3.5209,3.5209,3.5209,3.5209,3.5209,3.5209,3.5209,3.5209,3.5209,3.5209,3.5209,3.5209,3.54,3.5763,3.6623,3.8018,3.9451,3.9451,3.9833,4.031,4.031,4.0176,3.9975,3.9599,3.9376,3.9137,3.8792,3.8707,3.8707,3.8707,3.8707,3.8707,3.8707,3.8707,3.8707,3.8707,3.8707,3.8707,3.8707,3.8707,3.8707,3.8707,3.878,3.891,3.9073,3.9245,3.9526,3.9851,3.9996,4.0098,4.0272,4.031,4.0328,4.0398,4.0413,4.0444,4.0489,4.0489,4.0489,4.0489,4.0489,4.0489,4.0489,4.0489,4.0489,4.0489,4.0489,4.0489,3.0204,3.0204,0.0,2.9121,2.851,0.0,2.7052,0.0,2.7663,0.0,0.0,0.0,0.0,0.0,0.0,0.0,0.0,0.0,0.0,2.565,0.0,0.0,0.0,0.0,0.0,0.0,0.0,3.1218,0.0,0.0,0.0,3.3917,3.41,3.3807,3.3895,3.4023,3.4197,3.4367,3.4588,3.4908,3.4982,3.5072,3.5209,3.5209,3.5209,3.5209,3.5209,3.5209,3.5209,3.5209,3.5209,3.5209,3.5209,3.5209,3.5209,3.5209,3.54,3.5744,3.6317,3.7597,3.9011,3.9011,3.9603,4.031,4.031,4.0176,3.9975,3.9599,3.9376,3.9156,3.8792,3.8707,3.8707,3.8707,3.8707,3.8707,3.8707,3.8707,3.8707,3.8707,3.8707,3.8707,3.8707,3.8707,3.8707,3.8707,3.8707,3.8822,3.921,3.9245,3.9452,3.9996,4.0038,4.0118,4.0291,4.031,4.0327,4.0362,4.0415,4.0447,4.0511,4.0508,4.0489,4.0489,4.0489,4.0489,4.0489,4.0489,4.0489,4.0489,4.0489,4.0489]},{"header":{"parameterUnit":"m.s-1","parameterCategory":1,"la1":30.6,"la2":29.2853,"lo1":-89.7004,"lo2":-87.6739,"dy":0.0162,"dx":0.0183,"nx":112,"ny":82,"refTime":"2024-09-25T18:00:00:Z","depth":0,"parameterNumber":3,"parameterNumberName":"V-component_of_WINDS"},"data":[0.0,0.0,0.0,0.0,0.0,0.0,0.0,0.0,0.0,0.0,0.0,0.0,0.0,0.0,0.0,0.0,0.0,0.0,0.0,0.0,0.0,0.0,0.0,0.0,0.0,0.0,0.0,0.0,0.0,0.0,0.0,0.0,0.0,0.0,0.0,0.0,0.0,0.0,0.0,0.0,0.0,0.0,0.0,0.0,0.0,0.0,0.0,0.0,0.0,0.0,0.0,0.0,0.0,0.0,0.0,0.0,0.0,0.0,0.0,0.0,0.0,0.0,0.0,0.0,0.0,0.0,0.0,0.0,0.0,0.0,0.0,0.0,0.0,0.0,0.0,0.0,0.0,0.0,0.0,0.0,0.0,0.0,0.0,0.0,0.0,0.0,0.0,0.0,0.0,0.0,0.4421,0.4477,0.4359,0.4252,0.4206,0.3866,0.3638,0.3583,0.0,0.0,0.0,0.0,0.0,0.0,0.0,0.0,0.0,0.0,0.0,0.0,0.0,0.0,0.0,0.0,0.0,0.0,0.0,0.0,0.0,0.0,0.0,0.0,0.0,0.0,0.0,0.0,0.0,0.0,0.0,0.0,0.0,0.0,0.0,0.0,0.0,0.0,0.0,0.0,0.0,0.0,0.0,0.0,0.0,0.0,0.0,0.0,0.0,0.0,0.0,0.0,0.0,0.0,0.0,0.0,0.0,0.0,0.0,0.0,0.0,0.0,0.0,0.0,0.0,0.0,0.0,0.0,0.0,0.0,0.0,0.0,0.0,0.0,0.0,0.0,0.0,0.0,0.0,0.0,0.0,0.0,0.0,0.0,0.0,0.0,0.0,0.0,0.0,0.0,0.0,0.0,0.0,0.0,0.0,0.0,0.0,0.0,0.0,0.0,0.0,0.0,0.0,0.0,0.3907,0.4463,0.4463,0.4411,0.4196,0.4027,0.3817,0.3616,0.0,0.0,0.0,0.0,0.0,0.0,0.0,0.0,0.0,0.0,0.0,0.0,0.0,0.0,0.0,0.0,0.0,0.0,0.0,0.0,0.0,0.0,0.0,0.0,0.0,0.0,0.0,0.0,0.0,0.0,0.0,0.0,0.0,0.0,0.0,0.0,0.0,0.0,0.0,0.0,0.0,0.0,0.0,0.0,0.0,0.0,0.0,0.0,0.0,0.0,0.0,0.0,0.0,0.0,0.0,0.0,0.0,0.0,0.0,0.0,0.0,0.0,0.0,0.0,0.0,0.0,0.0,0.0,0.0,0.0,0.0,0.0,0.0,0.0,0.0,0.0,0.0,0.0,0.0,0.0,0.0,0.0,0.0,0.0,0.0,0.0,0.0,0.0,0.0,0.0,0.0,0.0,0.0,0.0,0.0,0.0,0.0,0.0,0.0,0.0,0.0,0.0,0.0,0.4018,0.4184,0.446,0.4519,0.4408,0.4193,0.4079,0.3862,0.3637,0.1954,0.0,0.0,0.0,0.0,0.0,0.0,0.0,0.0,0.0,0.0,0.0,0.0,0.0,0.0,0.0,0.0,0.0,0.0,0.0,0.0,0.0,0.0,0.0,0.0,0.0,0.0,0.0,0.0,0.0,0.0,0.0,0.0,0.0,0.0,0.0,0.0,0.0,0.0,0.0,0.0,0.0,0.0,0.0,0.0,0.0,0.0,0.0,0.0,0.0,0.0,0.0,0.0,0.0,0.0,0.0,0.0,0.0,0.0,0.0,0.0,0.0,0.0,0.0,0.0,0.0,0.0,0.0,0.0,0.0,0.0,0.0,0.0,0.0,0.0,0.0,0.0,0.0,0.0,0.0,0.0,0.0,0.0,0.0,0.0,0.0,0.0,0.0,0.0,0.0,0.0,0.0,0.0,0.0,0.0,0.0,0.0,0.0,0.0,0.0,0.0,0.0,0.0,0.4519,0.4519,0.4519,0.4519,0.4463,0.4301,0.4048,0.3866,0.3591,0.2488,0.0,0.0,0.0,0.0,0.0,0.0,0.0,0.0,0.0,0.0,0.0,0.0,0.0,0.0,0.0,0.0,0.0,0.0,0.0,0.0,0.0,0.0,0.0,0.0,0.0,0.0,0.0,0.0,0.0,0.0,0.0,0.0,0.0,0.0,0.0,0.0,0.0,0.0,0.0,0.0,0.0,0.0,0.0,0.0,0.0,0.0,0.0,0.0,0.0,0.0,0.0,0.0,0.0,0.0,0.0,0.0,0.0,0.0,0.0,0.0,0.0,0.0,0.0,0.0,0.0,0.0,0.0,0.0,0.0,0.0,0.0,0.0,0.0,0.0,0.0,0.0,0.0,0.0,0.0,0.0,0.0,0.0,0.0,0.0,0.0,0.0,0.0,0.0,0.0,0.0,0.0,0.0,0.0,0.0,0.0,0.0,0.0,0.0,0.0,0.0,0.0,0.0,0.4519,0.4519,0.4519,0.4519,0.4519,0.4463,0.4066,0.3776,0.3601,0.2492,0.0,0.0,0.0,0.0,0.0,0.0,0.0,0.0,0.0,0.0,0.0,0.0,0.0,0.0,0.0,0.0,0.0,0.0,0.0,0.0,0.0,0.0,0.0,0.0,0.0,0.0,0.0,0.0,0.0,0.0,0.0,0.0,0.0,0.0,0.0,0.0,0.0,0.0,0.0,0.0,0.0,0.0,0.0,0.0,0.0,0.0,0.0,0.0,0.0,0.0,0.0,0.0,0.0,0.0,0.0,0.0,0.0,0.0,0.0,0.0,0.0,0.0,0.0,0.0,0.0,0.0,0.0,0.0,0.0,0.0,0.0,0.0,0.0,0.0,0.0,0.0,0.0,0.0,0.0,0.0,0.0,0.0,0.0,0.0,0.0,0.0,0.0,0.0,0.0,0.0,0.0,0.0,0.0,0.0,0.0,0.0,0.0,0.0,0.0,0.0,0.0,0.0,0.4519,0.4519,0.0,0.4519,0.4519,0.4519,0.4139,0.38,0.3488,0.0,0.0,0.0,0.0,0.0,0.0,0.0,0.0,0.0,0.0,0.0,0.0,0.0,0.0,0.0,0.0,0.0,0.0,0.0,0.0,0.0,0.0,0.0,0.0,0.0,0.0,0.0,0.0,0.0,0.0,0.0,0.0,0.0,0.0,0.0,0.0,0.0,0.0,0.0,0.0,0.0,0.0,0.0,0.0,0.0,0.0,0.0,0.0,0.0,0.0,0.0,0.0,0.0,0.0,0.0,0.0,0.0,0.0,0.0,0.0,0.0,0.0,0.0,0.0,0.0,0.0,0.0,0.0,0.0,0.0,0.0,0.0,0.0,0.0,0.0,0.0,0.0,0.0,0.0,0.0,0.0,0.0,0.0,0.0,0.0,0.0,0.0,0.0,0.0,0.0,0.0,0.0,0.0,0.0,0.0,0.0,0.0,0.0,0.0,0.0,0.0,0.0,0.4512,0.4519,0.4519,0.0,0.4519,0.4519,0.4519,0.4146,0.3809,0.3539,0.0,0.0,0.0,0.0,0.0,0.0,0.0,0.0,0.0,0.0,0.0,0.0,0.0,0.0,0.0,0.0,0.0,0.0,0.0,0.0,0.0,0.0,0.0,0.0,0.0,0.0,0.0,0.0,0.0,0.0,0.0,0.0,0.0,0.0,0.0,0.0,0.0,0.0,0.0,0.0,0.0,0.0,0.0,0.0,0.0,0.0,0.0,0.0,0.0,0.0,0.0,0.0,0.0,0.0,0.0,0.0,0.0,0.0,0.0,0.0,0.0,0.0,0.0,0.0,0.0,0.0,0.0,0.0,0.0,0.0,0.0,0.0,0.0,0.0,0.0,0.0,0.0,0.0,0.0,0.0,0.0,0.0,0.0,0.0,0.0,0.0,0.0,0.0,0.0,0.0,0.0,0.0,0.0,0.0,0.0,0.0,0.0,0.0,0.0,0.0,0.0,0.0,0.4498,0.4519,0.4519,0.4519,0.4519,0.4519,0.4519,0.4056,0.3764,0.0,0.0,0.0,0.0,0.0,0.0,0.0,0.0,0.0,0.0,0.0,0.0,0.0,0.0,0.0,0.0,0.0,0.0,0.0,0.0,0.0,0.0,0.0,0.0,0.0,0.0,0.0,0.0,0.0,0.0,0.0,0.0,0.0,0.0,0.0,0.0,0.0,0.0,0.0,0.0,0.0,0.0,0.0,0.0,0.0,0.0,0.0,0.0,0.0,0.0,0.0,0.0,0.0,0.0,0.0,0.0,0.0,0.0,0.0,0.0,0.0,0.0,0.0,0.0,0.0,0.0,0.0,0.0,0.0,0.0,0.0,0.0,0.0,0.0,0.0,0.0,0.0,0.0,0.0,0.0,0.0,0.0,0.0,0.0,0.0,0.0,0.0,0.0,0.0,0.0,0.0,0.0,0.0,0.0,0.0,0.0,0.0,0.0,0.0,0.0,0.0,0.0,0.0,0.4512,0.4519,0.4519,0.4519,0.4519,0.4519,0.4519,0.4149,0.3865,0.3692,0.0,0.0,0.0,0.0,0.0,0.0,0.0,0.0,0.0,0.0,0.0,0.0,0.0,0.0,0.0,0.0,0.0,0.0,0.0,0.0,0.0,0.0,0.0,0.0,0.0,0.0,0.0,0.0,0.0,0.0,0.0,0.0,0.0,0.0,0.0,0.0,0.0,0.0,0.0,0.0,0.0,0.0,0.0,0.0,0.0,0.0,0.0,0.0,0.0,0.0,0.0,0.0,0.0,0.0,0.0,0.0,0.0,0.0,0.0,0.0,0.0,0.0,0.0,0.0,0.0,0.0,0.0,0.0,0.0,0.0,0.0,0.0,0.0,0.0,0.0,0.0,0.0,0.0,0.0,0.0,0.0,0.0,0.0,0.0,0.0,0.0,0.0,0.0,0.0,0.0,0.0,0.0,0.0,0.0,0.0,0.0,0.0,0.0,0.0,0.0,0.0,0.0,0.4574,0.4519,0.4519,0.4519,0.4519,0.4519,0.4519,0.4187,0.3908,0.3695,0.0,0.0,0.0,0.0,0.0,0.0,0.0,0.0,0.0,0.0,0.0,0.0,0.0,0.0,0.0,0.0,0.0,0.0,0.0,0.0,0.0,0.0,0.0,0.0,0.0,0.0,0.0,0.0,0.0,0.0,0.0,0.0,0.0,0.0,0.0,0.0,0.0,0.0,0.0,0.0,0.0,0.0,0.0,0.0,0.0,0.0,0.0,0.0,0.0,0.0,0.0,0.0,0.0,0.0,0.0,0.0,0.0,0.0,0.0,0.0,0.0,0.0,0.0,0.0,0.0,0.0,0.0,0.0,0.0,0.0,0.0,0.0,0.0,0.0,0.0,0.0,0.0,0.0,0.0,0.0,0.0,0.0,0.0,0.0,0.0,0.0,0.0,0.0,0.0,0.0,0.0,0.0,0.0,0.0,0.0,0.0,0.0,0.0,0.0,0.0,0.0,0.0,0.4688,0.4574,0.4519,0.4519,0.4519,0.4519,0.4519,0.4187,0.3914,0.3711,0.0,0.0,0.0,0.0,0.0,0.0,0.0,0.0,0.0,0.0,0.0,0.0,0.0,0.0,0.0,0.0,0.0,0.0,0.0,0.0,0.0,0.0,0.0,0.0,0.0,0.0,0.0,0.0,0.0,0.0,0.0,0.0,0.0,0.0,0.0,0.0,0.0,0.0,0.0,0.0,0.0,0.0,0.0,0.0,0.0,0.0,0.0,0.0,0.0,0.0,0.0,0.0,0.0,0.0,0.0,0.0,0.0,0.0,0.0,0.0,0.3873,0.0,0.0,0.0,0.0,0.0,0.0,0.0,0.0,0.0,0.0,0.0,0.0,0.0,0.0,0.0,0.0,0.0,0.0,0.0,0.0,0.0,0.0,0.0,0.0,0.0,0.0,0.0,0.0,0.0,0.0,0.0,0.0,0.0,0.0,0.0,0.0,0.0,0.0,0.0,0.0,0.0,0.4688,0.4574,0.4519,0.4519,0.4519,0.4519,0.4519,0.4187,0.3951,0.3786,0.3311,0.0,0.0,0.0,0.0,0.0,0.0,0.0,0.0,0.0,0.0,0.0,0.0,0.0,0.0,0.0,0.0,0.0,0.0,0.0,0.0,0.0,0.0,0.0,0.0,0.0,0.0,0.0,0.0,0.0,0.0,0.0,0.0,0.0,0.0,0.0,0.0,0.0,0.0,0.0,0.0,0.0,0.0,0.0,0.0,0.0,0.0,0.0,0.0,0.0,0.0,0.0,0.0,0.0,0.0,0.0,0.0,0.0,0.0,0.0,0.0,0.4168,0.0,0.0,0.0,0.0,0.0,0.0,0.0,0.0,0.0,0.0,0.0,0.0,0.0,0.0,0.0,0.0,0.0,0.0,0.0,0.0,0.0,0.0,0.0,0.0,0.0,0.0,0.0,0.0,0.0,0.0,0.0,0.0,0.0,0.0,0.0,0.0,0.0,0.0,0.0,0.0,0.4698,0.4632,0.4574,0.4519,0.4519,0.4519,0.4519,0.4187,0.3963,0.3825,0.338,0.0,0.0,0.0,0.0,0.0,0.0,0.0,0.0,0.0,0.0,0.0,0.0,0.0,0.0,0.0,0.0,0.0,0.0,0.0,0.0,0.0,0.0,0.0,0.0,0.0,0.0,0.0,0.0,0.0,0.0,0.0,0.0,0.0,0.0,0.0,0.0,0.0,0.0,0.0,0.0,0.0,0.0,0.0,0.0,0.0,0.0,0.0,0.0,0.0,0.0,0.0,0.0,0.0,0.4829,0.4962,0.5211,0.5137,0.5033,0.4958,0.4524,0.4416,0.456,0.456,0.0,0.0,0.0,0.0,0.0,0.0,0.0,0.0,0.0,0.0,0.0,0.0,0.0,0.0,0.0,0.0,0.0,0.0,0.0,0.0,0.0,0.0,0.0,0.0,0.4586,0.4629,0.4256,0.0,0.0,0.0,0.0,0.0,0.0,0.0,0.0,0.0,0.0,0.0,0.4764,0.4768,0.4661,0.4519,0.4519,0.4519,0.4519,0.4187,0.3972,0.3859,0.3471,0.3158,0.0,0.0,0.0,0.0,0.0,0.0,0.0,0.0,0.0,0.0,0.0,0.0,0.0,0.0,0.0,0.0,0.0,0.0,0.0,0.0,0.0,0.0,0.0,0.0,0.0,0.0,0.0,0.0,0.0,0.0,0.0,0.0,0.3133,0.3821,0.0,0.0,0.0,0.0,0.0,0.0,0.0,0.0,0.0,0.0,0.0,0.0,0.0,0.497,0.5029,0.5173,0.5258,0.5277,0.5277,0.5303,0.5404,0.5378,0.5261,0.515,0.509,0.0,0.466,0.466,0.0,0.0,0.0,0.0,0.0,0.0,0.0,0.0,0.0,0.0,0.0,0.0,0.0,0.0,0.0,0.0,0.0,0.0,0.0,0.0,0.0,0.0,0.4773,0.4793,0.4874,0.4874,0.0,0.4816,0.4792,0.466,0.4558,0.0,0.0,0.0,0.0,0.0,0.0,0.0,0.4923,0.4911,0.4834,0.4532,0.4519,0.4519,0.4519,0.4187,0.4015,0.3996,0.3601,0.3316,0.3143,0.2844,0.0,0.0,0.0,0.0,0.0,0.0,0.0,0.0,0.0,0.0,0.0,0.0,0.0,0.0,0.0,0.0,0.0,0.0,0.0,0.0,0.0,0.0,0.0,0.0,0.0,0.0,0.0,0.0,0.0,0.3229,0.3966,0.4086,0.4275,0.4379,0.0,0.0,0.0,0.0,0.0,0.0,0.0,0.0,0.0,0.4889,0.5015,0.5202,0.5339,0.5489,0.56,0.5666,0.5821,0.5863,0.5863,0.5863,0.5672,0.5414,0.5414,0.5262,0.4931,0.4853,0.466,0.4367,0.0,0.0,0.0,0.0,0.4216,0.4111,0.4183,0.4293,0.4348,0.4098,0.0,0.0,0.0,0.0,0.0,0.0,0.0,0.0,0.0,0.0,0.4813,0.4957,0.5036,0.506,0.5148,0.5169,0.5098,0.0,0.4897,0.4931,0.4685,0.0,0.0,0.0,0.0,0.5526,0.5004,0.5045,0.4973,0.4536,0.4519,0.4463,0.4356,0.4135,0.3965,0.391,0.3641,0.3504,0.3447,0.3076,0.2616,0.0,0.0,0.0,0.0,0.0,0.0,0.0,0.0,0.0,0.0,0.0,0.0,0.0,0.0,0.0,0.0,0.0,0.0,0.0,0.0,0.0,0.0,0.0,0.0,0.0,0.0,0.0,0.0,0.4056,0.446,0.4304,0.4632,0.4791,0.0,0.0,0.0,0.0,0.0,0.0,0.4855,0.5071,0.5234,0.5398,0.5501,0.5631,0.5653,0.5837,0.6008,0.6029,0.6155,0.628,0.628,0.628,0.6017,0.5683,0.5683,0.5487,0.5179,0.5033,0.4829,0.4671,0.4671,0.4607,0.4485,0.4522,0.4476,0.4371,0.4408,0.4565,0.4671,0.4385,0.4479,0.4687,0.4416,0.0,0.0,0.0,0.0,0.4667,0.4833,0.4902,0.4928,0.5098,0.5189,0.522,0.5338,0.5428,0.5353,0.0,0.5216,0.5281,0.5139,0.0,0.0,0.0,0.0,0.5767,0.5174,0.5214,0.5093,0.4594,0.4539,0.4408,0.4193,0.4079,0.3965,0.3796,0.3691,0.3585,0.3585,0.3222,0.2839,0.2499,0.0,0.0,0.0,0.0,0.0,0.0,0.0,0.0,0.0,0.0,0.0,0.0,0.0,0.0,0.0,0.0,0.0,0.0,0.0,0.0,0.0,0.0,0.0,0.0,0.0,0.0,0.0,0.0,0.0,0.4508,0.5006,0.0,0.0,0.0,0.0,0.5378,0.5378,0.5387,0.536,0.5647,0.587,0.5884,0.6394,0.6542,0.637,0.6523,0.6578,0.6404,0.6412,0.6416,0.6416,0.6416,0.6222,0.5888,0.5888,0.5686,0.5338,0.5182,0.4912,0.4671,0.4671,0.4607,0.4497,0.4568,0.468,0.4814,0.4504,0.4693,0.5001,0.468,0.4744,0.4874,0.4858,0.4699,0.0,0.0,0.4874,0.497,0.5304,0.5338,0.5342,0.5415,0.5415,0.5418,0.5425,0.5428,0.538,0.0,0.5262,0.5154,0.5182,0.0,0.5415,0.5404,0.584,0.6009,0.5472,0.5389,0.521,0.4752,0.4548,0.4408,0.4193,0.4079,0.3965,0.3796,0.3691,0.3585,0.3585,0.3294,0.3075,0.2973,0.2182,0.0,0.0,0.0,0.0,0.0,0.0,0.0,0.0,0.0,0.0,0.0,0.0,0.0,0.0,0.0,0.0,0.0,0.0,0.0,0.0,0.0,0.0,0.0,0.0,0.0,0.0,0.0,0.0,0.5097,0.5389,0.0,0.546,0.5519,0.5706,0.5917,0.5935,0.594,0.604,0.6171,0.6301,0.6436,0.6568,0.6714,0.6788,0.6859,0.683,0.6761,0.6761,0.6704,0.6599,0.6599,0.6391,0.6045,0.5937,0.5751,0.5498,0.5342,0.525,0.5138,0.5138,0.5135,0.5077,0.513,0.5081,0.5016,0.4885,0.495,0.5078,0.5081,0.515,0.5219,0.5219,0.5249,0.5206,0.5229,0.5289,0.5353,0.5372,0.5428,0.5428,0.5428,0.5428,0.5428,0.5428,0.5428,0.5477,0.5683,0.5538,0.542,0.5454,0.5619,0.5747,0.5747,0.586,0.5939,0.5626,0.5494,0.525,0.4853,0.4701,0.4495,0.4213,0.4073,0.3913,0.3691,0.3638,0.3585,0.3585,0.3413,0.3224,0.3075,0.2667,0.2015,0.0,0.0,0.0,0.0,0.0,0.0,0.0,0.0,0.0,0.0,0.0,0.0,0.0,0.0,0.0,0.0,0.0,0.0,0.0,0.0,0.0,0.0,0.0,0.0,0.0,0.0,0.5628,0.5619,0.5915,0.6073,0.5998,0.6056,0.6246,0.6472,0.6491,0.6495,0.6596,0.6603,0.6707,0.6842,0.7208,0.7252,0.7045,0.7326,0.7296,0.7023,0.7023,0.6962,0.6781,0.6781,0.6573,0.6212,0.6048,0.5866,0.5647,0.5443,0.5459,0.5433,0.5449,0.5428,0.5362,0.5292,0.5226,0.5223,0.5223,0.5156,0.5163,0.542,0.544,0.5447,0.5494,0.5583,0.564,0.5538,0.5549,0.5566,0.5464,0.5466,0.5428,0.5428,0.5428,0.5428,0.5428,0.5428,0.5509,0.5825,0.5722,0.565,0.5675,0.5853,0.5981,0.5788,0.5917,0.5917,0.5721,0.5485,0.529,0.4999,0.4797,0.451,0.4232,0.4086,0.3904,0.3641,0.3585,0.3585,0.3585,0.3413,0.3244,0.313,0.2871,0.2273,0.131,0.0,0.0,0.0,0.0,0.0,0.0,0.0,0.0,0.0,0.0,0.0,0.0,0.0,0.0,0.0,0.0,0.0,0.0,0.0,0.0,0.0,0.0,0.0,0.5235,0.5778,0.616,0.6039,0.6602,0.6887,0.6583,0.6788,0.7036,0.704,0.704,0.6973,0.6916,0.708,0.7238,0.7176,0.8169,0.8232,0.7236,0.7955,0.7929,0.704,0.704,0.7036,0.7023,0.7023,0.6805,0.6358,0.6275,0.6014,0.5772,0.5488,0.5457,0.5576,0.542,0.5428,0.5362,0.516,0.5233,0.5442,0.5442,0.5306,0.5192,0.5477,0.5596,0.5623,0.5759,0.5803,0.5806,0.5803,0.5705,0.5603,0.5596,0.5488,0.5442,0.5442,0.5442,0.5442,0.5442,0.5442,0.5483,0.5765,0.5738,0.5697,0.5903,0.6102,0.6094,0.569,0.5954,0.0,0.5683,0.5488,0.5336,0.5138,0.482,0.4499,0.425,0.4054,0.3883,0.3596,0.3585,0.3585,0.3585,0.3299,0.313,0.3074,0.2761,0.2353,0.1915,0.0,0.0,0.0,0.0,0.0,0.0,0.0,0.0,0.0,0.0,0.0,0.0,0.0,0.0,0.0,0.0,0.0,0.0,0.0,0.0,0.0,0.5666,0.5938,0.5938,0.6296,0.6583,0.672,0.6891,0.6985,0.6997,0.7123,0.72,0.733,0.7338,0.7358,0.7331,0.7411,0.7435,0.7407,0.7714,0.7689,0.7411,0.7635,0.761,0.7338,0.7338,0.7204,0.7023,0.7023,0.6808,0.6398,0.6098,0.5913,0.5773,0.5628,0.5552,0.5576,0.542,0.5428,0.5376,0.5416,0.5589,0.5681,0.5681,0.5677,0.5614,0.5728,0.5742,0.5749,0.5789,0.5878,0.5942,0.5833,0.5854,0.5884,0.5772,0.5711,0.5681,0.5681,0.5681,0.5681,0.5681,0.5681,0.5765,0.5951,0.6135,0.6172,0.6039,0.6316,0.6344,0.5809,0.5859,0.0,0.5631,0.5453,0.5367,0.5298,0.5037,0.4747,0.4519,0.4216,0.3917,0.3765,0.3629,0.3585,0.3585,0.3527,0.3357,0.313,0.2543,0.2116,0.0,0.0,0.0,0.0,0.0,0.0,0.0,0.0,0.0,0.0,0.0,0.0,0.0,0.0,0.0,0.0,0.0,0.0,0.0,0.0,0.0,0.0,0.6209,0.6527,0.6602,0.6768,0.6972,0.7155,0.7175,0.7216,0.7322,0.7334,0.7374,0.7476,0.7484,0.7484,0.7484,0.7484,0.7484,0.7484,0.7863,0.8016,0.8016,0.8232,0.8337,0.8337,0.818,0.8016,0.7792,0.7513,0.724,0.6921,0.6271,0.6021,0.5878,0.5614,0.5532,0.0,0.0,0.0,0.0,0.0,0.5732,0.58,0.58,0.58,0.5813,0.5878,0.5895,0.5908,0.5976,0.6054,0.6108,0.602,0.601,0.601,0.5922,0.5847,0.58,0.58,0.58,0.58,0.58,0.58,0.582,0.6033,0.619,0.0,0.6208,0.6404,0.6422,0.5895,0.5885,0.5828,0.5606,0.5521,0.5433,0.5435,0.515,0.488,0.4629,0.4359,0.0,0.0,0.0,0.3634,0.3527,0.3527,0.0,0.0,0.0,0.0,0.0,0.0,0.0,0.0,0.1735,0.1638,0.0,0.0,0.0,0.0,0.0,0.0,0.0,0.0,0.0,0.0,0.0,0.0,0.0,0.0,0.0,0.0,0.6688,0.7045,0.7228,0.7257,0.7313,0.7464,0.7484,0.7484,0.7484,0.7484,0.7484,0.7484,0.7484,0.7484,0.7484,0.0,0.0,0.0,0.0,0.8656,0.8633,0.9175,0.943,0.943,0.908,0.8899,0.8803,0.8178,0.7751,0.7509,0.6591,0.6128,0.6026,0.5627,0.5477,0.5623,0.5715,0.5772,0.58,0.58,0.5823,0.5854,0.5854,0.0,0.0,0.6013,0.6057,0.6081,0.622,0.6338,0.6338,0.6338,0.6162,0.6057,0.6057,0.5956,0.5854,0.5854,0.5854,0.5854,0.5854,0.5854,0.5891,0.603,0.62,0.6317,0.6314,0.6485,0.6429,0.5902,0.5978,0.5994,0.5633,0.5599,0.5538,0.5403,0.0,0.0,0.4656,0.4513,0.4264,0.3963,0.3841,0.3729,0.3455,0.3452,0.3283,0.2949,0.2949,0.2934,0.2842,0.2842,0.2885,0.2962,0.2033,0.2009,0.0,0.0,0.0,0.0,0.0,0.0,0.0,0.0,0.0,0.0,0.0,0.0,0.0,0.0,0.0,0.6781,0.7029,0.7232,0.7407,0.7435,0.7447,0.748,0.7484,0.7484,0.7484,0.7484,0.7484,0.7484,0.7484,0.7484,0.7484,0.7484,0.7419,0.7281,0.8013,0.8299,0.8126,0.8791,0.9119,0.9113,0.0,0.0,0.7898,0.7289,0.6865,0.6651,0.6152,0.5959,0.5925,0.5655,0.563,0.5739,0.5528,0.5593,0.58,0.58,0.5959,0.6173,0.6173,0.6173,0.6176,0.6207,0.6217,0.622,0.6251,0.6338,0.0,0.6338,0.624,0.6217,0.6217,0.6193,0.6173,0.6173,0.6173,0.6173,0.6173,0.6173,0.6183,0.621,0.644,0.6528,0.6331,0.6437,0.6428,0.6003,0.5986,0.5932,0.5779,0.5661,0.5579,0.5549,0.5295,0.5011,0.4794,0.4567,0.4304,0.4083,0.3966,0.3829,0.3805,0.3805,0.3628,0.3329,0.3329,0.3218,0.299,0.299,0.2977,0.306,0.2934,0.3015,0.0,0.0,0.0,0.0,0.0,0.0,0.0,0.0,0.0,0.0,0.0,0.5373,0.5832,0.0,0.6565,0.7045,0.7236,0.7354,0.7354,0.7354,0.7354,0.7354,0.7354,0.7317,0.7224,0.7216,0.7216,0.7216,0.7216,0.7364,0.7725,0.7891,0.8049,0.8318,0.8314,0.8534,0.8963,0.8564,0.8597,0.9125,0.8543,0.8178,0.8077,0.7417,0.6963,0.6736,0.6152,0.5822,0.576,0.5578,0.5518,0.5569,0.542,0.5542,0.58,0.58,0.5949,0.6146,0.6146,0.6196,0.6338,0.6338,0.6338,0.6338,0.6338,0.6338,0.6338,0.6338,0.6338,0.6338,0.6338,0.6338,0.6338,0.6338,0.6338,0.6338,0.6338,0.6338,0.6338,0.6338,0.6412,0.6412,0.6338,0.6412,0.6384,0.6156,0.6146,0.6091,0.5935,0.5854,0.5752,0.5606,0.545,0.5171,0.4837,0.4506,0.4248,0.4121,0.4061,0.3998,0.3875,0.3872,0.3753,0.3388,0.3388,0.3288,0.3022,0.3022,0.3134,0.3292,0.3486,0.3589,0.0,0.0,0.0,0.0,0.0,0.0,0.0,0.0,0.4821,0.5099,0.5378,0.5749,0.6252,0.6631,0.6925,0.717,0.7366,0.7382,0.7244,0.7196,0.7159,0.7127,0.7151,0.7114,0.704,0.7023,0.704,0.7005,0.7216,0.7431,0.7851,0.8257,0.8626,0.8974,0.8578,0.8808,0.976,0.8709,0.8648,0.9546,0.9009,0.8727,0.8683,0.7972,0.7517,0.7312,0.6474,0.5885,0.555,0.5425,0.5428,0.5428,0.5428,0.5508,0.5718,0.5749,0.5874,0.603,0.603,0.6132,0.6338,0.6338,0.6338,0.6338,0.6338,0.6338,0.6338,0.6338,0.6338,0.6338,0.6338,0.6338,0.6338,0.6338,0.6338,0.6338,0.6338,0.6338,0.6338,0.6338,0.6338,0.6338,0.6338,0.6338,0.6338,0.6338,0.6338,0.6217,0.6091,0.6047,0.5939,0.5701,0.5647,0.5431,0.4879,0.4512,0.4259,0.4159,0.4153,0.411,0.4009,0.4028,0.3851,0.3477,0.3477,0.3389,0.3207,0.3142,0.3315,0.3594,0.383,0.3892,0.379,0.415,0.4519,0.4793,0.4938,0.5159,0.0,0.0,0.5579,0.5888,0.6142,0.6422,0.683,0.7032,0.7178,0.7423,0.7342,0.7248,0.7228,0.7086,0.6928,0.6773,0.6891,0.7048,0.7027,0.7023,0.7021,0.7183,0.7841,0.7983,0.7339,0.8182,0.8272,0.7275,0.7934,0.8602,0.9281,0.9695,1.0238,1.077,1.017,0.9682,0.939,0.849,0.8102,0.8037,0.7064,0.6148,0.5428,0.5428,0.5428,0.5428,0.5428,0.5449,0.5426,0.5562,0.5789,0.603,0.603,0.6132,0.6338,0.6338,0.6338,0.6338,0.6338,0.6338,0.6338,0.6338,0.6338,0.6338,0.6338,0.6338,0.6338,0.6338,0.6338,0.6338,0.6338,0.6338,0.6338,0.6338,0.6338,0.6338,0.6338,0.6338,0.6338,0.6338,0.6338,0.6254,0.6237,0.6115,0.6017,0.5983,0.5861,0.5573,0.508,0.4628,0.4295,0.4281,0.4278,0.4273,0.4259,0.4357,0.4275,0.3863,0.3863,0.373,0.3533,0.3399,0.3546,0.3834,0.4008,0.4075,0.4227,0.4507,0.4769,0.0,0.5269,0.5447,0.5637,0.5633,0.5724,0.6106,0.6375,0.6648,0.704,0.7143,0.7248,0.0,0.7183,0.7029,0.692,0.6846,0.6737,0.6554,0.6692,0.6969,0.726,0.6912,0.6854,0.746,0.7465,0.7513,0.7627,0.818,0.8729,0.9124,0.9067,0.9426,1.0271,0.9902,0.9916,1.0166,0.9806,0.9462,0.9151,0.8761,0.8422,0.8042,0.7579,0.6899,0.6101,0.6264,0.6029,0.5616,0.5616,0.5616,0.5613,0.5596,0.5722,0.5911,0.5996,0.6132,0.6338,0.6338,0.6338,0.6338,0.6338,0.6338,0.6338,0.6338,0.6338,0.6338,0.6338,0.6338,0.6338,0.6338,0.6338,0.6338,0.6338,0.6338,0.6338,0.6338,0.6338,0.6338,0.6338,0.6338,0.6338,0.6338,0.6338,0.6338,0.6338,0.6203,0.6129,0.6037,0.5749,0.5493,0.5219,0.4886,0.4647,0.4574,0.4504,0.4504,0.4504,0.4621,0.4504,0.4219,0.408,0.4011,0.3866,0.3723,0.3795,0.4222,0.4335,0.4436,0.4454,0.0,0.0,0.5366,0.5596,0.5722,0.5766,0.5742,0.5854,0.6332,0.6541,0.6685,0.7155,0.7198,0.7151,0.7151,0.7001,0.6834,0.67,0.6643,0.657,0.6436,0.6538,0.6852,0.7489,0.6936,0.6844,0.7516,0.7311,0.7372,0.7727,0.8427,0.9175,1.0064,0.9834,1.0171,1.1111,1.0292,1.0022,1.0202,1.016,0.9933,0.9614,0.9344,0.8778,0.8092,0.7777,0.7155,0.641,0.66,0.6297,0.58,0.58,0.5943,0.6147,0.6082,0.5987,0.5881,0.5989,0.6132,0.6338,0.6338,0.6338,0.6338,0.6338,0.6338,0.6338,0.6338,0.6338,0.6338,0.6338,0.6338,0.6338,0.6338,0.6338,0.6338,0.6338,0.6338,0.6338,0.6338,0.6338,0.6338,0.6338,0.6338,0.6338,0.6338,0.6338,0.6338,0.6338,0.6338,0.6217,0.6105,0.5811,0.5504,0.5283,0.511,0.4945,0.4726,0.4726,0.4726,0.4726,0.4686,0.4627,0.4405,0.4337,0.4264,0.4191,0.4045,0.4115,0.4483,0.4597,0.473,0.0,0.0,0.5023,0.5644,0.5901,0.6057,0.6207,0.6125,0.6132,0.6747,0.6604,0.658,0.7126,0.7086,0.7032,0.7032,0.6814,0.67,0.6696,0.6542,0.6424,0.642,0.6424,0.6755,0.0,0.7255,0.7013,0.7196,0.7928,0.8006,0.729,0.8866,0.9404,0.8534,0.9394,1.0265,1.1111,1.1099,1.1328,1.1799,1.1857,1.1627,1.1273,1.0384,0.9399,0.8338,0.7566,0.6718,0.5796,0.58,0.58,0.58,0.58,0.6297,0.6952,0.7127,0.6678,0.6023,0.6027,0.6132,0.6338,0.6338,0.6338,0.6338,0.6338,0.6338,0.6338,0.6338,0.6338,0.6338,0.6338,0.6338,0.6338,0.6338,0.6338,0.6338,0.6338,0.6338,0.6338,0.6338,0.6338,0.6338,0.6338,0.6338,0.6338,0.6338,0.6338,0.6338,0.6338,0.6338,0.6335,0.6254,0.596,0.5722,0.5504,0.5164,0.4945,0.4726,0.4726,0.4726,0.4726,0.4765,0.4678,0.4523,0.4525,0.4525,0.4523,0.438,0.4458,0.4755,0.4719,0.4774,0.4449,0.0,0.5281,0.5606,0.5992,0.6196,0.6247,0.6142,0.6119,0.6618,0.6533,0.6539,0.6961,0.6899,0.6781,0.6781,0.6631,0.6513,0.6513,0.6562,0.6558,0.6432,0.7207,0.0,0.0,0.0,0.0,0.8651,0.8529,0.8586,0.8956,0.9552,1.0013,1.0159,1.0536,1.1105,1.1855,1.1929,1.1957,1.2151,1.1964,1.1746,1.1499,1.0893,1.0321,0.984,0.9647,0.8707,0.7483,0.7616,0.7072,0.6108,0.6108,0.6331,0.6561,0.6616,0.6409,0.6332,0.7391,0.7808,0.7863,0.7863,0.7561,0.7103,0.7103,0.6718,0.6338,0.6338,0.6338,0.6338,0.6338,0.6338,0.6338,0.6338,0.6338,0.6338,0.6338,0.6338,0.6338,0.6338,0.6338,0.6338,0.6338,0.6338,0.6338,0.6338,0.6338,0.6338,0.6338,0.6338,0.6338,0.6338,0.6213,0.595,0.557,0.5451,0.5275,0.4893,0.4896,0.4896,0.4896,0.4934,0.4878,0.4799,0.4719,0.4719,0.4799,0.4645,0.4722,0.4955,0.4919,0.4937,0.4628,0.5029,0.5331,0.5615,0.599,0.6247,0.6193,0.6101,0.6119,0.6625,0.6533,0.652,0.6952,0.6863,0.6765,0.6708,0.6647,0.6607,0.6607,0.6712,0.6879,0.7026,0.7822,0.8394,0.0,0.0,0.0,0.9569,0.9227,0.9214,0.9884,1.0196,1.0576,1.1111,1.1409,1.1781,1.2298,1.2305,1.2305,1.2298,1.2118,1.1952,1.1729,1.1119,1.0753,1.0402,1.0204,0.9453,0.8426,0.8642,0.8093,0.7099,0.6872,0.6872,0.7099,0.6795,0.6872,0.7253,0.8016,0.8246,0.8322,0.8623,0.8322,0.794,0.794,0.733,0.6718,0.6718,0.6718,0.6718,0.6718,0.6949,0.7099,0.6799,0.6718,0.6644,0.6338,0.6338,0.6338,0.6338,0.6567,0.6718,0.6718,0.6718,0.6718,0.6718,0.649,0.6338,0.6338,0.6338,0.6338,0.6338,0.6338,0.6106,0.5637,0.5637,0.5404,0.5018,0.5018,0.5018,0.5018,0.5018,0.5018,0.5018,0.4859,0.4859,0.5018,0.4859,0.4859,0.5018,0.5018,0.5018,0.4873,0.5162,0.5412,0.5615,0.5983,0.6213,0.6071,0.6034,0.6143,0.6732,0.6585,0.6504,0.0,0.0,0.6887,0.6721,0.6842,0.7023,0.7023,0.7032,0.7317,0.0,0.0,0.0,0.0,0.0,0.0,1.0029,0.0,0.997,1.004,1.0726,1.1186,1.1186,1.1929,1.2305,1.2305,1.2305,1.2305,1.2305,1.2305,1.2157,1.2003,1.1186,1.0663,1.0218,0.9453,0.9003,0.8775,0.8775,0.8703,0.8627,0.7863,0.8016,0.8623,0.7863,0.8016,0.8627,0.7787,0.7557,0.771,0.8475,0.8699,0.8703,0.878,0.8169,0.7557,0.7557,0.7557,0.7557,0.7557,0.8093,0.8475,0.771,0.7557,0.733,0.6567,0.6416,0.6338,0.6338,0.6949,0.7484,0.7484,0.7484,0.7407,0.7407,0.6799,0.6338,0.6338,0.6338,0.6338,0.6338,0.6338,0.6106,0.5637,0.5637,0.5404,0.5015,0.5018,0.5018,0.5018,0.5018,0.5018,0.5018,0.5018,0.5018,0.5018,0.5018,0.5018,0.5018,0.5018,0.5018,0.4784,0.5153,0.5603,0.5715,0.5904,0.6108,0.6183,0.6112,0.6084,0.6229,0.6126,0.6018,0.0,0.0,0.0,0.67,0.6842,0.0,0.7023,0.7636,0.0,0.8174,0.0,1.0414,1.0497,1.118,0.0,0.0,1.1099,1.1031,1.1626,1.1855,1.2003,1.2003,1.2157,1.2305,1.2305,1.2305,1.2305,1.2305,1.2305,1.2157,1.2003,1.1632,1.1335,1.1037,1.0732,1.0212,0.9614,0.9614,0.9236,0.8703,0.8475,0.8551,0.8703,0.8475,0.8546,0.8703,0.8475,0.8399,0.8546,0.9311,0.916,0.8775,0.9387,0.9008,0.8399,0.8399,0.8399,0.8399,0.8399,0.8551,0.8623,0.847,0.8399,0.8322,0.8169,0.7633,0.718,0.718,0.6872,0.6799,0.7407,0.7026,0.6644,0.6644,0.6416,0.6338,0.6338,0.6338,0.6338,0.6338,0.6338,0.618,0.5864,0.5712,0.5482,0.5243,0.5093,0.5018,0.5018,0.5018,0.5018,0.5018,0.5018,0.5018,0.5018,0.5018,0.5018,0.5018,0.5018,0.5018,0.4991,0.531,0.5693,0.557,0.5782,0.602,0.5976,0.6,0.5986,0.6057,0.6093,0.0,0.6293,0.6537,0.6754,0.0,0.0,0.0,0.7699,0.8231,0.8773,0.0,1.0415,0.0,1.1405,1.1978,1.2358,0.0,1.1926,1.1855,1.2305,1.2305,1.2305,1.2305,1.2305,1.2305,1.2305,1.2305,1.2305,1.2305,1.2224,1.2077,1.1855,1.1632,1.1484,1.126,1.1186,1.0812,1.0438,1.0438,1.0137,0.9755,0.9382,0.9236,0.916,0.8856,0.8703,0.8703,0.8703,0.8703,0.8775,0.9236,0.9311,0.9311,0.9765,0.9614,0.9236,0.9236,0.9236,0.9236,0.9236,0.9458,0.9679,0.9306,0.9236,0.916,0.878,0.8322,0.8169,0.847,0.8169,0.8165,0.8922,0.8394,0.7787,0.7407,0.7026,0.6721,0.6338,0.6338,0.6338,0.6338,0.6338,0.618,0.5941,0.5712,0.5479,0.5321,0.509,0.5018,0.5018,0.5018,0.5018,0.5018,0.5018,0.5018,0.5018,0.5018,0.5018,0.5018,0.5018,0.5018,0.5405,0.5538,0.5609,0.5367,0.5649,0.5932,0.5677,0.583,0.5983,0.6032,0.0,0.6294,0.6337,0.6785,0.7037,0.6976,0.0,0.7833,0.847,0.8699,0.9377,1.0732,1.1037,1.1409,1.2231,1.2305,1.2425,1.2802,1.2505,1.2378,1.2425,1.2385,1.2365,1.2365,1.2365,1.2365,1.2365,1.2318,1.2305,1.2305,1.2077,1.1929,1.1706,1.1484,1.1335,1.1111,1.1111,1.1111,1.1111,1.1111,1.1111,1.1037,1.0293,1.0067,0.9992,0.9306,0.9003,0.9003,0.8932,0.8856,0.8856,0.8856,0.9311,0.9916,0.9992,1.0067,1.0067,1.0067,1.0067,1.0067,1.0067,1.0588,1.0887,1.0218,1.0067,0.9841,0.9155,0.8932,0.9084,0.9765,0.9841,0.9992,1.0812,1.0212,0.9387,0.878,0.794,0.7099,0.6567,0.6338,0.6338,0.6338,0.6338,0.618,0.5941,0.5789,0.5556,0.5321,0.5168,0.5015,0.5018,0.5018,0.5018,0.5018,0.5018,0.5018,0.5018,0.5018,0.5018,0.5018,0.5018,0.5018,0.5485,0.5545,0.558,0.553,0.5715,0.5827,0.5776,0.5901,0.0,0.0,0.5832,0.5917,0.5963,0.6294,0.6604,0.6936,0.7702,0.8123,0.7766,0.8841,0.982,0.0,1.0732,1.1409,1.2231,1.2305,0.0,0.0,1.2775,1.2786,1.3039,1.2806,1.2741,1.2741,1.2741,1.2741,1.2741,1.2425,1.2305,1.2305,1.2077,1.2003,1.1929,1.1558,1.1409,1.1335,1.1186,0.0,1.1111,1.1111,1.1111,1.1111,1.0962,1.0887,1.0887,1.0738,1.0657,1.0582,0.9916,0.969,0.969,0.969,0.9765,0.9992,1.0663,1.0887,1.0887,1.0887,1.0887,1.0887,1.0887,1.1037,1.1037,1.0962,1.0887,1.0887,1.0732,1.0137,0.9765,0.9846,0.9387,0.916,0.9992,0.8927,0.8093,0.8627,0.7484,0.6721,0.7253,0.6721,0.6338,0.6338,0.6338,0.6261,0.6257,0.6022,0.5786,0.5559,0.5323,0.5168,0.5018,0.5018,0.5018,0.5018,0.5018,0.5018,0.5018,0.5018,0.5018,0.5018,0.5018,0.5018,0.5702,0.5681,0.5681,0.5606,0.5694,0.5783,0.5708,0.0,0.0,0.0,0.5599,0.5709,0.5903,0.6158,0.0,0.6794,0.7593,0.8147,0.7983,0.9347,1.0359,1.0484,1.1383,1.2097,0.0,1.2585,1.2832,1.2979,1.3126,1.3213,1.3213,1.3066,1.2986,1.2986,1.2986,1.2913,1.2822,1.2766,1.2612,1.2305,1.2391,1.2311,1.2011,1.179,1.1563,1.1474,1.1172,1.1111,1.1111,1.1111,1.1111,1.1111,1.1111,1.1111,1.1111,1.1111,1.1111,1.1037,1.0663,1.0513,1.0513,1.0513,1.0218,0.9997,1.0368,1.0738,1.1111,1.1111,1.1111,1.1111,1.1111,1.1111,1.1111,1.1111,1.1111,1.1111,1.1111,1.0812,1.0513,1.0513,1.0212,1.0062,1.0438,0.9906,0.9377,0.9311,0.8703,0.8016,0.7561,0.7176,0.6795,0.6338,0.6338,0.6338,0.6338,0.6022,0.5786,0.5637,0.5401,0.5246,0.5018,0.5018,0.5018,0.5018,0.5018,0.5018,0.5018,0.5018,0.5018,0.5018,0.5018,0.5093,0.5915,0.5827,0.5776,0.5664,0.5742,0.5803,0.563,0.5698,0.0,0.0,0.5557,0.5686,0.5888,0.6194,0.6431,0.0,0.7451,0.8093,0.8194,0.9595,1.0683,0.0,1.1928,0.0,1.2518,1.2933,0.0,1.33,1.3574,1.3614,1.332,1.336,1.3373,1.3307,1.3307,1.3186,1.2939,1.312,1.2973,1.2423,1.2746,1.2615,1.2079,1.193,1.1744,1.1516,1.1298,1.1166,1.1111,1.1111,1.1111,1.1111,1.1111,1.1111,1.1111,1.1111,1.1111,1.1111,1.1111,1.1111,1.1111,1.1111,1.0663,1.0143,1.0143,1.0594,1.1111,1.1111,1.1111,1.1111,1.1111,1.1111,1.1111,1.1111,1.1111,1.1111,1.1111,1.1111,1.1111,1.1111,1.1111,1.1111,1.1111,1.0962,1.0663,1.0218,0.9841,0.916,0.794,0.7633,0.7176,0.6416,0.6338,0.6338,0.6338,0.6099,0.5864,0.5715,0.5479,0.5246,0.5093,0.5015,0.5018,0.5018,0.5018,0.5018,0.5018,0.5018,0.5018,0.5018,0.5015,0.5168,0.6017,0.5908,0.5796,0.5786,0.5895,0.5935,0.5654,0.0,0.0,0.5423,0.5627,0.5888,0.5888,0.6168,0.6493,0.6652,0.0,0.8006,0.7635,0.9202,1.0423,1.0594,0.0,0.0,1.3048,1.318,1.332,1.3499,1.3881,1.3915,1.3621,1.3861,1.3881,1.3614,1.3519,1.3587,1.3561,1.3327,1.3101,1.2811,1.2705,1.2473,1.2203,1.1964,1.1757,1.1534,1.1504,1.1347,0.0,1.1111,1.1111,1.1111,1.1111,1.1111,1.1111,1.1111,1.1111,1.1111,1.1111,1.1111,1.1111,1.1111,1.1037,1.0962,1.0962,1.1037,1.1111,1.1111,1.1111,1.1111,1.1111,1.1111,1.1111,1.1111,1.1111,1.1111,1.1111,1.1111,1.1111,1.1111,1.1111,1.1111,1.1111,1.0513,1.0218,1.0887,0.9755,0.878,0.8623,0.794,0.7176,0.6416,0.6338,0.6338,0.6338,0.6261,0.618,0.5864,0.5712,0.5479,0.5243,0.5093,0.5018,0.5018,0.5018,0.5018,0.5018,0.5018,0.5018,0.5018,0.5168,0.5243,0.603,0.5986,0.5939,0.5939,0.5983,0.5976,0.5766,0.0,0.5715,0.555,0.562,0.5818,0.6017,0.6214,0.634,0.6656,0.7362,0.776,0.7352,0.8836,1.0049,1.0358,1.1462,0.0,0.0,0.0,1.3788,1.3901,1.4021,1.4035,1.3915,1.4021,1.4035,1.3915,1.3908,1.3821,1.3559,1.3536,1.331,1.2896,1.299,1.2896,1.24,1.2406,1.2178,1.1757,1.16,1.1371,0.0,1.1111,1.1111,1.1111,1.1111,1.1111,1.1111,1.1111,1.1111,1.1111,1.1111,1.1111,1.1111,1.1111,1.1111,1.1111,1.1111,1.1111,1.1111,1.1111,1.1111,1.1111,1.1111,1.1111,1.1111,1.1111,1.1111,1.1111,1.1111,1.1111,1.1111,1.1111,1.1111,1.1111,1.1111,1.0812,1.0738,1.1037,1.0137,0.9236,0.8775,0.8016,0.7176,0.6416,0.6338,0.6338,0.6338,0.6338,0.618,0.5941,0.5786,0.5712,0.5479,0.5323,0.5168,0.5168,0.5093,0.5018,0.5018,0.5093,0.5168,0.5168,0.5401,0.5556,0.603,0.6064,0.6098,0.6098,0.6098,0.6047,0.0,0.5875,0.586,0.5614,0.5683,0.5881,0.6145,0.6214,0.6324,0.0,0.7108,0.7451,0.7327,0.8637,0.9834,1.0525,0.0,1.2692,0.0,1.3841,1.4088,1.4088,1.4088,1.4088,1.4088,1.4088,1.4088,1.4088,1.4088,1.3988,1.3774,1.3807,1.3535,1.3063,1.3297,1.3121,1.2594,1.2683,1.241,1.1914,1.1727,1.1443,0.0,1.1111,1.1111,1.1111,1.1111,1.1111,1.1111,1.1111,1.1111,1.1111,1.1111,1.1111,1.1111,1.1111,1.1111,1.1111,1.1111,1.1111,1.1111,1.1111,1.1111,1.1111,1.1111,1.1111,1.1111,1.1111,1.1111,1.1111,1.1111,1.1111,1.1111,1.1111,1.1111,1.1111,1.1111,1.1111,1.1111,1.1111,1.0588,0.9992,0.9155,0.8322,0.7561,0.6721,0.6412,0.6338,0.6338,0.6338,0.618,0.6022,0.5941,0.5864,0.5712,0.5479,0.5398,0.5398,0.5249,0.5171,0.5171,0.5323,0.5398,0.5401,0.5556,0.5789,0.603,0.6142,0.6257,0.6257,0.6257,0.6179,0.0,0.595,0.6008,0.5681,0.5947,0.621,0.621,0.6284,0.642,0.642,0.6717,0.7146,0.7431,0.8568,0.9868,0.0,0.0,1.3045,1.399,1.4082,1.4088,1.4088,1.4088,0.0,1.4088,1.4088,1.4088,1.4088,1.4088,1.4088,1.4082,1.4088,1.3828,1.3385,1.3392,1.3137,1.2699,1.2699,1.2415,1.192,1.192,1.1612,0.0,1.1111,1.1111,1.1111,1.1111,1.1111,1.1111,1.1111,1.1111,1.1111,1.1111,1.1111,1.1111,1.1111,1.1111,1.1111,1.1111,1.1111,1.1111,1.1111,1.1111,1.1111,1.1111,1.1111,1.1111,1.1111,1.1111,1.1111,1.1111,1.1111,1.1111,1.1111,1.1111,1.1111,1.1111,1.1111,1.1111,1.1111,1.1111,1.0812,0.9992,0.916,0.8399,0.7557,0.6795,0.6338,0.6338,0.6338,0.6261,0.6261,0.6022,0.5864,0.5864,0.5712,0.5559,0.5559,0.5559,0.5559,0.5559,0.5559,0.5559,0.5637,0.5786,0.6022,0.582,0.5908,0.5945,0.5945,0.5945,0.5895,0.5701,0.5727,0.5741,0.58,0.5888,0.6086,0.6284,0.635,0.6578,0.7066,0.724,0.0,0.7967,0.0,0.0,1.1011,1.259,1.3737,0.0,0.0,1.4088,1.4088,1.4088,1.4088,1.4088,1.4088,1.4088,1.4088,1.4088,1.4088,1.4088,1.3913,1.3737,1.3568,1.3483,1.3222,1.2966,1.2966,1.2588,1.192,1.192,1.1612,1.1111,1.1111,1.1111,1.1111,1.1111,1.1111,1.1111,1.1111,1.1111,1.1111,1.1111,1.1111,1.1111,1.1111,1.1111,1.1111,1.1111,1.1111,1.1111,1.1111,1.1111,1.1111,1.1111,1.1111,1.1111,1.1111,1.1111,1.1111,1.1111,1.1111,1.1111,1.1111,1.1111,1.1111,1.1111,1.1111,1.1111,1.1111,1.0663,0.9986,0.916,0.8399,0.7557,0.6795,0.6412,0.6338,0.6338,0.6338,0.6338,0.6338,0.6257,0.618,0.618,0.5944,0.5786,0.5786,0.5637,0.5637,0.5637,0.5712,0.5867,0.6106,0.618,0.618,0.0,0.5718,0.58,0.58,0.58,0.5766,0.5623,0.5728,0.5819,0.5859,0.602,0.6156,0.6354,0.642,0.6587,0.7102,0.7297,0.7729,0.0,0.0,0.0,1.1679,0.0,0.0,0.0,1.4088,1.4088,1.4088,1.4088,1.4088,1.4088,1.4088,1.4088,1.4088,1.4088,1.4088,1.4088,1.3913,1.3822,1.3737,1.3483,1.3313,1.3137,1.2966,1.2643,1.2071,1.2071,1.1769,0.0,1.1268,1.1208,1.1111,1.1111,1.1111,1.1111,1.1111,1.1111,1.1111,1.1111,1.1111,1.1111,1.1111,1.1111,1.1111,1.1111,1.1111,1.1111,1.1111,1.1111,1.1111,1.1111,1.1111,1.1111,1.1111,1.1111,1.1111,1.1111,1.1111,1.1111,1.1111,1.1111,1.1111,1.1111,1.1111,1.1111,1.1111,1.0663,1.0062,0.9236,0.847,0.7633,0.6872,0.649,0.6338,0.6338,0.6338,0.6338,0.6338,0.6338,0.6338,0.6338,0.618,0.6022,0.6022,0.5948,0.587,0.587,0.6022,0.6103,0.6338,0.6338,0.6338,0.0,0.5521,0.5742,0.5752,0.5752,0.5722,0.5599,0.5848,0.0,0.5922,0.6152,0.6428,0.6453,0.6444,0.6513,0.6749,0.7066,0.7842,0.0,1.003,0.0,0.0,1.3735,0.0,1.4088,1.4088,1.4088,1.4088,1.4088,1.4088,1.4088,1.4088,1.4088,1.4088,1.4088,1.4088,1.4088,1.4088,1.3997,1.3737,1.3476,1.3307,1.3052,1.2875,1.256,0.0,1.2312,1.2029,1.1558,1.154,1.1377,1.1141,1.1117,1.1111,1.1111,1.1111,1.1111,1.1111,1.1111,1.1111,1.1111,1.1111,1.1111,1.1111,1.1111,1.1111,1.1111,1.1111,1.1111,1.1111,1.1111,1.1111,1.1111,1.1111,1.1111,1.1111,1.1111,1.1111,1.1111,1.1111,1.1111,1.1111,1.1111,1.1111,1.1111,1.1111,1.1037,1.0738,0.9916,0.9084,0.8322,0.7484,0.6721,0.6338,0.6338,0.6338,0.6338,0.6338,0.6338,0.6338,0.6338,0.6338,0.6338,0.6338,0.6338,0.6338,0.6338,0.6338,0.6338,0.6338,0.6338,0.6338,0.4819,0.0,0.5152,0.526,0.5287,0.5308,0.0,0.5673,0.5796,0.609,0.0,0.6364,0.6777,0.6721,0.6867,0.7586,0.7772,0.8294,0.9648,0.0,0.0,1.4041,1.4091,1.4088,1.4088,1.4088,1.4088,1.4088,1.4088,1.4088,1.4088,1.4088,1.4088,1.4088,1.4088,1.4088,1.4088,1.4088,1.3997,1.3737,1.3652,1.3483,1.3137,1.3052,1.2734,1.2312,1.2312,1.2131,1.1817,1.1612,1.1492,1.1413,1.1196,1.1111,1.1111,1.1111,1.1111,1.1111,1.1111,1.1111,1.1111,1.1111,1.1111,1.1111,1.1111,1.1111,1.1111,1.1111,1.1111,1.1111,1.1111,1.1111,1.1111,1.1111,1.1111,1.1111,1.1111,1.1111,1.1111,1.1111,1.1111,1.1111,1.1111,1.1111,1.1111,1.1111,1.0588,0.9911,0.9079,0.8246,0.7484,0.6644,0.6416,0.6338,0.6338,0.6338,0.6338,0.6338,0.6338,0.6338,0.6338,0.6338,0.6338,0.6338,0.6338,0.6338,0.6338,0.6338,0.6338,0.6338,0.6338,0.6338,0.4585,0.4796,0.505,0.5199,0.5237,0.5339,0.5621,0.0,0.0,0.0,0.0,0.6435,0.6781,0.7168,0.752,0.7741,0.8626,0.0,0.0,0.0,1.396,1.4429,1.4262,1.4088,0.0,1.4088,1.4088,1.4088,1.4088,1.4088,1.4088,1.4088,1.4088,1.4088,1.4088,1.4088,1.4088,1.4088,1.4004,1.3906,1.3652,1.3476,1.3228,1.3052,1.2802,1.2493,1.2493,1.2343,1.2083,1.1817,1.1636,1.1504,1.122,1.1111,1.1111,1.1111,1.1111,1.1111,1.1111,1.1111,1.1111,1.1111,1.1111,1.1111,1.1111,1.1111,1.1037,1.0663,1.0513,1.0513,1.0513,1.0513,1.0663,1.1037,1.1111,1.1111,1.1111,1.1111,1.1148,1.128,1.1196,1.1154,1.128,1.1196,1.1111,1.1111,1.0738,1.0137,0.9387,0.8551,0.7863,0.7484,0.6721,0.6412,0.6795,0.649,0.6338,0.6338,0.6338,0.6338,0.6338,0.6338,0.6338,0.6338,0.6338,0.6338,0.6338,0.6338,0.6338,0.6338,0.6338,0.6338,0.4629,0.4886,0.5219,0.5332,0.5377,0.5498,0.5784,0.0,0.0,0.0,0.0,0.0,0.0,0.7659,0.0,0.0,0.0,0.0,1.2913,1.4192,1.4783,1.4489,1.4242,0.0,1.4088,1.4088,1.4088,1.4088,1.4088,1.4088,1.4088,1.4088,1.4088,1.4088,1.4088,1.4088,1.4088,1.4088,1.4088,1.4004,1.3652,1.3398,1.3313,1.296,1.2705,1.2705,1.2705,0.0,1.2355,1.2089,1.1854,1.1624,1.1347,1.1214,1.1178,1.1178,1.1148,1.1111,1.1111,1.1111,1.1111,1.1111,1.1111,1.1111,1.1111,1.1111,1.0962,1.0143,0.9992,1.0067,1.0067,1.0067,1.0304,1.1016,1.1178,1.1184,1.1226,1.1232,1.1304,1.1546,1.1401,1.131,1.1552,1.1395,1.1232,1.1232,1.1081,1.0779,1.01,0.9153,0.8598,0.8598,0.7192,0.6567,0.7253,0.6721,0.6349,0.6291,0.6274,0.6338,0.6338,0.6338,0.6338,0.6338,0.6338,0.6338,0.6338,0.6338,0.6338,0.6338,0.6338,0.6274,0.5192,0.5417,0.5549,0.5315,0.545,0.5721,0.6083,0.0,0.0,0.0,0.0,0.0,0.0,0.8196,0.8511,0.0,0.0,1.2946,0.0,0.0,1.4482,1.4188,0.0,1.4088,1.4088,1.4088,1.4088,1.4088,1.4088,1.4088,1.4088,1.4088,1.4088,1.4088,1.4088,1.4088,1.4088,1.4088,1.3997,1.3737,1.3652,1.3476,1.3143,1.3052,1.2881,1.2705,0.0,1.2681,1.262,1.2361,1.2228,1.2168,1.1902,1.1661,1.1467,1.1467,1.1317,1.1111,1.1111,1.1111,1.1111,1.1111,1.1111,1.1111,1.1111,1.1111,1.0962,1.0143,1.0368,1.0887,1.0887,1.0887,1.1022,1.133,1.1467,1.1528,1.1751,1.1799,1.1811,1.1854,1.183,1.1811,1.1854,1.1823,1.1799,1.1799,1.1232,1.0748,1.0589,0.9067,0.8019,0.8019,0.6954,0.6338,0.6493,0.6338,0.6312,0.643,0.6329,0.6338,0.6338,0.6338,0.6338,0.6338,0.6338,0.6338,0.6338,0.6338,0.6338,0.6338,0.6338,0.6325,0.5087,0.5434,0.5697,0.5589,0.5853,0.6128,0.6341,0.0,0.0,0.0,0.0,0.0,0.0,0.0,1.0466,1.2994,0.0,1.3693,1.3849,1.4386,1.4589,0.0,0.0,1.4088,1.4088,1.4088,1.4088,1.4088,1.4088,1.4088,1.4088,1.4088,1.4088,1.4088,1.4088,1.4088,1.4088,1.4088,1.4004,1.3913,1.3737,1.3568,1.3392,1.3307,1.3137,1.2881,0.0,1.279,1.2687,1.2421,1.2312,1.2276,1.1872,1.1636,1.151,1.1359,1.122,1.1111,1.1111,1.1111,1.1111,1.1111,1.1111,1.1111,1.1111,1.1111,1.1067,1.0842,1.0724,1.0636,1.0636,1.0815,1.1025,1.1551,1.1745,1.1775,1.1896,1.192,1.1962,1.2107,1.2023,1.1968,1.2107,1.2017,1.176,1.118,1.1267,1.0945,0.9963,0.9555,0.9129,0.8537,0.7671,0.7122,0.6957,0.6642,0.6369,0.6359,0.6369,0.6339,0.6264,0.6338,0.6295,0.6373,0.6298,0.6298,0.6376,0.6298,0.6338,0.6338,0.6338,0.6335,0.511,0.5463,0.5863,0.5978,0.0,0.6436,0.6701,0.0,0.0,0.0,0.0,0.0,0.0,1.0739,0.0,1.4115,1.4406,1.4374,1.4608,1.4763,1.4669,1.4148,1.4088,1.4088,1.4088,1.4088,1.4088,1.4088,1.4088,1.4088,1.4088,1.4088,1.4088,1.4088,1.4088,1.4088,1.4088,1.4088,1.4088,1.4088,1.3828,1.3737,1.3652,1.3483,1.3313,1.3143,1.3143,1.3052,1.2778,1.2571,1.2492,1.2361,1.1896,1.1636,1.1498,1.1214,1.1111,1.1111,1.1111,1.1111,1.1111,1.1111,1.1111,1.1111,1.1111,1.1111,1.1091,1.1135,1.0779,1.0426,1.0589,1.0641,1.0875,1.1751,1.2011,1.2029,1.2089,1.2107,1.2161,1.2367,1.224,1.2168,1.2367,1.224,1.1851,1.11,1.1601,1.1607,1.0115,1.0239,1.0141,0.9157,0.8226,0.7517,0.7309,0.6893,0.6519,0.6373,0.6464,0.6478,0.6369,0.6366,0.6417,0.6522,0.6383,0.6363,0.6471,0.6363,0.6312,0.6312,0.6312,0.6407,0.5699,0.5986,0.6168,0.6355,0.6362,0.0,0.7017,0.7074,0.0,0.0,0.0,0.0,0.0,1.2192,1.3229,1.2769,1.4149,1.5192,1.4977,0.0,1.4436,1.4122,1.4088,1.4088,1.4088,1.4088,1.4088,1.4088,1.4088,1.4088,1.4088,1.4088,1.4088,1.4088,1.4088,1.4088,1.4088,1.4088,1.4088,1.4088,1.3828,1.3737,1.3652,1.3483,1.3392,1.3398,1.3398,1.3228,1.3052,1.3033,1.2936,1.265,1.2367,1.1956,1.1498,1.1214,1.1111,1.1111,1.1111,1.1111,1.1111,1.1111,1.1111,1.1111,1.1111,1.1111,1.094,1.0346,1.0333,1.0659,1.1564,1.1169,1.0821,1.1975,1.2282,1.2355,1.2596,1.265,1.265,1.2674,1.2662,1.2656,1.2674,1.2662,1.2644,1.2559,1.2565,1.2559,1.2474,1.0911,0.9769,0.9666,0.7927,0.6761,0.675,0.6807,0.6831,0.6678,0.6678,0.6678,0.6668,0.6668,0.6675,0.6685,0.6536,0.6461,0.6471,0.6461,0.6458,0.6458,0.6458,0.6614,0.5462,0.5843,0.6223,0.6233,0.0,0.0,0.0,0.0,0.0,0.0,0.0,0.0,0.0,0.0,1.397,1.3318,1.4286,1.5023,1.473,1.4589,1.4409,1.4122,1.4088,1.4088,1.4088,1.4088,1.4088,1.4088,1.4088,1.4088,1.4088,1.4088,1.4088,1.4088,1.4088,1.4088,1.4088,1.4088,1.4088,1.4088,1.4004,1.3913,1.3913,1.3737,1.3483,1.3392,1.3307,1.3052,1.2863,1.2698,1.2547,1.2421,1.2073,1.1756,1.1407,1.1297,1.1335,1.1484,1.1335,1.126,1.1366,1.1702,1.1606,1.1401,1.1725,1.1852,1.1751,1.1531,1.1334,1.1232,1.1254,1.1111,1.1242,1.2277,1.256,1.2584,1.2681,1.2705,1.2705,1.2705,1.2705,1.2705,1.2705,1.2705,1.2534,1.1929,1.2357,1.2272,1.1139,1.0813,1.0193,0.8958,0.7533,0.6739,0.6834,0.6895,0.6943,0.697,0.6892,0.68,0.6705,0.6702,0.6746,0.6841,0.6692,0.6661,0.6756,0.6661,0.6614,0.6614,0.6614,0.6725,0.5382,0.5783,0.6223,0.0,0.0,0.0,0.0,0.0,0.0,0.0,0.0,0.0,0.0,0.0,0.0,0.0,1.4334,1.475,1.4549,1.4442,1.4309,1.4115,1.4088,1.4088,1.4088,1.4088,1.4088,1.4088,1.4088,1.4088,1.4088,1.4088,1.4088,1.4088,1.4088,1.4088,1.4088,1.4088,1.4088,1.4088,1.4088,1.4088,1.4088,1.3822,1.3652,1.3568,1.3398,1.3087,1.2741,1.2557,1.2298,1.2029,1.1829,1.1511,1.1335,1.1335,1.1409,1.1484,1.1335,1.1335,1.1384,1.1827,1.1766,1.1582,1.2007,1.2166,1.2141,1.1905,1.1638,1.1227,1.0721,1.1033,1.1671,1.2534,1.2705,1.2705,1.2705,1.2705,1.2705,1.2705,1.2705,1.2705,1.2705,1.2705,1.2443,1.1843,1.2272,1.2272,1.0966,1.1058,1.057,0.8537,0.7743,0.7218,0.6987,0.6997,0.7037,0.7136,0.7048,0.6949,0.6844,0.6841,0.6888,0.6993,0.6848,0.6824,0.6929,0.6824,0.6773,0.6773,0.6773,0.6854,0.5608,0.5872,0.6252,0.0,0.0,0.0,0.0,0.0,0.0,0.0,0.0,1.1467,1.1925,0.0,0.0,1.3441,1.4078,1.4516,1.4516,1.4269,1.4088,1.4088,1.4088,1.4088,1.4088,1.4088,1.4088,1.4088,1.4088,1.4088,1.4088,1.4088,1.4088,1.4088,1.4088,1.4088,1.4088,1.4088,1.4088,1.4088,1.4088,1.4088,1.4088,1.3822,1.3822,1.4088,1.3822,1.3407,1.2985,1.282,1.2246,1.1528,1.1528,1.1359,1.1111,1.1111,1.1111,1.1111,1.1111,1.1111,1.116,1.1443,1.154,1.1588,1.1854,1.1926,1.1739,1.1078,1.0893,1.0779,1.0129,1.0799,1.1843,1.2534,1.2705,1.2705,1.2705,1.2705,1.2705,1.2705,1.2705,1.2705,1.2705,1.2705,1.2705,1.2705,1.2705,1.2705,1.2705,1.1843,1.0544,0.8715,0.8544,0.8105,0.7139,0.7139,0.7139,0.7139,0.7139,0.7139,0.7139,0.7139,0.7139,0.7139,0.7004,0.6929,0.6929,0.6929,0.6929,0.6929,0.6929,0.7007,0.5406,0.5778,0.0,0.0,0.0,0.0,0.0,0.0,0.0,0.0,0.0,1.1537,1.2383,0.0,0.0,1.3015,1.3662,1.4215,1.4215,1.4142,1.4088,1.4088,1.4088,1.4088,1.4088,1.4088,1.4088,1.4088,1.4088,1.4088,1.4088,1.4088,1.4088,1.4088,1.4088,1.4088,1.4088,1.4088,1.4088,1.4088,1.4088,1.4088,1.4088,1.3822,1.3737,1.3822,1.3568,1.3347,1.2987,1.2361,1.18,1.1238,1.1383,1.1409,1.1335,1.1335,1.1409,1.1484,1.1484,1.1539,1.168,1.2277,1.2252,1.2131,1.2646,1.2733,1.2661,1.2312,1.1906,1.1577,1.1042,1.0799,1.088,1.158,1.1757,1.1929,1.2534,1.2705,1.2705,1.2705,1.2705,1.2705,1.2705,1.2705,1.2705,1.2705,1.2705,1.2448,1.1843,1.1494,1.0544,0.8715,0.8544,0.8105,0.7139,0.7139,0.7139,0.7139,0.7139,0.7139,0.7139,0.7139,0.7139,0.7139,0.7099,0.7078,0.7078,0.7078,0.7078,0.7078,0.7078,0.7099,0.5783,0.0,0.0,0.0,0.0,0.0,0.0,0.0,0.0,0.0,0.0,1.164,1.2883,1.3366,0.0,1.3452,1.3815,1.4088,1.4088,1.4088,1.4088,1.4088,1.4088,1.4088,1.4088,1.4088,1.4088,1.4088,1.4088,1.4088,1.4088,1.4088,1.4088,1.4088,1.4088,1.4088,1.4088,1.4088,1.4088,1.4088,1.4088,1.4088,1.4088,1.3913,1.3762,1.3638,1.3251,1.2902,1.2619,1.2091,1.1637,1.1335,1.1484,1.1484,1.1484,1.1484,1.1632,1.1706,1.1706,1.1746,1.1884,1.2602,1.2599,1.2562,1.3024,1.3222,1.3222,1.3052,1.279,1.2443,1.1757,1.1316,1.1052,1.1235,1.1063,1.1144,1.2443,1.2443,1.2272,1.2619,1.2705,1.2705,1.2705,1.2705,1.2705,1.2705,1.2705,1.2534,1.1929,1.1843,1.1144,0.9235,0.9061,0.854,0.7228,0.7139,0.7139,0.7139,0.7139,0.7139,0.7139,0.7139,0.7139,0.7139,0.7139,0.7139,0.7139,0.7139,0.7139,0.7139,0.7139,0.7139,0.6331,0.0,0.0,0.0,0.0,0.0,0.913,0.0,1.0318,1.1673,0.0,1.1852,1.3367,1.3138,1.3149,1.4216,1.4195,1.4015,1.4041,1.4021,1.4008,1.4008,1.4008,1.4015,1.4041,1.4048,1.4055,1.4082,1.4088,1.4088,1.4088,1.4088,1.4088,1.4088,1.4088,1.4088,1.4088,1.4088,1.4088,1.4088,1.4088,1.4088,1.4088,1.4088,1.3928,1.3532,1.2844,1.2434,1.2132,1.1859,1.1732,1.1706,1.1706,1.1706,1.1706,1.1706,1.1706,1.1706,1.1706,1.1726,1.1834,1.2361,1.2644,1.2705,1.3207,1.3372,1.3398,1.3398,1.3313,1.3052,1.2186,1.1923,1.1752,1.1413,1.0712,1.0529,1.2186,1.1929,1.1671,1.2534,1.2705,1.2705,1.2705,1.2705,1.2705,1.2705,1.2705,1.2705,1.2705,1.2705,1.2009,1.0183,0.9923,0.9139,0.7401,0.7139,0.7139,0.7139,0.7139,0.7139,0.7139,0.7139,0.7139,0.7139,0.7139,0.7139,0.7139,0.7139,0.7139,0.7139,0.7139,0.7139,0.0,0.6233,0.0,0.0,0.0,0.0,0.9675,1.0076,1.0693,1.178,1.2137,1.2575,1.3471,1.33,1.3244,1.3698,1.3587,1.348,1.3707,1.354,1.34,1.34,1.34,1.3487,1.3721,1.3741,1.3834,1.4068,1.4088,1.4088,1.4088,1.4088,1.4088,1.4088,1.4088,1.4088,1.4088,1.4088,1.4088,1.4088,1.4088,1.4088,1.4088,1.4088,1.3928,1.3552,1.3264,1.2883,1.2382,1.2082,1.1916,1.1706,1.1706,1.1706,1.1706,1.1706,1.1706,1.1706,1.1855,1.1934,1.2075,1.2357,1.2698,1.2921,1.3035,1.322,1.3398,1.3398,1.2875,1.2272,1.2015,1.1488,1.1047,1.1666,1.158,1.1408,1.158,1.2015,1.2448,1.2619,1.2705,1.2705,1.2705,1.2705,1.2705,1.2705,1.2705,1.2705,1.2705,1.2705,1.2272,1.1144,1.0361,0.9405,0.8281,0.7492,0.7139,0.7139,0.7139,0.7139,0.7139,0.7139,0.7139,0.7139,0.7139,0.7139,0.7139,0.7139,0.7139,0.7139,0.7139,0.7139,0.0,0.0,0.0,0.0,0.0,0.0,1.0363,1.0889,1.1427,1.232,1.2453,1.2668,1.3494,1.3539,1.3405,1.3561,1.3453,1.3333,1.3414,1.3307,1.3213,1.3213,1.3213,1.3267,1.342,1.344,1.35,1.3654,1.3794,1.3874,1.3874,1.4008,1.4088,1.4088,1.4088,1.4088,1.4088,1.4088,1.4088,1.4088,1.4088,1.4088,1.4082,1.3941,1.3714,1.3427,1.32,1.2804,1.2395,1.2244,1.2146,1.2003,1.2003,1.2003,1.2003,1.2003,1.2003,1.2003,1.2077,1.2182,1.229,1.2654,1.2949,1.3163,1.3437,1.362,1.3737,1.3737,1.3392,1.3045,1.3045,1.2607,1.226,1.2169,1.1655,1.1402,1.21,1.2357,1.2534,1.296,1.3045,1.296,1.2881,1.279,1.2705,1.2705,1.2705,1.2705,1.2705,1.2705,1.2357,1.1408,1.0448,0.9492,0.8544,0.7665,0.7139,0.7139,0.7139,0.7139,0.7139,0.7139,0.7139,0.7139,0.7139,0.7139,0.7139,0.7139,0.7139,0.7139,0.7139,0.7139,0.0,0.0,0.0,0.0,0.9217,0.0,1.1165,1.1836,1.2316,1.2902,1.258,1.2536,1.3498,1.3457,1.3358,1.3413,1.3379,1.3287,1.312,1.3086,1.3053,1.3053,1.3053,1.3073,1.3126,1.3133,1.3153,1.3206,1.3434,1.3567,1.3567,1.3801,1.3935,1.3935,1.3935,1.3935,1.3935,1.3981,1.3981,1.3935,1.3935,1.3935,1.3928,1.3681,1.344,1.3193,1.2879,1.2579,1.2305,1.2305,1.2305,1.2305,1.2305,1.2305,1.2305,1.2305,1.2338,1.2378,1.2378,1.2418,1.2545,1.3046,1.324,1.338,1.3861,1.4048,1.4088,1.4088,1.4088,1.4088,1.4088,1.4088,1.3822,1.2851,1.1901,1.1563,1.2875,1.2705,1.2448,1.3222,1.3398,1.3313,1.3137,1.2966,1.279,1.279,1.2705,1.2705,1.2705,1.2705,1.2357,1.1585,1.0534,0.9579,0.8803,0.7753,0.7139,0.7139,0.7139,0.7139,0.7139,0.7139,0.7139,0.7139,0.7139,0.7139,0.7139,0.7139,0.7139,0.7139,0.7139,0.7139,0.0,0.0,0.0,0.0,0.9902,1.0508,0.0,0.0,1.3147,0.0,1.2999,1.3029,1.3105,1.2743,1.258,1.2988,1.2736,1.2587,1.2849,1.2585,1.2425,1.2425,1.2425,1.2525,1.2862,1.2882,1.2919,1.3186,1.3247,1.3267,1.3267,1.3307,1.3327,1.3327,1.3327,1.3327,1.3327,1.3574,1.3574,1.3327,1.3327,1.3327,1.3327,1.3287,1.3247,1.3193,1.2879,1.2579,1.2305,1.2305,1.2305,1.2305,1.2305,1.2305,1.2305,1.2305,1.2465,1.2761,1.2761,1.2866,1.31,1.3186,1.338,1.3601,1.3681,1.3881,1.4088,1.4088,1.4088,1.4088,1.4088,1.4088,1.4088,1.3906,1.3737,1.3392,1.2357,1.2705,1.3222,1.3398,1.3398,1.3392,1.3392,1.3222,1.3052,1.3052,1.2875,1.2705,1.2705,1.2705,1.2619,1.2534,1.0966,0.9836,0.9749,0.8097,0.7139,0.7139,0.7139,0.7139,0.7139,0.7139,0.7139,0.7139,0.7139,0.7139,0.7139,0.7139,0.7139,0.7139,0.7139,0.7139,0.6371,0.6827,0.7522,0.0,1.0046,1.0994,1.217,0.0,1.3534,1.3523,1.3256,1.3079,1.2974,1.2762,1.2647,1.2777,1.2614,1.2499,1.2478,1.2385,1.2305,1.2305,1.2305,1.2351,1.2485,1.2498,1.2559,1.2692,1.2859,1.2953,1.2953,1.3113,1.3213,1.3213,1.3213,1.3213,1.3213,1.334,1.334,1.3213,1.3213,1.3213,1.32,1.3026,1.2953,1.2946,1.2882,1.2579,1.2305,1.2305,1.2305,1.2305,1.2305,1.2305,1.2305,1.2305,1.2492,1.2822,1.2822,1.2953,1.3233,1.34,1.354,1.3674,1.3841,1.3981,1.4088,1.4088,1.4088,1.4088,1.4088,1.4088,1.4088,1.4088,1.4088,1.3913,1.3307,1.3483,1.3828,1.3828,1.3652,1.3561,1.3561,1.3398,1.3307,1.3307,1.3137,1.3052,1.2966,1.2875,1.2705,1.2015,1.1144,1.0274,0.9235,0.8364,0.7665,0.7139,0.7139,0.7139,0.7139,0.7139,0.7139,0.7139,0.7139,0.7139,0.7139,0.7139,0.7139,0.7139,0.7139,0.7139,0.0,0.0,0.7389,0.8684,1.0032,1.1307,0.0,0.0,1.3959,0.0,1.3691,1.3307,1.2993,1.2802,1.2746,1.2599,1.2526,1.2452,1.2298,1.2305,1.2305,1.2305,1.2305,1.2305,1.2305,1.2305,1.2305,1.2305,1.2512,1.2632,1.2632,1.2852,1.2979,1.2979,1.2979,1.2979,1.2979,1.3053,1.3093,1.3093,1.3093,1.3053,1.2973,1.2739,1.2632,1.2632,1.2632,1.2505,1.2305,1.2305,1.2305,1.2305,1.2305,1.2305,1.2311,1.2385,1.2605,1.2872,1.2946,1.3173,1.3467,1.3687,1.3754,1.3801,1.4021,1.4088,1.4088,1.4088,1.4088,1.4088,1.4088,1.4088,1.4088,1.4088,1.4088,1.4088,1.4088,1.4088,1.4088,1.4088,1.3913,1.3822,1.3822,1.3652,1.3476,1.3476,1.3398,1.3332,1.3322,1.3243,1.2924,1.2029,1.1712,1.0799,0.9138,0.8656,0.8105,0.7139,0.7139,0.7139,0.7139,0.7139,0.7139,0.7139,0.7139,0.7139,0.7139,0.7139,0.7139,0.7139,0.7139,0.7139,0.0,0.6625,0.0,0.8388,0.9994,0.0,0.0,0.0,1.4772,1.4588,1.4258,1.3853,1.3154,1.2641,1.2378,1.2599,1.2452,1.2305,1.2305,1.2305,1.2305,1.2305,1.2305,1.2305,1.2305,1.2305,1.2305,1.2305,1.2318,1.2325,1.2325,1.2345,1.2351,1.2351,1.2351,1.2351,1.2351,1.2632,1.2849,1.2849,1.2849,1.2625,1.2351,1.2331,1.2325,1.2325,1.2325,1.2318,1.2305,1.2305,1.2305,1.2305,1.2305,1.2305,1.2338,1.2694,1.2919,1.3227,1.35,1.3794,1.4041,1.4055,1.4062,1.4068,1.4082,1.4088,1.4088,1.4088,1.4088,1.4088,1.4088,1.4088,1.4088,1.4088,1.4088,1.4088,1.4088,1.4088,1.4088,1.4088,1.4088,1.4088,1.4088,1.3828,1.3652,1.3652,1.3483,1.3493,1.3748,1.3786,1.3806,1.3724,1.2696,1.1567,1.0324,0.9168,0.8105,0.7139,0.7139,0.7139,0.7139,0.7139,0.7139,0.7139,0.7139,0.7139,0.7139,0.7139,0.7139,0.7139,0.7139,0.7139,0.0,0.0,0.0,0.7716,0.9073,1.0381,1.1557,1.2915,1.3912,1.4223,1.3818,1.3397,1.3317,1.3008,1.2668,1.2405,1.2378,1.2305,1.2305,1.2305,1.2305,1.2305,1.2305,1.2305,1.2305,1.2305,1.2305,1.2305,1.2305,1.2305,1.2305,1.2305,1.2305,1.2305,1.2305,1.2305,1.2305,1.2412,1.2458,1.2458,1.2458,1.2405,1.2305,1.2305,1.2305,1.2305,1.2305,1.2305,1.2305,1.2305,1.2305,1.2305,1.2305,1.2305,1.2338,1.2714,1.2946,1.3253,1.354,1.3841,1.4088,1.4088,1.4088,1.4088,1.4088,1.4088,1.4088,1.4088,1.4088,1.4088,1.4088,1.4088,1.4088,1.4088,1.4088,1.4088,1.4088,1.4088,1.4088,1.4088,1.4088,1.4088,1.4088,1.3997,1.3997,1.3997,1.3913,1.3861,1.3788,1.3716,1.3496,1.2721,1.273,1.1886,0.9605,0.9362,0.8707,0.7228,0.7139,0.7139,0.7139,0.7139,0.7139,0.7139,0.7139,0.7139,0.7139,0.7139,0.7139,0.7139,0.7139,0.7139,0.6278,0.0,0.0,0.0,0.0,0.9498,1.1031,1.2203,1.3223,1.3874,1.3578,1.3235,1.3253,1.3104,1.2831,1.256,1.2452,1.2418,1.2318,1.2305,1.2305,1.2305,1.2305,1.2305,1.2305,1.2305,1.2305,1.2305,1.2305,1.2305,1.2305,1.2305,1.2305,1.2305,1.2305,1.2305,1.2305,1.2405,1.2405,1.2305,1.2405,1.2398,1.2305,1.2305,1.2305,1.2305,1.2003,1.2077,1.2305,1.2305,1.2305,1.2305,1.2305,1.2305,1.2351,1.2752,1.3033,1.3267,1.3661,1.3921,1.4088,1.4088,1.4088,1.4088,1.4088,1.4088,1.4088,1.4088,1.4088,1.4088,1.4088,1.4088,1.4088,1.4088,1.4088,1.4088,1.4088,1.4088,1.4088,1.4088,1.4088,1.4088,1.4088,1.4088,1.4088,1.4088,1.4088,1.4037,1.3953,1.3966,1.3655,1.2958,1.3244,1.2486,1.0211,1.0052,0.9314,0.7665,0.7316,0.7139,0.7139,0.7139,0.7139,0.7139,0.7139,0.7139,0.7139,0.7139,0.7139,0.7139,0.7139,0.7139,0.0,0.0,0.0,0.0,0.0,0.0,1.1033,0.0,1.2542,1.3563,1.3546,1.3294,1.2882,1.2829,1.2822,1.2822,1.2815,1.2708,1.2345,1.2311,1.2318,1.2318,1.2325,1.2325,1.2318,1.2318,1.2311,1.2305,1.2305,1.2305,1.2305,1.2305,1.2305,1.2305,1.2305,1.2305,1.2305,1.2585,1.2585,1.2305,1.2592,1.2585,1.2305,1.2305,1.2305,1.2224,1.1484,1.1558,1.2224,1.2224,1.2224,1.2224,1.2224,1.2305,1.2371,1.2986,1.3213,1.3293,1.3881,1.4088,1.4088,1.4088,1.4088,1.4088,1.4088,1.4088,1.4088,1.4088,1.4088,1.4088,1.4088,1.4088,1.4088,1.4088,1.4088,1.4088,1.4088,1.4088,1.4088,1.4088,1.4088,1.4088,1.4088,1.4088,1.4088,1.4088,1.4088,1.4188,1.4469,1.4502,1.4528,1.4539,1.4324,1.3623,1.2198,1.1004,0.9753,0.8544,0.7577,0.7139,0.7139,0.7139,0.7139,0.7139,0.7139,0.7139,0.7139,0.7139,0.7139,0.7139,0.7139,0.7139,0.5957,0.0,0.0,0.0,0.0,0.0,0.0,0.0,1.0118,1.2013,1.2068,1.2087,1.3115,1.3117,1.2891,1.2822,1.2565,1.2398,1.2311,1.2485,1.2625,1.2625,1.2819,1.2872,1.2645,1.2625,1.2532,0.0,1.2305,1.2305,1.2305,1.2305,1.2305,1.2305,1.2305,1.2305,1.2305,1.2385,1.2385,1.2305,1.2385,1.2385,1.2305,1.2305,1.2305,1.2224,1.1484,1.126,1.1409,1.0801,1.0875,1.1409,1.1409,1.1781,1.2371,1.2986,1.3213,1.3293,1.3881,1.4088,1.4088,1.4088,1.4088,1.4088,1.4088,1.4088,1.4088,1.4088,1.4088,1.4088,1.4088,1.4088,1.4088,1.4088,1.4088,1.4088,1.4088,1.4088,1.4088,1.4088,1.4088,1.4088,1.4088,1.4088,1.4088,1.4088,1.4088,1.4115,1.4195,1.4208,1.4235,1.4236,1.3992,1.3151,1.1408,1.0651,0.9579,0.7852,0.7319,0.7139,0.7139,0.7139,0.7139,0.7139,0.7139,0.7139,0.7139,0.7139,0.7139,0.7139,0.7139,0.7139,0.0,0.0,0.0,0.0,0.0,0.0,0.821,0.8596,0.9304,1.1709,1.1906,1.1906,1.2927,1.2975,1.2784,1.2634,1.2418,1.2305,1.2305,1.2452,1.2559,1.2559,1.2826,1.2946,1.2842,1.2866,1.2866,1.2692,1.2679,1.2625,1.2492,1.2485,1.2432,1.2305,1.2305,1.2305,1.2305,1.2305,1.2305,1.2305,1.2305,1.2305,1.2305,1.2305,1.215,1.1781,1.0956,1.0432,1.0056,0.9599,1.0051,1.1111,1.1484,1.1855,1.2371,1.2986,1.2969,1.2721,1.3284,1.3222,1.296,1.296,1.3222,1.3483,1.3052,1.3222,1.3398,1.3045,1.3222,1.3568,1.4004,1.4088,1.4088,1.4088,1.4088,1.4088,1.4088,1.4088,1.4088,1.4088,1.4088,1.4088,1.4088,1.4088,1.4088,1.4088,1.4088,1.4088,1.4088,1.4088,1.4088,1.4088,1.3997,1.3222,1.1746,1.0875,0.9753,0.8197,0.7496,0.7139,0.7139,0.7139,0.7139,0.7139,0.7139,0.7139,0.7139,0.7139,0.7139,0.7139,0.7139,0.7139,0.0,0.0,0.0,0.0,0.0,0.0,0.856,0.8744,0.9142,1.1634,1.188,1.1827,1.2123,1.2204,1.2151,1.2005,1.2065,1.2184,1.2298,1.2331,1.2351,1.2351,1.2612,1.2862,1.2829,1.2999,1.3146,1.3113,1.3106,1.2999,1.2835,1.2822,1.2625,1.2358,1.2351,1.2338,1.2305,1.2305,1.2305,1.2305,1.2305,1.2305,1.2305,1.2224,1.1781,1.1037,1.0121,0.9372,0.8703,0.8703,0.9604,1.1037,1.1855,1.2231,1.2371,1.2986,1.2644,1.1906,1.2518,1.21,1.1327,1.1327,1.1843,1.2357,1.1585,1.1843,1.2357,1.1671,1.21,1.2875,1.3828,1.4088,1.4088,1.4088,1.4088,1.4088,1.4088,1.4088,1.4088,1.4088,1.4088,1.4088,1.4088,1.4088,1.4088,1.4088,1.4088,1.4088,1.4088,1.4088,1.4088,1.3997,1.3913,1.3483,1.2192,1.1139,1.0009,0.889,0.7753,0.7139,0.7139,0.7139,0.7139,0.7139,0.7139,0.7139,0.7139,0.7139,0.7139,0.7139,0.7139,0.7139,0.0,0.0,0.0,0.0,0.0,0.0,0.6327,0.6502,0.7044,0.8377,0.8601,0.8807,0.964,0.9922,0.9929,0.9742,1.0508,1.1367,1.2191,1.2512,1.2735,1.2735,1.2933,1.3019,1.2849,1.2876,1.2739,1.2498,1.2478,1.2559,1.2808,1.2822,1.2795,1.2735,1.2735,1.2545,1.2305,1.2305,1.2305,1.2305,1.2305,1.2305,1.2305,1.1632,1.126,1.1037,0.9528,0.8851,0.8703,0.8703,0.9301,1.0196,1.1031,1.1706,1.2371,1.2986,1.2644,1.1906,1.2518,1.21,1.1327,1.1327,1.1408,1.1585,1.1322,1.1408,1.1671,1.2272,1.2534,1.2875,1.3828,1.4088,1.4088,1.4088,1.4088,1.4088,1.4088,1.4088,1.4088,1.4088,1.4088,1.4088,1.4088,1.4088,1.4088,1.4088,1.4088,1.4088,1.4088,1.4088,1.3828,1.3052,1.296,1.2272,1.0549,1.0019,0.9323,0.8201,0.7676,0.7323,0.7139,0.7139,0.7139,0.7139,0.7139,0.7139,0.7139,0.7139,0.7139,0.7139,0.7139,0.7139,0.0,0.0,0.0,0.5612,0.0,0.0,0.0,0.6401,0.6857,0.8163,0.8335,0.843,0.9108,0.9346,0.9365,0.912,1.0078,1.0922,1.1287,1.2018,1.2525,1.2525,1.2792,1.2919,1.2835,1.2886,1.2913,1.2766,1.2759,1.2752,1.2822,1.2822,1.2755,1.2525,1.2741,1.2681,1.2305,1.2605,1.2679,1.2525,1.2525,1.2293,1.191,1.1322,1.0657,0.983,0.9079,0.8475,0.8169,0.8551,0.8927,0.9372,1.0201,1.0956,1.1683,1.1713,1.1232,1.0584,1.102,1.0626,0.9946,0.9946,1.0294,1.0549,1.012,0.9946,1.012,1.1063,1.1666,1.2186,1.3137,1.3743,1.4088,1.4088,1.4088,1.4088,1.4088,1.4088,1.4088,1.4088,1.4088,1.4088,1.4088,1.4088,1.4088,1.4088,1.4088,1.4088,1.4088,1.4088,1.3913,1.3483,1.296,1.21,1.0722,1.0019,0.9148,0.794,0.768,0.7415,0.7139,0.7139,0.7139,0.7139,0.7139,0.7139,0.7139,0.7139,0.7139,0.7139,0.7139,0.7139,0.0,0.0,0.0,0.0,0.0,0.5944,0.0,0.0,0.0,0.8158,0.8237,0.8165,0.8548,0.8652,0.8625,0.8445,0.9411,1.0114,0.9908,1.0922,1.1774,1.2124,1.2445,1.2714,1.2654,1.2806,1.2973,1.3033,1.2986,1.2893,1.2829,1.2822,1.2714,1.2392,1.2694,1.2681,1.2305,1.2786,1.2913,1.2735,1.2583,1.212,1.1419,1.0906,0.9906,0.8699,0.8551,0.8093,0.7561,0.8169,0.8546,0.8775,0.9593,1.0276,1.0836,1.0467,0.9841,0.9269,0.9554,0.9176,0.8568,0.8568,0.9087,0.9515,0.8828,0.8568,0.8828,0.9859,1.0722,1.1585,1.2705,1.3568,1.4088,1.4088,1.4088,1.4088,1.4088,1.4088,1.4088,1.4088,1.4088,1.4088,1.4088,1.4088,1.4088,1.4088,1.3913,1.3913,1.4088,1.3743,1.3568,1.3568,1.2705,1.1757,1.0895,0.9937,0.8982,0.794,0.768,0.7415,0.7139,0.7139,0.7139,0.7139,0.7139,0.7139,0.7139,0.7139,0.7139,0.7139,0.7139,0.7139,0.0,0.0,0.0,0.0,0.6095,0.0,0.0,0.0,0.596,0.5806,0.0,0.5677,0.0,0.0,0.0,0.0,0.0,0.7931,0.7907,0.8797,0.9935,1.1352,1.2011,1.2251,1.2063,1.1997,1.2131,1.2385,1.2164,1.2231,1.2795,1.2822,1.2808,1.2775,1.2802,1.2681,1.2305,1.2371,1.2385,1.2351,1.1608,1.1234,1.1079,0.9614,0.8851,0.8627,0.794,0.7561,0.7484,0.7638,0.8093,0.8775,0.9593,0.997,1.0073,1.0231,0.9841,0.9269,0.9554,0.9176,0.8568,0.8568,0.8656,0.874,0.8656,0.8568,0.8911,1.0636,1.1235,1.1671,1.3483,1.3997,1.4088,1.4088,1.4088,1.4088,1.4088,1.4088,1.4088,1.4088,1.4088,1.4088,1.4088,1.4088,1.4088,1.4088,1.3392,1.3137,1.3997,1.2619,1.1585,1.1585,1.0809,0.9859,0.8999,0.8828,0.8476,0.794,0.7856,0.7588,0.7139,0.7139,0.7139,0.7139,0.7139,0.7139,0.7139,0.7139,0.7139,0.7139,0.7139,0.7139,0.0,0.0,0.0,0.0,0.0,0.0,0.5596,0.0,0.5563,0.0,0.0,0.0,0.0,0.0,0.0,0.0,0.6641,0.0,0.7231,0.8206,0.9241,1.0122,1.0375,1.0637,1.119,1.128,1.1546,1.2278,1.1663,1.1604,1.2465,1.2485,1.2485,1.2485,1.2735,1.2681,1.2305,1.2652,1.2503,1.1797,1.1487,1.0877,0.9874,0.9057,0.847,0.8016,0.7633,0.7484,0.7484,0.7484,0.771,0.8016,0.8389,0.8765,0.916,0.8789,0.8566,0.8452,0.8639,0.8586,0.8426,0.8532,0.8568,0.8568,0.8568,0.8568,0.8828,1.012,1.0895,1.1585,1.296,1.3659,1.4088,1.4088,1.4088,1.4088,1.4088,1.4088,1.4088,1.4088,1.4088,1.4088,1.4088,1.4088,1.4088,1.4088,1.3743,1.3652,1.4082,1.3398,1.2705,1.2186,1.1241,1.0376,0.9432,0.8911,0.8476,0.8116,0.7852,0.7499,0.7139,0.7139,0.7139,0.7139,0.7139,0.7139,0.7139,0.7139,0.7139,0.7139,0.7139,0.7139,0.6067,0.0,0.0,0.0,0.0,0.0,0.0,0.0,0.0,0.0,0.0,0.0,0.0,0.0,0.0,0.0,0.0,0.6871,0.0,0.7313,0.8175,0.0,0.0,0.0,1.0331,1.0314,1.07,1.178,1.1103,1.1175,1.2211,1.2305,1.2305,1.2305,1.2512,1.2518,1.2305,1.251,1.2221,1.1395,1.0929,1.0081,0.8994,0.8539,0.8016,0.7484,0.7484,0.7484,0.7484,0.7484,0.7484,0.7484,0.7484,0.7863,0.8322,0.7714,0.7602,0.7784,0.7955,0.817,0.839,0.8524,0.8568,0.8568,0.8568,0.8568,0.8828,0.9946,1.0809,1.1585,1.279,1.3568,1.4088,1.4088,1.4088,1.4088,1.4088,1.4088,1.4088,1.4088,1.4088,1.4088,1.4088,1.4088,1.4088,1.4088,1.3913,1.3743,1.3743,1.3307,1.2705,1.2015,1.1068,1.0294,0.9602,0.8999,0.8476,0.8116,0.7676,0.7323,0.7139,0.7139,0.7139,0.7139,0.7139,0.7139,0.7139,0.7139,0.7139,0.7139,0.7139,0.7139,0.0,0.0,0.0,0.5973,0.0,0.0,0.0,0.0,0.5823,0.0,0.0,0.0,0.0,0.0,0.0,0.0,0.0,0.0,0.0,0.0,0.0,0.0,0.0,0.0,0.0,0.9133,0.9462,1.0742,1.0612,1.0974,1.2198,1.2305,1.2305,1.2305,1.2311,1.2311,1.2305,1.1577,1.1135,1.1123,0.9539,0.8784,0.8708,0.7868,0.7557,0.7484,0.7484,0.7484,0.7484,0.7484,0.7484,0.7484,0.7484,0.7484,0.7561,0.7484,0.7602,0.7784,0.7955,0.8251,0.856,0.8564,0.8568,0.8568,0.8568,0.8568,0.8999,1.0722,1.1241,1.1757,1.3568,1.4088,1.4088,1.4088,1.4088,1.4088,1.4088,1.4088,1.4088,1.4088,1.4088,1.4088,1.4088,1.4088,1.4088,1.4088,1.3307,1.2705,1.2705,1.1154,1.0028,1.0028,0.917,0.8656,0.8656,0.8656,0.8388,0.7944,0.7408,0.7139,0.7139,0.7139,0.7139,0.7139,0.7139,0.7139,0.7139,0.7139,0.7139,0.7139,0.7139,0.7139,0.0,0.0,0.6363,0.612,0.0,0.0,0.0,0.0,0.0,0.0,0.0,0.0,0.0,0.0,0.0,0.0,0.0,0.0,0.0,0.0,0.0,0.0,0.0,0.0,0.0,0.0,0.9378,1.0569,1.0502,0.0,1.2198,1.2305,1.2305,1.2305,1.2305,1.2003,1.1484,1.126,1.0588,0.9533,0.8927,0.8399,0.7863,0.7638,0.7484,0.7484,0.7484,0.7484,0.7484,0.7484,0.7484,0.7484,0.7484,0.7484,0.7484,0.7484,0.7525,0.7602,0.7784,0.8081,0.8385,0.8385,0.8467,0.8568,0.8568,0.8999,0.9689,1.0982,1.1757,1.2528,1.3737,1.4088,1.4088,1.4088,1.4088,1.4088,1.4088,1.4088,1.4088,1.4088,1.4088,1.4088,1.4088,1.4088,1.4088,1.4088,1.3828,1.3398,1.279,1.2186,1.1241,1.0028,0.9602,0.9257,0.8652,0.8568,0.8388,0.7944,0.7764,0.7496,0.7139,0.7139,0.7139,0.7139,0.7139,0.7139,0.7139,0.7139,0.7139,0.7139,0.7139,0.7139,0.642,0.642,0.0,0.6256,0.6125,0.0,0.575,0.0,0.588,0.0,0.0,0.0,0.0,0.0,0.0,0.0,0.0,0.0,0.0,0.5394,0.0,0.0,0.0,0.0,0.0,0.0,0.0,1.0294,0.0,0.0,0.0,1.2345,1.2412,1.2305,1.2003,1.1632,1.1111,1.0507,0.9755,0.8703,0.8399,0.8016,0.7484,0.7484,0.7484,0.7484,0.7484,0.7484,0.7484,0.7484,0.7484,0.7484,0.7484,0.7484,0.7484,0.7484,0.7525,0.7598,0.772,0.7992,0.8292,0.8292,0.8418,0.8568,0.8568,0.8999,0.9689,1.0982,1.1757,1.2534,1.3737,1.4088,1.4088,1.4088,1.4088,1.4088,1.4088,1.4088,1.4088,1.4088,1.4088,1.4088,1.4088,1.4088,1.4088,1.4088,1.4088,1.3652,1.2363,1.2186,1.1499,0.9602,0.9428,0.917,0.8656,0.8476,0.8296,0.8028,0.7856,0.7588,0.7234,0.7143,0.7139,0.7139,0.7139,0.7139,0.7139,0.7139,0.7139,0.7139,0.7139,0.7139]}]]